<?xml version="1.0" encoding="UTF-8" standalone="no" ?>
<gpx xmlns="http://www.topografix.com/GPX/1/1" xmlns:xsi="http://www.w3.org/2001/XMLSchema-instance" xsi:schemaLocation="http://www.topografix.com/GPX/1/1 http://www.topografix.com/GPX/1/1/gpx.xsd" version="1.1" creator="VisuGPX - https://www.visugpx.com">
  <metadata>
    <name>etape3gr54</name>
  </metadata>
  <trk>
    <name><![CDATA[etape3gr54_1]]></name>
    <extensions>
      <line xmlns="http://www.topografix.com/GPX/gpx_style/0/2">
        <color>00FFFF</color>
        <width>4</width>
      </line>
    </extensions>
    <trkseg>
      <trkpt lat="44.84624" lon="6.48799">
        <ele>1170</ele>
        <time>2021-07-07T11:52:08Z</time>
      </trkpt>
      <trkpt lat="44.84608" lon="6.48764">
        <ele>1171</ele>
        <time>2021-07-07T11:51:53Z</time>
      </trkpt>
      <trkpt lat="44.84585" lon="6.48727">
        <ele>1174</ele>
        <time>2021-07-07T11:51:36Z</time>
      </trkpt>
      <trkpt lat="44.84567" lon="6.4871">
        <ele>1174</ele>
        <time>2021-07-07T11:51:25Z</time>
      </trkpt>
      <trkpt lat="44.84552" lon="6.48703">
        <ele>1173</ele>
        <time>2021-07-07T11:51:17Z</time>
      </trkpt>
      <trkpt lat="44.84528" lon="6.48675">
        <ele>1171</ele>
        <time>2021-07-07T11:51:02Z</time>
      </trkpt>
      <trkpt lat="44.84506" lon="6.48636">
        <ele>1171</ele>
        <time>2021-07-07T11:50:44Z</time>
      </trkpt>
      <trkpt lat="44.84467" lon="6.48579">
        <ele>1173</ele>
        <time>2021-07-07T11:50:16Z</time>
      </trkpt>
      <trkpt lat="44.84431" lon="6.48517">
        <ele>1175</ele>
        <time>2021-07-07T11:49:47Z</time>
      </trkpt>
      <trkpt lat="44.84425" lon="6.48518">
        <ele>1173</ele>
        <time>2021-07-07T11:49:44Z</time>
      </trkpt>
      <trkpt lat="44.84376" lon="6.48475">
        <ele>1171</ele>
        <time>2021-07-07T11:49:15Z</time>
      </trkpt>
      <trkpt lat="44.84371" lon="6.48474">
        <ele>1170</ele>
        <time>2021-07-07T11:49:13Z</time>
      </trkpt>
      <trkpt lat="44.84367" lon="6.48476">
        <ele>1170</ele>
        <time>2021-07-07T11:49:11Z</time>
      </trkpt>
      <trkpt lat="44.84358" lon="6.48488">
        <ele>1168</ele>
        <time>2021-07-07T11:49:05Z</time>
      </trkpt>
      <trkpt lat="44.84355" lon="6.48497">
        <ele>1167</ele>
        <time>2021-07-07T11:49:01Z</time>
      </trkpt>
      <trkpt lat="44.84335" lon="6.48498">
        <ele>1165</ele>
        <time>2021-07-07T11:48:51Z</time>
      </trkpt>
      <trkpt lat="44.84289" lon="6.48488">
        <ele>1164</ele>
        <time>2021-07-07T11:48:28Z</time>
      </trkpt>
      <trkpt lat="44.84267" lon="6.48479">
        <ele>1164</ele>
        <time>2021-07-07T11:48:16Z</time>
      </trkpt>
      <trkpt lat="44.84237" lon="6.48455">
        <ele>1164</ele>
        <time>2021-07-07T11:47:59Z</time>
      </trkpt>
      <trkpt lat="44.84217" lon="6.48423">
        <ele>1164</ele>
        <time>2021-07-07T11:47:44Z</time>
      </trkpt>
      <trkpt lat="44.84204" lon="6.48412">
        <ele>1165</ele>
        <time>2021-07-07T11:47:36Z</time>
      </trkpt>
      <trkpt lat="44.84192" lon="6.48407">
        <ele>1165</ele>
        <time>2021-07-07T11:47:30Z</time>
      </trkpt>
      <trkpt lat="44.8418" lon="6.48398">
        <ele>1165</ele>
        <time>2021-07-07T11:47:23Z</time>
      </trkpt>
      <trkpt lat="44.84173" lon="6.48389">
        <ele>1165</ele>
        <time>2021-07-07T11:47:19Z</time>
      </trkpt>
      <trkpt lat="44.84159" lon="6.4836">
        <ele>1166</ele>
        <time>2021-07-07T11:47:06Z</time>
      </trkpt>
      <trkpt lat="44.84119" lon="6.48302">
        <ele>1170</ele>
        <time>2021-07-07T11:46:37Z</time>
      </trkpt>
      <trkpt lat="44.84086" lon="6.48271">
        <ele>1171</ele>
        <time>2021-07-07T11:46:18Z</time>
      </trkpt>
      <trkpt lat="44.84085" lon="6.48264">
        <ele>1171</ele>
        <time>2021-07-07T11:46:15Z</time>
      </trkpt>
      <trkpt lat="44.84096" lon="6.48236">
        <ele>1172</ele>
        <time>2021-07-07T11:46:04Z</time>
      </trkpt>
      <trkpt lat="44.84095" lon="6.4822">
        <ele>1173</ele>
        <time>2021-07-07T11:45:58Z</time>
      </trkpt>
      <trkpt lat="44.84071" lon="6.48172">
        <ele>1176</ele>
        <time>2021-07-07T11:45:37Z</time>
      </trkpt>
      <trkpt lat="44.84036" lon="6.48071">
        <ele>1182</ele>
        <time>2021-07-07T11:44:57Z</time>
      </trkpt>
      <trkpt lat="44.84034" lon="6.4806">
        <ele>1182</ele>
        <time>2021-07-07T11:44:53Z</time>
      </trkpt>
      <trkpt lat="44.84018" lon="6.48023">
        <ele>1181</ele>
        <time>2021-07-07T11:44:38Z</time>
      </trkpt>
      <trkpt lat="44.84017" lon="6.4797">
        <ele>1182</ele>
        <time>2021-07-07T11:44:19Z</time>
      </trkpt>
      <trkpt lat="44.84023" lon="6.47857">
        <ele>1187</ele>
        <time>2021-07-07T11:43:39Z</time>
      </trkpt>
      <trkpt lat="44.84013" lon="6.47818">
        <ele>1187</ele>
        <time>2021-07-07T11:43:24Z</time>
      </trkpt>
      <trkpt lat="44.83975" lon="6.47729">
        <ele>1192</ele>
        <time>2021-07-07T11:42:47Z</time>
      </trkpt>
      <trkpt lat="44.83956" lon="6.47676">
        <ele>1192</ele>
        <time>2021-07-07T11:42:26Z</time>
      </trkpt>
      <trkpt lat="44.83933" lon="6.47522">
        <ele>1196</ele>
        <time>2021-07-07T11:41:30Z</time>
      </trkpt>
      <trkpt lat="44.83902" lon="6.4753">
        <ele>1196</ele>
        <time>2021-07-07T11:41:15Z</time>
      </trkpt>
      <trkpt lat="44.83896" lon="6.47475">
        <ele>1201</ele>
        <time>2021-07-07T11:40:55Z</time>
      </trkpt>
      <trkpt lat="44.83896" lon="6.47394">
        <ele>1209</ele>
        <time>2021-07-07T11:40:26Z</time>
      </trkpt>
      <trkpt lat="44.83888" lon="6.47331">
        <ele>1220</ele>
        <time>2021-07-07T11:40:03Z</time>
      </trkpt>
      <trkpt lat="44.83897" lon="6.47314">
        <ele>1216</ele>
        <time>2021-07-07T11:39:56Z</time>
      </trkpt>
      <trkpt lat="44.83905" lon="6.47216">
        <ele>1214</ele>
        <time>2021-07-07T11:39:21Z</time>
      </trkpt>
      <trkpt lat="44.83898" lon="6.47175">
        <ele>1218</ele>
        <time>2021-07-07T11:39:06Z</time>
      </trkpt>
      <trkpt lat="44.83913" lon="6.47109">
        <ele>1206</ele>
        <time>2021-07-07T11:38:41Z</time>
      </trkpt>
      <trkpt lat="44.83897" lon="6.47047">
        <ele>1213</ele>
        <time>2021-07-07T11:38:18Z</time>
      </trkpt>
      <trkpt lat="44.83902" lon="6.46989">
        <ele>1209</ele>
        <time>2021-07-07T11:37:57Z</time>
      </trkpt>
      <trkpt lat="44.839" lon="6.46953">
        <ele>1211</ele>
        <time>2021-07-07T11:37:44Z</time>
      </trkpt>
      <trkpt lat="44.83883" lon="6.46915">
        <ele>1219</ele>
        <time>2021-07-07T11:37:28Z</time>
      </trkpt>
      <trkpt lat="44.83883" lon="6.46887">
        <ele>1218</ele>
        <time>2021-07-07T11:37:18Z</time>
      </trkpt>
      <trkpt lat="44.8384" lon="6.46695">
        <ele>1217</ele>
        <time>2021-07-07T11:36:07Z</time>
      </trkpt>
      <trkpt lat="44.83822" lon="6.46676">
        <ele>1220</ele>
        <time>2021-07-07T11:35:56Z</time>
      </trkpt>
      <trkpt lat="44.83795" lon="6.46622">
        <ele>1229</ele>
        <time>2021-07-07T11:35:32Z</time>
      </trkpt>
      <trkpt lat="44.83779" lon="6.46603">
        <ele>1234</ele>
        <time>2021-07-07T11:35:22Z</time>
      </trkpt>
      <trkpt lat="44.83775" lon="6.46585">
        <ele>1235</ele>
        <time>2021-07-07T11:35:15Z</time>
      </trkpt>
      <trkpt lat="44.83776" lon="6.46556">
        <ele>1237</ele>
        <time>2021-07-07T11:35:05Z</time>
      </trkpt>
      <trkpt lat="44.83793" lon="6.46512">
        <ele>1233</ele>
        <time>2021-07-07T11:34:47Z</time>
      </trkpt>
      <trkpt lat="44.83798" lon="6.46477">
        <ele>1237</ele>
        <time>2021-07-07T11:34:34Z</time>
      </trkpt>
      <trkpt lat="44.83855" lon="6.4636">
        <ele>1238</ele>
        <time>2021-07-07T11:33:44Z</time>
      </trkpt>
      <trkpt lat="44.83854" lon="6.46318">
        <ele>1244</ele>
        <time>2021-07-07T11:33:29Z</time>
      </trkpt>
      <trkpt lat="44.83871" lon="6.46263">
        <ele>1238</ele>
        <time>2021-07-07T11:33:08Z</time>
      </trkpt>
      <trkpt lat="44.83897" lon="6.46115">
        <ele>1230</ele>
        <time>2021-07-07T11:32:14Z</time>
      </trkpt>
      <trkpt lat="44.83893" lon="6.46073">
        <ele>1233</ele>
        <time>2021-07-07T11:31:59Z</time>
      </trkpt>
      <trkpt lat="44.83882" lon="6.46038">
        <ele>1240</ele>
        <time>2021-07-07T11:31:45Z</time>
      </trkpt>
      <trkpt lat="44.8389" lon="6.45997">
        <ele>1236</ele>
        <time>2021-07-07T11:31:30Z</time>
      </trkpt>
      <trkpt lat="44.83888" lon="6.45948">
        <ele>1240</ele>
        <time>2021-07-07T11:31:13Z</time>
      </trkpt>
      <trkpt lat="44.83913" lon="6.45873">
        <ele>1232</ele>
        <time>2021-07-07T11:30:43Z</time>
      </trkpt>
      <trkpt lat="44.8392" lon="6.45804">
        <ele>1235</ele>
        <time>2021-07-07T11:30:18Z</time>
      </trkpt>
      <trkpt lat="44.8394" lon="6.45801">
        <ele>1236</ele>
        <time>2021-07-07T11:30:08Z</time>
      </trkpt>
      <trkpt lat="44.83937" lon="6.45697">
        <ele>1240</ele>
        <time>2021-07-07T11:29:31Z</time>
      </trkpt>
      <trkpt lat="44.83896" lon="6.45552">
        <ele>1246</ele>
        <time>2021-07-07T11:28:36Z</time>
      </trkpt>
      <trkpt lat="44.83912" lon="6.45523">
        <ele>1243</ele>
        <time>2021-07-07T11:28:23Z</time>
      </trkpt>
      <trkpt lat="44.83924" lon="6.45512">
        <ele>1244</ele>
        <time>2021-07-07T11:28:16Z</time>
      </trkpt>
      <trkpt lat="44.83939" lon="6.45524">
        <ele>1245</ele>
        <time>2021-07-07T11:28:07Z</time>
      </trkpt>
      <trkpt lat="44.83955" lon="6.45547">
        <ele>1247</ele>
        <time>2021-07-07T11:27:56Z</time>
      </trkpt>
      <trkpt lat="44.8396" lon="6.45559">
        <ele>1247</ele>
        <time>2021-07-07T11:27:51Z</time>
      </trkpt>
      <trkpt lat="44.83962" lon="6.4561">
        <ele>1246</ele>
        <time>2021-07-07T11:27:33Z</time>
      </trkpt>
      <trkpt lat="44.83975" lon="6.45572">
        <ele>1250</ele>
        <time>2021-07-07T11:27:18Z</time>
      </trkpt>
      <trkpt lat="44.84" lon="6.45428">
        <ele>1252</ele>
        <time>2021-07-07T11:26:25Z</time>
      </trkpt>
      <trkpt lat="44.83998" lon="6.45389">
        <ele>1252</ele>
        <time>2021-07-07T11:26:11Z</time>
      </trkpt>
      <trkpt lat="44.83981" lon="6.45333">
        <ele>1253</ele>
        <time>2021-07-07T11:25:50Z</time>
      </trkpt>
      <trkpt lat="44.83971" lon="6.45232">
        <ele>1265</ele>
        <time>2021-07-07T11:25:13Z</time>
      </trkpt>
      <trkpt lat="44.83969" lon="6.45149">
        <ele>1269</ele>
        <time>2021-07-07T11:24:44Z</time>
      </trkpt>
      <trkpt lat="44.83973" lon="6.45104">
        <ele>1271</ele>
        <time>2021-07-07T11:24:28Z</time>
      </trkpt>
      <trkpt lat="44.8397" lon="6.45086">
        <ele>1271</ele>
        <time>2021-07-07T11:24:21Z</time>
      </trkpt>
      <trkpt lat="44.8388" lon="6.4486">
        <ele>1274</ele>
        <time>2021-07-07T11:22:49Z</time>
      </trkpt>
      <trkpt lat="44.83872" lon="6.4483">
        <ele>1275</ele>
        <time>2021-07-07T11:22:38Z</time>
      </trkpt>
      <trkpt lat="44.83869" lon="6.44807">
        <ele>1275</ele>
        <time>2021-07-07T11:22:30Z</time>
      </trkpt>
      <trkpt lat="44.83876" lon="6.44711">
        <ele>1282</ele>
        <time>2021-07-07T11:21:55Z</time>
      </trkpt>
      <trkpt lat="44.83876" lon="6.44556">
        <ele>1293</ele>
        <time>2021-07-07T11:21:00Z</time>
      </trkpt>
      <trkpt lat="44.83858" lon="6.44482">
        <ele>1298</ele>
        <time>2021-07-07T11:20:33Z</time>
      </trkpt>
      <trkpt lat="44.83845" lon="6.44449">
        <ele>1300</ele>
        <time>2021-07-07T11:20:19Z</time>
      </trkpt>
      <trkpt lat="44.83803" lon="6.44378">
        <ele>1303</ele>
        <time>2021-07-07T11:19:46Z</time>
      </trkpt>
      <trkpt lat="44.83793" lon="6.44347">
        <ele>1306</ele>
        <time>2021-07-07T11:19:34Z</time>
      </trkpt>
      <trkpt lat="44.83783" lon="6.44309">
        <ele>1309</ele>
        <time>2021-07-07T11:19:20Z</time>
      </trkpt>
      <trkpt lat="44.83765" lon="6.44171">
        <ele>1326</ele>
        <time>2021-07-07T11:18:30Z</time>
      </trkpt>
      <trkpt lat="44.83723" lon="6.44042">
        <ele>1342</ele>
        <time>2021-07-07T11:17:40Z</time>
      </trkpt>
      <trkpt lat="44.83698" lon="6.44012">
        <ele>1341</ele>
        <time>2021-07-07T11:17:23Z</time>
      </trkpt>
      <trkpt lat="44.83668" lon="6.43985">
        <ele>1337</ele>
        <time>2021-07-07T11:17:06Z</time>
      </trkpt>
      <trkpt lat="44.8364" lon="6.43952">
        <ele>1343</ele>
        <time>2021-07-07T11:16:47Z</time>
      </trkpt>
      <trkpt lat="44.8361" lon="6.43894">
        <ele>1350</ele>
        <time>2021-07-07T11:16:22Z</time>
      </trkpt>
      <trkpt lat="44.83599" lon="6.43869">
        <ele>1350</ele>
        <time>2021-07-07T11:16:11Z</time>
      </trkpt>
      <trkpt lat="44.83595" lon="6.4385">
        <ele>1352</ele>
        <time>2021-07-07T11:16:04Z</time>
      </trkpt>
      <trkpt lat="44.83596" lon="6.43831">
        <ele>1354</ele>
        <time>2021-07-07T11:15:58Z</time>
      </trkpt>
      <trkpt lat="44.8361" lon="6.43788">
        <ele>1360</ele>
        <time>2021-07-07T11:15:41Z</time>
      </trkpt>
      <trkpt lat="44.83612" lon="6.43698">
        <ele>1369</ele>
        <time>2021-07-07T11:15:09Z</time>
      </trkpt>
      <trkpt lat="44.83616" lon="6.43695">
        <ele>1372</ele>
        <time>2021-07-07T11:15:07Z</time>
      </trkpt>
      <trkpt lat="44.8362" lon="6.43697">
        <ele>1373</ele>
        <time>2021-07-07T11:15:04Z</time>
      </trkpt>
      <trkpt lat="44.83634" lon="6.43746">
        <ele>1371</ele>
        <time>2021-07-07T11:14:46Z</time>
      </trkpt>
      <trkpt lat="44.83639" lon="6.43742">
        <ele>1373</ele>
        <time>2021-07-07T11:14:43Z</time>
      </trkpt>
      <trkpt lat="44.83641" lon="6.4372">
        <ele>1378</ele>
        <time>2021-07-07T11:14:35Z</time>
      </trkpt>
      <trkpt lat="44.83631" lon="6.4368">
        <ele>1381</ele>
        <time>2021-07-07T11:14:20Z</time>
      </trkpt>
      <trkpt lat="44.8361" lon="6.43655">
        <ele>1376</ele>
        <time>2021-07-07T11:14:06Z</time>
      </trkpt>
      <trkpt lat="44.83601" lon="6.43615">
        <ele>1382</ele>
        <time>2021-07-07T11:13:51Z</time>
      </trkpt>
      <trkpt lat="44.83595" lon="6.43572">
        <ele>1390</ele>
        <time>2021-07-07T11:13:36Z</time>
      </trkpt>
      <trkpt lat="44.83582" lon="6.43515">
        <ele>1395</ele>
        <time>2021-07-07T11:13:14Z</time>
      </trkpt>
      <trkpt lat="44.83591" lon="6.43493">
        <ele>1405</ele>
        <time>2021-07-07T11:13:05Z</time>
      </trkpt>
      <trkpt lat="44.83592" lon="6.43478">
        <ele>1408</ele>
        <time>2021-07-07T11:13:00Z</time>
      </trkpt>
      <trkpt lat="44.8359" lon="6.43469">
        <ele>1409</ele>
        <time>2021-07-07T11:12:57Z</time>
      </trkpt>
      <trkpt lat="44.83585" lon="6.4346">
        <ele>1408</ele>
        <time>2021-07-07T11:12:53Z</time>
      </trkpt>
      <trkpt lat="44.83569" lon="6.4345">
        <ele>1403</ele>
        <time>2021-07-07T11:12:44Z</time>
      </trkpt>
      <trkpt lat="44.83566" lon="6.43443">
        <ele>1403</ele>
        <time>2021-07-07T11:12:41Z</time>
      </trkpt>
      <trkpt lat="44.83562" lon="6.43401">
        <ele>1410</ele>
        <time>2021-07-07T11:12:26Z</time>
      </trkpt>
      <trkpt lat="44.83558" lon="6.43386">
        <ele>1411</ele>
        <time>2021-07-07T11:12:20Z</time>
      </trkpt>
      <trkpt lat="44.83554" lon="6.43375">
        <ele>1412</ele>
        <time>2021-07-07T11:12:16Z</time>
      </trkpt>
      <trkpt lat="44.83545" lon="6.43375">
        <ele>1408</ele>
        <time>2021-07-07T11:12:11Z</time>
      </trkpt>
      <trkpt lat="44.83542" lon="6.43366">
        <ele>1408</ele>
        <time>2021-07-07T11:12:08Z</time>
      </trkpt>
      <trkpt lat="44.83547" lon="6.43352">
        <ele>1413</ele>
        <time>2021-07-07T11:12:02Z</time>
      </trkpt>
      <trkpt lat="44.83558" lon="6.43342">
        <ele>1420</ele>
        <time>2021-07-07T11:11:56Z</time>
      </trkpt>
      <trkpt lat="44.83572" lon="6.43345">
        <ele>1425</ele>
        <time>2021-07-07T11:11:49Z</time>
      </trkpt>
      <trkpt lat="44.83584" lon="6.43357">
        <ele>1428</ele>
        <time>2021-07-07T11:11:41Z</time>
      </trkpt>
      <trkpt lat="44.83588" lon="6.43356">
        <ele>1430</ele>
        <time>2021-07-07T11:11:39Z</time>
      </trkpt>
      <trkpt lat="44.83589" lon="6.43349">
        <ele>1432</ele>
        <time>2021-07-07T11:11:37Z</time>
      </trkpt>
      <trkpt lat="44.83586" lon="6.43339">
        <ele>1432</ele>
        <time>2021-07-07T11:11:33Z</time>
      </trkpt>
      <trkpt lat="44.83576" lon="6.43324">
        <ele>1430</ele>
        <time>2021-07-07T11:11:26Z</time>
      </trkpt>
      <trkpt lat="44.83572" lon="6.43301">
        <ele>1432</ele>
        <time>2021-07-07T11:11:17Z</time>
      </trkpt>
      <trkpt lat="44.83569" lon="6.43295">
        <ele>1432</ele>
        <time>2021-07-07T11:11:15Z</time>
      </trkpt>
      <trkpt lat="44.83545" lon="6.43283">
        <ele>1427</ele>
        <time>2021-07-07T11:11:02Z</time>
      </trkpt>
      <trkpt lat="44.83541" lon="6.43274">
        <ele>1427</ele>
        <time>2021-07-07T11:10:58Z</time>
      </trkpt>
      <trkpt lat="44.83559" lon="6.43239">
        <ele>1438</ele>
        <time>2021-07-07T11:10:43Z</time>
      </trkpt>
      <trkpt lat="44.8356" lon="6.43206">
        <ele>1442</ele>
        <time>2021-07-07T11:10:31Z</time>
      </trkpt>
      <trkpt lat="44.83569" lon="6.43157">
        <ele>1449</ele>
        <time>2021-07-07T11:10:13Z</time>
      </trkpt>
      <trkpt lat="44.83571" lon="6.43126">
        <ele>1450</ele>
        <time>2021-07-07T11:10:02Z</time>
      </trkpt>
      <trkpt lat="44.83592" lon="6.43055">
        <ele>1462</ele>
        <time>2021-07-07T11:09:35Z</time>
      </trkpt>
      <trkpt lat="44.83593" lon="6.43045">
        <ele>1464</ele>
        <time>2021-07-07T11:09:31Z</time>
      </trkpt>
      <trkpt lat="44.83591" lon="6.43033">
        <ele>1465</ele>
        <time>2021-07-07T11:09:27Z</time>
      </trkpt>
      <trkpt lat="44.83575" lon="6.42999">
        <ele>1464</ele>
        <time>2021-07-07T11:09:12Z</time>
      </trkpt>
      <trkpt lat="44.83561" lon="6.4298">
        <ele>1466</ele>
        <time>2021-07-07T11:09:03Z</time>
      </trkpt>
      <trkpt lat="44.83539" lon="6.42958">
        <ele>1465</ele>
        <time>2021-07-07T11:08:49Z</time>
      </trkpt>
      <trkpt lat="44.83508" lon="6.42866">
        <ele>1470</ele>
        <time>2021-07-07T11:08:13Z</time>
      </trkpt>
      <trkpt lat="44.83497" lon="6.42808">
        <ele>1473</ele>
        <time>2021-07-07T11:07:52Z</time>
      </trkpt>
      <trkpt lat="44.83499" lon="6.42771">
        <ele>1474</ele>
        <time>2021-07-07T11:07:38Z</time>
      </trkpt>
      <trkpt lat="44.83505" lon="6.42743">
        <ele>1477</ele>
        <time>2021-07-07T11:07:28Z</time>
      </trkpt>
      <trkpt lat="44.83522" lon="6.42704">
        <ele>1485</ele>
        <time>2021-07-07T11:07:12Z</time>
      </trkpt>
      <trkpt lat="44.83529" lon="6.42673">
        <ele>1488</ele>
        <time>2021-07-07T11:07:00Z</time>
      </trkpt>
      <trkpt lat="44.83526" lon="6.42637">
        <ele>1490</ele>
        <time>2021-07-07T11:06:47Z</time>
      </trkpt>
      <trkpt lat="44.83512" lon="6.42577">
        <ele>1494</ele>
        <time>2021-07-07T11:06:25Z</time>
      </trkpt>
      <trkpt lat="44.83498" lon="6.42542">
        <ele>1495</ele>
        <time>2021-07-07T11:06:11Z</time>
      </trkpt>
      <trkpt lat="44.83476" lon="6.42535">
        <ele>1492</ele>
        <time>2021-07-07T11:05:59Z</time>
      </trkpt>
      <trkpt lat="44.83466" lon="6.42521">
        <ele>1492</ele>
        <time>2021-07-07T11:05:52Z</time>
      </trkpt>
      <trkpt lat="44.83456" lon="6.42518">
        <ele>1491</ele>
        <time>2021-07-07T11:05:47Z</time>
      </trkpt>
      <trkpt lat="44.83449" lon="6.42508">
        <ele>1491</ele>
        <time>2021-07-07T11:05:42Z</time>
      </trkpt>
      <trkpt lat="44.83437" lon="6.42474">
        <ele>1494</ele>
        <time>2021-07-07T11:05:29Z</time>
      </trkpt>
      <trkpt lat="44.8342" lon="6.42445">
        <ele>1495</ele>
        <time>2021-07-07T11:05:15Z</time>
      </trkpt>
      <trkpt lat="44.83412" lon="6.42424">
        <ele>1497</ele>
        <time>2021-07-07T11:05:07Z</time>
      </trkpt>
      <trkpt lat="44.83404" lon="6.42394">
        <ele>1500</ele>
        <time>2021-07-07T11:04:56Z</time>
      </trkpt>
      <trkpt lat="44.83393" lon="6.42367">
        <ele>1501</ele>
        <time>2021-07-07T11:04:45Z</time>
      </trkpt>
      <trkpt lat="44.83394" lon="6.42332">
        <ele>1505</ele>
        <time>2021-07-07T11:04:32Z</time>
      </trkpt>
      <trkpt lat="44.83384" lon="6.42308">
        <ele>1504</ele>
        <time>2021-07-07T11:04:22Z</time>
      </trkpt>
      <trkpt lat="44.8338" lon="6.42289">
        <ele>1505</ele>
        <time>2021-07-07T11:04:15Z</time>
      </trkpt>
      <trkpt lat="44.83377" lon="6.42161">
        <ele>1521</ele>
        <time>2021-07-07T11:03:30Z</time>
      </trkpt>
      <trkpt lat="44.83363" lon="6.42129">
        <ele>1523</ele>
        <time>2021-07-07T11:03:16Z</time>
      </trkpt>
      <trkpt lat="44.83334" lon="6.42095">
        <ele>1518</ele>
        <time>2021-07-07T11:02:58Z</time>
      </trkpt>
      <trkpt lat="44.83325" lon="6.42069">
        <ele>1521</ele>
        <time>2021-07-07T11:02:47Z</time>
      </trkpt>
      <trkpt lat="44.83313" lon="6.42057">
        <ele>1521</ele>
        <time>2021-07-07T11:02:40Z</time>
      </trkpt>
      <trkpt lat="44.83307" lon="6.42013">
        <ele>1525</ele>
        <time>2021-07-07T11:02:24Z</time>
      </trkpt>
      <trkpt lat="44.83308" lon="6.41974">
        <ele>1531</ele>
        <time>2021-07-07T11:02:10Z</time>
      </trkpt>
      <trkpt lat="44.83313" lon="6.41924">
        <ele>1541</ele>
        <time>2021-07-07T11:01:52Z</time>
      </trkpt>
      <trkpt lat="44.83303" lon="6.41883">
        <ele>1542</ele>
        <time>2021-07-07T11:01:37Z</time>
      </trkpt>
      <trkpt lat="44.8329" lon="6.41862">
        <ele>1540</ele>
        <time>2021-07-07T11:01:27Z</time>
      </trkpt>
      <trkpt lat="44.83275" lon="6.41847">
        <ele>1536</ele>
        <time>2021-07-07T11:01:18Z</time>
      </trkpt>
      <trkpt lat="44.83257" lon="6.41819">
        <ele>1533</ele>
        <time>2021-07-07T11:01:04Z</time>
      </trkpt>
      <trkpt lat="44.83245" lon="6.41786">
        <ele>1536</ele>
        <time>2021-07-07T11:00:51Z</time>
      </trkpt>
      <trkpt lat="44.8325" lon="6.41744">
        <ele>1541</ele>
        <time>2021-07-07T11:00:36Z</time>
      </trkpt>
      <trkpt lat="44.8325" lon="6.41688">
        <ele>1545</ele>
        <time>2021-07-07T11:00:16Z</time>
      </trkpt>
      <trkpt lat="44.83267" lon="6.4158">
        <ele>1568</ele>
        <time>2021-07-07T10:59:37Z</time>
      </trkpt>
      <trkpt lat="44.83271" lon="6.41532">
        <ele>1575</ele>
        <time>2021-07-07T10:59:20Z</time>
      </trkpt>
      <trkpt lat="44.83269" lon="6.41487">
        <ele>1578</ele>
        <time>2021-07-07T10:59:04Z</time>
      </trkpt>
      <trkpt lat="44.8326" lon="6.41448">
        <ele>1575</ele>
        <time>2021-07-07T10:58:49Z</time>
      </trkpt>
      <trkpt lat="44.83245" lon="6.41402">
        <ele>1573</ele>
        <time>2021-07-07T10:58:31Z</time>
      </trkpt>
      <trkpt lat="44.83245" lon="6.41383">
        <ele>1574</ele>
        <time>2021-07-07T10:58:25Z</time>
      </trkpt>
      <trkpt lat="44.83256" lon="6.41344">
        <ele>1577</ele>
        <time>2021-07-07T10:58:10Z</time>
      </trkpt>
      <trkpt lat="44.83268" lon="6.41284">
        <ele>1585</ele>
        <time>2021-07-07T10:57:48Z</time>
      </trkpt>
      <trkpt lat="44.83268" lon="6.41264">
        <ele>1587</ele>
        <time>2021-07-07T10:57:40Z</time>
      </trkpt>
      <trkpt lat="44.83264" lon="6.41241">
        <ele>1587</ele>
        <time>2021-07-07T10:57:32Z</time>
      </trkpt>
      <trkpt lat="44.83262" lon="6.41171">
        <ele>1594</ele>
        <time>2021-07-07T10:57:07Z</time>
      </trkpt>
      <trkpt lat="44.83256" lon="6.41136">
        <ele>1597</ele>
        <time>2021-07-07T10:56:54Z</time>
      </trkpt>
      <trkpt lat="44.8324" lon="6.41093">
        <ele>1600</ele>
        <time>2021-07-07T10:56:37Z</time>
      </trkpt>
      <trkpt lat="44.83222" lon="6.41001">
        <ele>1606</ele>
        <time>2021-07-07T10:56:03Z</time>
      </trkpt>
      <trkpt lat="44.83221" lon="6.40939">
        <ele>1608</ele>
        <time>2021-07-07T10:55:41Z</time>
      </trkpt>
      <trkpt lat="44.83215" lon="6.40916">
        <ele>1607</ele>
        <time>2021-07-07T10:55:33Z</time>
      </trkpt>
      <trkpt lat="44.83192" lon="6.40868">
        <ele>1606</ele>
        <time>2021-07-07T10:55:12Z</time>
      </trkpt>
      <trkpt lat="44.83165" lon="6.40795">
        <ele>1607</ele>
        <time>2021-07-07T10:54:43Z</time>
      </trkpt>
      <trkpt lat="44.83105" lon="6.40674">
        <ele>1611</ele>
        <time>2021-07-07T10:53:50Z</time>
      </trkpt>
      <trkpt lat="44.83076" lon="6.40623">
        <ele>1610</ele>
        <time>2021-07-07T10:53:27Z</time>
      </trkpt>
      <trkpt lat="44.83065" lon="6.40587">
        <ele>1610</ele>
        <time>2021-07-07T10:53:13Z</time>
      </trkpt>
      <trkpt lat="44.83057" lon="6.40489">
        <ele>1613</ele>
        <time>2021-07-07T10:52:38Z</time>
      </trkpt>
      <trkpt lat="44.83067" lon="6.40331">
        <ele>1617</ele>
        <time>2021-07-07T10:51:42Z</time>
      </trkpt>
      <trkpt lat="44.83119" lon="6.40178">
        <ele>1623</ele>
        <time>2021-07-07T10:50:42Z</time>
      </trkpt>
      <trkpt lat="44.83118" lon="6.40174">
        <ele>1622</ele>
        <time>2021-07-07T10:50:40Z</time>
      </trkpt>
      <trkpt lat="44.83105" lon="6.40168">
        <ele>1618</ele>
        <time>2021-07-07T10:50:33Z</time>
      </trkpt>
      <trkpt lat="44.83108" lon="6.40145">
        <ele>1618</ele>
        <time>2021-07-07T10:50:25Z</time>
      </trkpt>
      <trkpt lat="44.83083" lon="6.4015">
        <ele>1612</ele>
        <time>2021-07-07T10:50:12Z</time>
      </trkpt>
      <trkpt lat="44.83077" lon="6.40143">
        <ele>1611</ele>
        <time>2021-07-07T10:50:09Z</time>
      </trkpt>
      <trkpt lat="44.83038" lon="6.40125">
        <ele>1609</ele>
        <time>2021-07-07T10:49:48Z</time>
      </trkpt>
      <trkpt lat="44.83025" lon="6.40108">
        <ele>1608</ele>
        <time>2021-07-07T10:49:39Z</time>
      </trkpt>
      <trkpt lat="44.83022" lon="6.40082">
        <ele>1608</ele>
        <time>2021-07-07T10:49:30Z</time>
      </trkpt>
      <trkpt lat="44.82975" lon="6.39897">
        <ele>1617</ele>
        <time>2021-07-07T10:48:20Z</time>
      </trkpt>
      <trkpt lat="44.82968" lon="6.39854">
        <ele>1619</ele>
        <time>2021-07-07T10:48:04Z</time>
      </trkpt>
      <trkpt lat="44.8293" lon="6.39791">
        <ele>1619</ele>
        <time>2021-07-07T10:47:35Z</time>
      </trkpt>
      <trkpt lat="44.82917" lon="6.39749">
        <ele>1620</ele>
        <time>2021-07-07T10:47:19Z</time>
      </trkpt>
      <trkpt lat="44.82882" lon="6.39696">
        <ele>1627</ele>
        <time>2021-07-07T10:46:53Z</time>
      </trkpt>
      <trkpt lat="44.82867" lon="6.39653">
        <ele>1633</ele>
        <time>2021-07-07T10:46:36Z</time>
      </trkpt>
      <trkpt lat="44.82843" lon="6.3964">
        <ele>1640</ele>
        <time>2021-07-07T10:46:23Z</time>
      </trkpt>
      <trkpt lat="44.82774" lon="6.39626">
        <ele>1649</ele>
        <time>2021-07-07T10:45:48Z</time>
      </trkpt>
      <trkpt lat="44.82698" lon="6.39626">
        <ele>1658</ele>
        <time>2021-07-07T10:45:10Z</time>
      </trkpt>
      <trkpt lat="44.82654" lon="6.39611">
        <ele>1668</ele>
        <time>2021-07-07T10:44:48Z</time>
      </trkpt>
      <trkpt lat="44.8261" lon="6.39619">
        <ele>1674</ele>
        <time>2021-07-07T10:44:25Z</time>
      </trkpt>
      <trkpt lat="44.82553" lon="6.39615">
        <ele>1687</ele>
        <time>2021-07-07T10:43:57Z</time>
      </trkpt>
      <trkpt lat="44.82492" lon="6.39593">
        <ele>1704</ele>
        <time>2021-07-07T10:43:25Z</time>
      </trkpt>
      <trkpt lat="44.82421" lon="6.39589">
        <ele>1712</ele>
        <time>2021-07-07T10:42:50Z</time>
      </trkpt>
      <trkpt lat="44.82347" lon="6.39604">
        <ele>1725</ele>
        <time>2021-07-07T10:42:12Z</time>
      </trkpt>
      <trkpt lat="44.8229" lon="6.39627">
        <ele>1731</ele>
        <time>2021-07-07T10:41:43Z</time>
      </trkpt>
      <trkpt lat="44.82248" lon="6.39622">
        <ele>1734</ele>
        <time>2021-07-07T10:41:22Z</time>
      </trkpt>
      <trkpt lat="44.82206" lon="6.3961">
        <ele>1739</ele>
        <time>2021-07-07T10:41:00Z</time>
      </trkpt>
      <trkpt lat="44.82153" lon="6.39587">
        <ele>1744</ele>
        <time>2021-07-07T10:40:32Z</time>
      </trkpt>
      <trkpt lat="44.82082" lon="6.39595">
        <ele>1757</ele>
        <time>2021-07-07T10:39:57Z</time>
      </trkpt>
      <trkpt lat="44.82041" lon="6.39573">
        <ele>1766</ele>
        <time>2021-07-07T10:39:35Z</time>
      </trkpt>
      <trkpt lat="44.81978" lon="6.39571">
        <ele>1774</ele>
        <time>2021-07-07T10:39:03Z</time>
      </trkpt>
      <trkpt lat="44.81921" lon="6.39553">
        <ele>1779</ele>
        <time>2021-07-07T10:38:34Z</time>
      </trkpt>
      <trkpt lat="44.81856" lon="6.39509">
        <ele>1784</ele>
        <time>2021-07-07T10:37:58Z</time>
      </trkpt>
      <trkpt lat="44.81793" lon="6.3946">
        <ele>1791</ele>
        <time>2021-07-07T10:37:22Z</time>
      </trkpt>
      <trkpt lat="44.81746" lon="6.3942">
        <ele>1789</ele>
        <time>2021-07-07T10:36:55Z</time>
      </trkpt>
      <trkpt lat="44.81694" lon="6.39371">
        <ele>1802</ele>
        <time>2021-07-07T10:36:23Z</time>
      </trkpt>
      <trkpt lat="44.81676" lon="6.39311">
        <ele>1810</ele>
        <time>2021-07-07T10:36:00Z</time>
      </trkpt>
      <trkpt lat="44.81628" lon="6.39238">
        <ele>1814</ele>
        <time>2021-07-07T10:35:25Z</time>
      </trkpt>
      <trkpt lat="44.81586" lon="6.39207">
        <ele>1812</ele>
        <time>2021-07-07T10:35:01Z</time>
      </trkpt>
      <trkpt lat="44.81551" lon="6.39191">
        <ele>1812</ele>
        <time>2021-07-07T10:34:43Z</time>
      </trkpt>
      <trkpt lat="44.815" lon="6.3911">
        <ele>1812</ele>
        <time>2021-07-07T10:34:04Z</time>
      </trkpt>
      <trkpt lat="44.81446" lon="6.39041">
        <ele>1821</ele>
        <time>2021-07-07T10:33:28Z</time>
      </trkpt>
      <trkpt lat="44.81401" lon="6.38992">
        <ele>1823</ele>
        <time>2021-07-07T10:32:59Z</time>
      </trkpt>
      <trkpt lat="44.81373" lon="6.38941">
        <ele>1829</ele>
        <time>2021-07-07T10:32:36Z</time>
      </trkpt>
      <trkpt lat="44.81358" lon="6.38889">
        <ele>1834</ele>
        <time>2021-07-07T10:32:16Z</time>
      </trkpt>
      <trkpt lat="44.81348" lon="6.38839">
        <ele>1836</ele>
        <time>2021-07-07T10:31:58Z</time>
      </trkpt>
      <trkpt lat="44.81326" lon="6.38778">
        <ele>1836</ele>
        <time>2021-07-07T10:31:34Z</time>
      </trkpt>
      <trkpt lat="44.8131" lon="6.38738">
        <ele>1838</ele>
        <time>2021-07-07T10:31:17Z</time>
      </trkpt>
      <trkpt lat="44.81281" lon="6.38685">
        <ele>1841</ele>
        <time>2021-07-07T10:30:54Z</time>
      </trkpt>
      <trkpt lat="44.81242" lon="6.38633">
        <ele>1838</ele>
        <time>2021-07-07T10:30:27Z</time>
      </trkpt>
      <trkpt lat="44.81208" lon="6.38572">
        <ele>1839</ele>
        <time>2021-07-07T10:29:59Z</time>
      </trkpt>
      <trkpt lat="44.81163" lon="6.38521">
        <ele>1839</ele>
        <time>2021-07-07T10:29:30Z</time>
      </trkpt>
      <trkpt lat="44.81127" lon="6.38494">
        <ele>1840</ele>
        <time>2021-07-07T10:29:10Z</time>
      </trkpt>
      <trkpt lat="44.81104" lon="6.38468">
        <ele>1839</ele>
        <time>2021-07-07T10:28:55Z</time>
      </trkpt>
      <trkpt lat="44.81101" lon="6.38332">
        <ele>1847</ele>
        <time>2021-07-07T10:28:07Z</time>
      </trkpt>
      <trkpt lat="44.81065" lon="6.38277">
        <ele>1850</ele>
        <time>2021-07-07T10:27:40Z</time>
      </trkpt>
      <trkpt lat="44.81036" lon="6.38239">
        <ele>1854</ele>
        <time>2021-07-07T10:27:20Z</time>
      </trkpt>
      <trkpt lat="44.80968" lon="6.38193">
        <ele>1857</ele>
        <time>2021-07-07T10:26:43Z</time>
      </trkpt>
      <trkpt lat="44.80951" lon="6.38144">
        <ele>1858</ele>
        <time>2021-07-07T10:26:23Z</time>
      </trkpt>
      <trkpt lat="44.80922" lon="6.38032">
        <ele>1871</ele>
        <time>2021-07-07T10:25:41Z</time>
      </trkpt>
      <trkpt lat="44.80907" lon="6.38015">
        <ele>1873</ele>
        <time>2021-07-07T10:25:31Z</time>
      </trkpt>
      <trkpt lat="44.80879" lon="6.37998">
        <ele>1873</ele>
        <time>2021-07-07T10:25:16Z</time>
      </trkpt>
      <trkpt lat="44.80888" lon="6.37993">
        <ele>1875</ele>
        <time>2021-07-07T10:25:11Z</time>
      </trkpt>
      <trkpt lat="44.80888" lon="6.37988">
        <ele>1877</ele>
        <time>2021-07-07T10:25:10Z</time>
      </trkpt>
      <trkpt lat="44.80874" lon="6.37984">
        <ele>1876</ele>
        <time>2021-07-07T10:25:02Z</time>
      </trkpt>
      <trkpt lat="44.80848" lon="6.37953">
        <ele>1878</ele>
        <time>2021-07-07T10:24:45Z</time>
      </trkpt>
      <trkpt lat="44.80837" lon="6.37934">
        <ele>1878</ele>
        <time>2021-07-07T10:24:37Z</time>
      </trkpt>
      <trkpt lat="44.8083" lon="6.37933">
        <ele>1878</ele>
        <time>2021-07-07T10:24:33Z</time>
      </trkpt>
      <trkpt lat="44.80827" lon="6.37929">
        <ele>1879</ele>
        <time>2021-07-07T10:24:31Z</time>
      </trkpt>
      <trkpt lat="44.80828" lon="6.37921">
        <ele>1880</ele>
        <time>2021-07-07T10:24:28Z</time>
      </trkpt>
      <trkpt lat="44.80833" lon="6.37912">
        <ele>1882</ele>
        <time>2021-07-07T10:24:24Z</time>
      </trkpt>
      <trkpt lat="44.80832" lon="6.37908">
        <ele>1883</ele>
        <time>2021-07-07T10:24:23Z</time>
      </trkpt>
      <trkpt lat="44.80824" lon="6.37907">
        <ele>1885</ele>
        <time>2021-07-07T10:24:19Z</time>
      </trkpt>
      <trkpt lat="44.8079" lon="6.3787">
        <ele>1897</ele>
        <time>2021-07-07T10:23:57Z</time>
      </trkpt>
      <trkpt lat="44.80806" lon="6.37866">
        <ele>1898</ele>
        <time>2021-07-07T10:23:49Z</time>
      </trkpt>
      <trkpt lat="44.80809" lon="6.37861">
        <ele>1900</ele>
        <time>2021-07-07T10:23:47Z</time>
      </trkpt>
      <trkpt lat="44.8079" lon="6.37833">
        <ele>1905</ele>
        <time>2021-07-07T10:23:33Z</time>
      </trkpt>
      <trkpt lat="44.80785" lon="6.37818">
        <ele>1909</ele>
        <time>2021-07-07T10:23:27Z</time>
      </trkpt>
      <trkpt lat="44.80777" lon="6.37805">
        <ele>1911</ele>
        <time>2021-07-07T10:23:21Z</time>
      </trkpt>
      <trkpt lat="44.80772" lon="6.37765">
        <ele>1920</ele>
        <time>2021-07-07T10:23:06Z</time>
      </trkpt>
      <trkpt lat="44.80763" lon="6.37728">
        <ele>1925</ele>
        <time>2021-07-07T10:22:53Z</time>
      </trkpt>
      <trkpt lat="44.80748" lon="6.37711">
        <ele>1924</ele>
        <time>2021-07-07T10:22:43Z</time>
      </trkpt>
      <trkpt lat="44.80742" lon="6.37694">
        <ele>1928</ele>
        <time>2021-07-07T10:22:36Z</time>
      </trkpt>
      <trkpt lat="44.80731" lon="6.37683">
        <ele>1930</ele>
        <time>2021-07-07T10:22:29Z</time>
      </trkpt>
      <trkpt lat="44.80711" lon="6.37674">
        <ele>1931</ele>
        <time>2021-07-07T10:22:19Z</time>
      </trkpt>
      <trkpt lat="44.80703" lon="6.37666">
        <ele>1932</ele>
        <time>2021-07-07T10:22:14Z</time>
      </trkpt>
      <trkpt lat="44.80684" lon="6.37629">
        <ele>1940</ele>
        <time>2021-07-07T10:21:58Z</time>
      </trkpt>
      <trkpt lat="44.80669" lon="6.37625">
        <ele>1938</ele>
        <time>2021-07-07T10:21:50Z</time>
      </trkpt>
      <trkpt lat="44.8065" lon="6.37604">
        <ele>1942</ele>
        <time>2021-07-07T10:21:38Z</time>
      </trkpt>
      <trkpt lat="44.80647" lon="6.37595">
        <ele>1943</ele>
        <time>2021-07-07T10:21:35Z</time>
      </trkpt>
      <trkpt lat="44.80629" lon="6.37574">
        <ele>1944</ele>
        <time>2021-07-07T10:21:23Z</time>
      </trkpt>
      <trkpt lat="44.80626" lon="6.37567">
        <ele>1944</ele>
        <time>2021-07-07T10:21:20Z</time>
      </trkpt>
      <trkpt lat="44.80614" lon="6.37563">
        <ele>1944</ele>
        <time>2021-07-07T10:21:14Z</time>
      </trkpt>
      <trkpt lat="44.80601" lon="6.37537">
        <ele>1943</ele>
        <time>2021-07-07T10:21:03Z</time>
      </trkpt>
      <trkpt lat="44.80588" lon="6.37527">
        <ele>1942</ele>
        <time>2021-07-07T10:20:55Z</time>
      </trkpt>
      <trkpt lat="44.80576" lon="6.37512">
        <ele>1942</ele>
        <time>2021-07-07T10:20:47Z</time>
      </trkpt>
      <trkpt lat="44.80566" lon="6.37461">
        <ele>1944</ele>
        <time>2021-07-07T10:20:28Z</time>
      </trkpt>
      <trkpt lat="44.80548" lon="6.37434">
        <ele>1945</ele>
        <time>2021-07-07T10:20:15Z</time>
      </trkpt>
      <trkpt lat="44.80532" lon="6.37427">
        <ele>1945</ele>
        <time>2021-07-07T10:20:07Z</time>
      </trkpt>
      <trkpt lat="44.80501" lon="6.37404">
        <ele>1945</ele>
        <time>2021-07-07T10:19:49Z</time>
      </trkpt>
      <trkpt lat="44.80495" lon="6.37389">
        <ele>1948</ele>
        <time>2021-07-07T10:19:43Z</time>
      </trkpt>
      <trkpt lat="44.80494" lon="6.37379">
        <ele>1948</ele>
        <time>2021-07-07T10:19:40Z</time>
      </trkpt>
      <trkpt lat="44.80497" lon="6.37357">
        <ele>1949</ele>
        <time>2021-07-07T10:19:32Z</time>
      </trkpt>
      <trkpt lat="44.80424" lon="6.37259">
        <ele>1962</ele>
        <time>2021-07-07T10:18:41Z</time>
      </trkpt>
      <trkpt lat="44.80405" lon="6.37245">
        <ele>1963</ele>
        <time>2021-07-07T10:18:30Z</time>
      </trkpt>
      <trkpt lat="44.8039" lon="6.37224">
        <ele>1965</ele>
        <time>2021-07-07T10:18:20Z</time>
      </trkpt>
      <trkpt lat="44.80382" lon="6.37206">
        <ele>1967</ele>
        <time>2021-07-07T10:18:12Z</time>
      </trkpt>
      <trkpt lat="44.80362" lon="6.37186">
        <ele>1968</ele>
        <time>2021-07-07T10:18:00Z</time>
      </trkpt>
      <trkpt lat="44.80354" lon="6.37166">
        <ele>1970</ele>
        <time>2021-07-07T10:17:52Z</time>
      </trkpt>
      <trkpt lat="44.80348" lon="6.37136">
        <ele>1972</ele>
        <time>2021-07-07T10:17:41Z</time>
      </trkpt>
      <trkpt lat="44.80337" lon="6.37114">
        <ele>1973</ele>
        <time>2021-07-07T10:17:31Z</time>
      </trkpt>
      <trkpt lat="44.80335" lon="6.37074">
        <ele>1976</ele>
        <time>2021-07-07T10:17:17Z</time>
      </trkpt>
      <trkpt lat="44.80322" lon="6.37064">
        <ele>1976</ele>
        <time>2021-07-07T10:17:10Z</time>
      </trkpt>
      <trkpt lat="44.80297" lon="6.37007">
        <ele>1979</ele>
        <time>2021-07-07T10:16:46Z</time>
      </trkpt>
      <trkpt lat="44.80289" lon="6.3698">
        <ele>1983</ele>
        <time>2021-07-07T10:16:35Z</time>
      </trkpt>
      <trkpt lat="44.80286" lon="6.36943">
        <ele>1988</ele>
        <time>2021-07-07T10:16:22Z</time>
      </trkpt>
      <trkpt lat="44.80248" lon="6.36822">
        <ele>1999</ele>
        <time>2021-07-07T10:15:35Z</time>
      </trkpt>
      <trkpt lat="44.80239" lon="6.36813">
        <ele>2000</ele>
        <time>2021-07-07T10:15:30Z</time>
      </trkpt>
      <trkpt lat="44.8023" lon="6.36811">
        <ele>1999</ele>
        <time>2021-07-07T10:15:25Z</time>
      </trkpt>
      <trkpt lat="44.80223" lon="6.36803">
        <ele>2000</ele>
        <time>2021-07-07T10:15:21Z</time>
      </trkpt>
      <trkpt lat="44.8019" lon="6.36741">
        <ele>2005</ele>
        <time>2021-07-07T10:14:53Z</time>
      </trkpt>
      <trkpt lat="44.80179" lon="6.36703">
        <ele>2008</ele>
        <time>2021-07-07T10:14:39Z</time>
      </trkpt>
      <trkpt lat="44.80153" lon="6.36676">
        <ele>2007</ele>
        <time>2021-07-07T10:14:22Z</time>
      </trkpt>
      <trkpt lat="44.80143" lon="6.36672">
        <ele>2007</ele>
        <time>2021-07-07T10:14:17Z</time>
      </trkpt>
      <trkpt lat="44.80132" lon="6.36661">
        <ele>2009</ele>
        <time>2021-07-07T10:14:10Z</time>
      </trkpt>
      <trkpt lat="44.80127" lon="6.36645">
        <ele>2011</ele>
        <time>2021-07-07T10:14:04Z</time>
      </trkpt>
      <trkpt lat="44.80096" lon="6.36594">
        <ele>2016</ele>
        <time>2021-07-07T10:13:40Z</time>
      </trkpt>
      <trkpt lat="44.80079" lon="6.36601">
        <ele>2015</ele>
        <time>2021-07-07T10:13:31Z</time>
      </trkpt>
      <trkpt lat="44.80047" lon="6.36635">
        <ele>2016</ele>
        <time>2021-07-07T10:13:11Z</time>
      </trkpt>
      <trkpt lat="44.80001" lon="6.36631">
        <ele>2023</ele>
        <time>2021-07-07T10:12:48Z</time>
      </trkpt>
      <trkpt lat="44.79973" lon="6.36637">
        <ele>2030</ele>
        <time>2021-07-07T10:12:34Z</time>
      </trkpt>
      <trkpt lat="44.79962" lon="6.36658">
        <ele>2032</ele>
        <time>2021-07-07T10:12:25Z</time>
      </trkpt>
      <trkpt lat="44.7995" lon="6.36659">
        <ele>2035</ele>
        <time>2021-07-07T10:12:19Z</time>
      </trkpt>
      <trkpt lat="44.79939" lon="6.36684">
        <ele>2039</ele>
        <time>2021-07-07T10:12:08Z</time>
      </trkpt>
      <trkpt lat="44.79914" lon="6.36634">
        <ele>2049</ele>
        <time>2021-07-07T10:11:47Z</time>
      </trkpt>
      <trkpt lat="44.79901" lon="6.36698">
        <ele>2053</ele>
        <time>2021-07-07T10:11:23Z</time>
      </trkpt>
      <trkpt lat="44.79874" lon="6.36617">
        <ele>2067</ele>
        <time>2021-07-07T10:10:51Z</time>
      </trkpt>
      <trkpt lat="44.79871" lon="6.36645">
        <ele>2067</ele>
        <time>2021-07-07T10:10:41Z</time>
      </trkpt>
      <trkpt lat="44.79863" lon="6.36634">
        <ele>2071</ele>
        <time>2021-07-07T10:10:36Z</time>
      </trkpt>
      <trkpt lat="44.7987" lon="6.36686">
        <ele>2066</ele>
        <time>2021-07-07T10:10:17Z</time>
      </trkpt>
      <trkpt lat="44.79837" lon="6.36666">
        <ele>2080</ele>
        <time>2021-07-07T10:09:59Z</time>
      </trkpt>
      <trkpt lat="44.79836" lon="6.3669">
        <ele>2079</ele>
        <time>2021-07-07T10:09:50Z</time>
      </trkpt>
      <trkpt lat="44.79843" lon="6.36722">
        <ele>2075</ele>
        <time>2021-07-07T10:09:38Z</time>
      </trkpt>
      <trkpt lat="44.79819" lon="6.36693">
        <ele>2083</ele>
        <time>2021-07-07T10:09:23Z</time>
      </trkpt>
      <trkpt lat="44.7981" lon="6.3667">
        <ele>2086</ele>
        <time>2021-07-07T10:09:13Z</time>
      </trkpt>
      <trkpt lat="44.79804" lon="6.36665">
        <ele>2088</ele>
        <time>2021-07-07T10:09:10Z</time>
      </trkpt>
      <trkpt lat="44.79792" lon="6.36618">
        <ele>2092</ele>
        <time>2021-07-07T10:08:52Z</time>
      </trkpt>
      <trkpt lat="44.79777" lon="6.36608">
        <ele>2095</ele>
        <time>2021-07-07T10:08:44Z</time>
      </trkpt>
      <trkpt lat="44.79759" lon="6.36606">
        <ele>2099</ele>
        <time>2021-07-07T10:08:35Z</time>
      </trkpt>
      <trkpt lat="44.79737" lon="6.36592">
        <ele>2102</ele>
        <time>2021-07-07T10:08:23Z</time>
      </trkpt>
      <trkpt lat="44.79719" lon="6.36604">
        <ele>2102</ele>
        <time>2021-07-07T10:08:13Z</time>
      </trkpt>
      <trkpt lat="44.79697" lon="6.36599">
        <ele>2104</ele>
        <time>2021-07-07T10:08:02Z</time>
      </trkpt>
      <trkpt lat="44.79643" lon="6.36542">
        <ele>2114</ele>
        <time>2021-07-07T10:07:28Z</time>
      </trkpt>
      <trkpt lat="44.7959" lon="6.36524">
        <ele>2118</ele>
        <time>2021-07-07T10:07:01Z</time>
      </trkpt>
      <trkpt lat="44.7956" lon="6.36519">
        <ele>2118</ele>
        <time>2021-07-07T10:06:45Z</time>
      </trkpt>
      <trkpt lat="44.79534" lon="6.36505">
        <ele>2118</ele>
        <time>2021-07-07T10:06:31Z</time>
      </trkpt>
      <trkpt lat="44.79514" lon="6.36499">
        <ele>2117</ele>
        <time>2021-07-07T10:06:21Z</time>
      </trkpt>
      <trkpt lat="44.79498" lon="6.36496">
        <ele>2117</ele>
        <time>2021-07-07T10:06:13Z</time>
      </trkpt>
      <trkpt lat="44.79483" lon="6.36507">
        <ele>2116</ele>
        <time>2021-07-07T10:06:05Z</time>
      </trkpt>
      <trkpt lat="44.79462" lon="6.36484">
        <ele>2121</ele>
        <time>2021-07-07T10:05:51Z</time>
      </trkpt>
      <trkpt lat="44.79449" lon="6.3648">
        <ele>2122</ele>
        <time>2021-07-07T10:05:45Z</time>
      </trkpt>
      <trkpt lat="44.79415" lon="6.36493">
        <ele>2120</ele>
        <time>2021-07-07T10:05:27Z</time>
      </trkpt>
      <trkpt lat="44.79408" lon="6.36499">
        <ele>2119</ele>
        <time>2021-07-07T10:05:23Z</time>
      </trkpt>
      <trkpt lat="44.79371" lon="6.36487">
        <ele>2125</ele>
        <time>2021-07-07T10:05:04Z</time>
      </trkpt>
      <trkpt lat="44.79291" lon="6.3649">
        <ele>2132</ele>
        <time>2021-07-07T10:04:24Z</time>
      </trkpt>
      <trkpt lat="44.7928" lon="6.36499">
        <ele>2132</ele>
        <time>2021-07-07T10:04:18Z</time>
      </trkpt>
      <trkpt lat="44.79274" lon="6.36492">
        <ele>2133</ele>
        <time>2021-07-07T10:04:14Z</time>
      </trkpt>
      <trkpt lat="44.79263" lon="6.36491">
        <ele>2135</ele>
        <time>2021-07-07T10:04:08Z</time>
      </trkpt>
      <trkpt lat="44.79233" lon="6.36475">
        <ele>2139</ele>
        <time>2021-07-07T10:03:52Z</time>
      </trkpt>
      <trkpt lat="44.79199" lon="6.36461">
        <ele>2143</ele>
        <time>2021-07-07T10:03:34Z</time>
      </trkpt>
      <trkpt lat="44.79185" lon="6.36447">
        <ele>2145</ele>
        <time>2021-07-07T10:03:26Z</time>
      </trkpt>
      <trkpt lat="44.79171" lon="6.36421">
        <ele>2148</ele>
        <time>2021-07-07T10:03:14Z</time>
      </trkpt>
      <trkpt lat="44.79177" lon="6.36405">
        <ele>2149</ele>
        <time>2021-07-07T10:03:08Z</time>
      </trkpt>
      <trkpt lat="44.79177" lon="6.36386">
        <ele>2153</ele>
        <time>2021-07-07T10:03:01Z</time>
      </trkpt>
      <trkpt lat="44.79165" lon="6.36373">
        <ele>2155</ele>
        <time>2021-07-07T10:02:53Z</time>
      </trkpt>
      <trkpt lat="44.79123" lon="6.36352">
        <ele>2165</ele>
        <time>2021-07-07T10:02:31Z</time>
      </trkpt>
      <trkpt lat="44.79101" lon="6.36338">
        <ele>2170</ele>
        <time>2021-07-07T10:02:19Z</time>
      </trkpt>
      <trkpt lat="44.7905" lon="6.3633">
        <ele>2179</ele>
        <time>2021-07-07T10:01:53Z</time>
      </trkpt>
      <trkpt lat="44.79027" lon="6.3631">
        <ele>2186</ele>
        <time>2021-07-07T10:01:40Z</time>
      </trkpt>
      <trkpt lat="44.78995" lon="6.36312">
        <ele>2189</ele>
        <time>2021-07-07T10:01:24Z</time>
      </trkpt>
      <trkpt lat="44.78982" lon="6.36315">
        <ele>2191</ele>
        <time>2021-07-07T10:01:17Z</time>
      </trkpt>
      <trkpt lat="44.78968" lon="6.36309">
        <ele>2195</ele>
        <time>2021-07-07T10:01:10Z</time>
      </trkpt>
      <trkpt lat="44.78988" lon="6.36271">
        <ele>2199</ele>
        <time>2021-07-07T10:00:53Z</time>
      </trkpt>
      <trkpt lat="44.78993" lon="6.36253">
        <ele>2201</ele>
        <time>2021-07-07T10:00:46Z</time>
      </trkpt>
      <trkpt lat="44.78994" lon="6.36232">
        <ele>2210</ele>
        <time>2021-07-07T10:00:39Z</time>
      </trkpt>
      <trkpt lat="44.78987" lon="6.36243">
        <ele>2206</ele>
        <time>2021-07-07T10:00:34Z</time>
      </trkpt>
      <trkpt lat="44.78975" lon="6.36244">
        <ele>2208</ele>
        <time>2021-07-07T10:00:28Z</time>
      </trkpt>
      <trkpt lat="44.78959" lon="6.3624">
        <ele>2212</ele>
        <time>2021-07-07T10:00:19Z</time>
      </trkpt>
      <trkpt lat="44.78946" lon="6.36233">
        <ele>2216</ele>
        <time>2021-07-07T10:00:12Z</time>
      </trkpt>
      <trkpt lat="44.78938" lon="6.36245">
        <ele>2213</ele>
        <time>2021-07-07T10:00:07Z</time>
      </trkpt>
      <trkpt lat="44.78914" lon="6.36246">
        <ele>2216</ele>
        <time>2021-07-07T09:59:55Z</time>
      </trkpt>
      <trkpt lat="44.78908" lon="6.36241">
        <ele>2220</ele>
        <time>2021-07-07T09:59:51Z</time>
      </trkpt>
      <trkpt lat="44.78899" lon="6.36243">
        <ele>2222</ele>
        <time>2021-07-07T09:59:47Z</time>
      </trkpt>
      <trkpt lat="44.78894" lon="6.36236">
        <ele>2225</ele>
        <time>2021-07-07T09:59:43Z</time>
      </trkpt>
      <trkpt lat="44.78893" lon="6.36226">
        <ele>2229</ele>
        <time>2021-07-07T09:59:39Z</time>
      </trkpt>
      <trkpt lat="44.78903" lon="6.36224">
        <ele>2227</ele>
        <time>2021-07-07T09:59:34Z</time>
      </trkpt>
      <trkpt lat="44.7891" lon="6.36218">
        <ele>2227</ele>
        <time>2021-07-07T09:59:30Z</time>
      </trkpt>
      <trkpt lat="44.78909" lon="6.36211">
        <ele>2230</ele>
        <time>2021-07-07T09:59:28Z</time>
      </trkpt>
      <trkpt lat="44.78903" lon="6.36214">
        <ele>2230</ele>
        <time>2021-07-07T09:59:25Z</time>
      </trkpt>
      <trkpt lat="44.78894" lon="6.3621">
        <ele>2233</ele>
        <time>2021-07-07T09:59:20Z</time>
      </trkpt>
      <trkpt lat="44.7889" lon="6.362">
        <ele>2237</ele>
        <time>2021-07-07T09:59:16Z</time>
      </trkpt>
      <trkpt lat="44.78875" lon="6.36202">
        <ele>2240</ele>
        <time>2021-07-07T09:59:08Z</time>
      </trkpt>
      <trkpt lat="44.78866" lon="6.36197">
        <ele>2243</ele>
        <time>2021-07-07T09:59:03Z</time>
      </trkpt>
      <trkpt lat="44.78859" lon="6.36185">
        <ele>2247</ele>
        <time>2021-07-07T09:58:58Z</time>
      </trkpt>
      <trkpt lat="44.78851" lon="6.36177">
        <ele>2250</ele>
        <time>2021-07-07T09:58:53Z</time>
      </trkpt>
      <trkpt lat="44.78826" lon="6.36181">
        <ele>2254</ele>
        <time>2021-07-07T09:58:40Z</time>
      </trkpt>
      <trkpt lat="44.7882" lon="6.36209">
        <ele>2251</ele>
        <time>2021-07-07T09:58:30Z</time>
      </trkpt>
      <trkpt lat="44.78793" lon="6.36214">
        <ele>2258</ele>
        <time>2021-07-07T09:58:16Z</time>
      </trkpt>
      <trkpt lat="44.78788" lon="6.36233">
        <ele>2258</ele>
        <time>2021-07-07T09:58:09Z</time>
      </trkpt>
      <trkpt lat="44.78788" lon="6.3625">
        <ele>2256</ele>
        <time>2021-07-07T09:58:03Z</time>
      </trkpt>
      <trkpt lat="44.78784" lon="6.36251">
        <ele>2258</ele>
        <time>2021-07-07T09:58:01Z</time>
      </trkpt>
      <trkpt lat="44.78772" lon="6.36237">
        <ele>2263</ele>
        <time>2021-07-07T09:57:53Z</time>
      </trkpt>
      <trkpt lat="44.78734" lon="6.36182">
        <ele>2280</ele>
        <time>2021-07-07T09:57:26Z</time>
      </trkpt>
      <trkpt lat="44.78722" lon="6.36224">
        <ele>2284</ele>
        <time>2021-07-07T09:57:10Z</time>
      </trkpt>
      <trkpt lat="44.78712" lon="6.36291">
        <ele>2284</ele>
        <time>2021-07-07T09:56:46Z</time>
      </trkpt>
      <trkpt lat="44.78703" lon="6.36309">
        <ele>2286</ele>
        <time>2021-07-07T09:56:38Z</time>
      </trkpt>
      <trkpt lat="44.78699" lon="6.36324">
        <ele>2285</ele>
        <time>2021-07-07T09:56:32Z</time>
      </trkpt>
      <trkpt lat="44.78703" lon="6.36336">
        <ele>2283</ele>
        <time>2021-07-07T09:56:27Z</time>
      </trkpt>
      <trkpt lat="44.78714" lon="6.36352">
        <ele>2281</ele>
        <time>2021-07-07T09:56:19Z</time>
      </trkpt>
      <trkpt lat="44.78721" lon="6.36377">
        <ele>2278</ele>
        <time>2021-07-07T09:56:10Z</time>
      </trkpt>
      <trkpt lat="44.78718" lon="6.36386">
        <ele>2278</ele>
        <time>2021-07-07T09:56:06Z</time>
      </trkpt>
      <trkpt lat="44.78706" lon="6.3639">
        <ele>2280</ele>
        <time>2021-07-07T09:56:00Z</time>
      </trkpt>
      <trkpt lat="44.78693" lon="6.36385">
        <ele>2282</ele>
        <time>2021-07-07T09:55:53Z</time>
      </trkpt>
      <trkpt lat="44.78678" lon="6.36386">
        <ele>2285</ele>
        <time>2021-07-07T09:55:46Z</time>
      </trkpt>
      <trkpt lat="44.78671" lon="6.36389">
        <ele>2286</ele>
        <time>2021-07-07T09:55:42Z</time>
      </trkpt>
      <trkpt lat="44.78637" lon="6.36393">
        <ele>2291</ele>
        <time>2021-07-07T09:55:25Z</time>
      </trkpt>
      <trkpt lat="44.78632" lon="6.36401">
        <ele>2291</ele>
        <time>2021-07-07T09:55:21Z</time>
      </trkpt>
      <trkpt lat="44.7863" lon="6.36395">
        <ele>2292</ele>
        <time>2021-07-07T09:55:19Z</time>
      </trkpt>
      <trkpt lat="44.78654" lon="6.36351">
        <ele>2292</ele>
        <time>2021-07-07T09:54:59Z</time>
      </trkpt>
      <trkpt lat="44.78651" lon="6.3635">
        <ele>2293</ele>
        <time>2021-07-07T09:54:58Z</time>
      </trkpt>
      <trkpt lat="44.78596" lon="6.36379">
        <ele>2301</ele>
        <time>2021-07-07T09:54:28Z</time>
      </trkpt>
      <trkpt lat="44.78587" lon="6.3638">
        <ele>2302</ele>
        <time>2021-07-07T09:54:24Z</time>
      </trkpt>
      <trkpt lat="44.78556" lon="6.36351">
        <ele>2313</ele>
        <time>2021-07-07T09:54:05Z</time>
      </trkpt>
      <trkpt lat="44.7856" lon="6.36335">
        <ele>2315</ele>
        <time>2021-07-07T09:53:59Z</time>
      </trkpt>
      <trkpt lat="44.78556" lon="6.36325">
        <ele>2319</ele>
        <time>2021-07-07T09:53:55Z</time>
      </trkpt>
      <trkpt lat="44.78554" lon="6.36331">
        <ele>2318</ele>
        <time>2021-07-07T09:53:53Z</time>
      </trkpt>
      <trkpt lat="44.78538" lon="6.36334">
        <ele>2320</ele>
        <time>2021-07-07T09:53:45Z</time>
      </trkpt>
      <trkpt lat="44.78537" lon="6.36339">
        <ele>2319</ele>
        <time>2021-07-07T09:53:43Z</time>
      </trkpt>
      <trkpt lat="44.78531" lon="6.36341">
        <ele>2320</ele>
        <time>2021-07-07T09:53:40Z</time>
      </trkpt>
      <trkpt lat="44.78528" lon="6.36339">
        <ele>2321</ele>
        <time>2021-07-07T09:53:38Z</time>
      </trkpt>
      <trkpt lat="44.7853" lon="6.36328">
        <ele>2324</ele>
        <time>2021-07-07T09:53:34Z</time>
      </trkpt>
      <trkpt lat="44.7854" lon="6.36314">
        <ele>2326</ele>
        <time>2021-07-07T09:53:27Z</time>
      </trkpt>
      <trkpt lat="44.78548" lon="6.36296">
        <ele>2330</ele>
        <time>2021-07-07T09:53:20Z</time>
      </trkpt>
      <trkpt lat="44.78537" lon="6.36295">
        <ele>2333</ele>
        <time>2021-07-07T09:53:14Z</time>
      </trkpt>
      <trkpt lat="44.78499" lon="6.36309">
        <ele>2337</ele>
        <time>2021-07-07T09:52:54Z</time>
      </trkpt>
      <trkpt lat="44.785" lon="6.36296">
        <ele>2342</ele>
        <time>2021-07-07T09:52:50Z</time>
      </trkpt>
      <trkpt lat="44.78506" lon="6.36284">
        <ele>2345</ele>
        <time>2021-07-07T09:52:45Z</time>
      </trkpt>
      <trkpt lat="44.78512" lon="6.36279">
        <ele>2345</ele>
        <time>2021-07-07T09:52:41Z</time>
      </trkpt>
      <trkpt lat="44.78505" lon="6.36274">
        <ele>2349</ele>
        <time>2021-07-07T09:52:37Z</time>
      </trkpt>
      <trkpt lat="44.78488" lon="6.36279">
        <ele>2352</ele>
        <time>2021-07-07T09:52:28Z</time>
      </trkpt>
      <trkpt lat="44.78495" lon="6.36268">
        <ele>2354</ele>
        <time>2021-07-07T09:52:23Z</time>
      </trkpt>
      <trkpt lat="44.78506" lon="6.36265">
        <ele>2352</ele>
        <time>2021-07-07T09:52:18Z</time>
      </trkpt>
      <trkpt lat="44.78506" lon="6.36261">
        <ele>2353</ele>
        <time>2021-07-07T09:52:16Z</time>
      </trkpt>
      <trkpt lat="44.78473" lon="6.36248">
        <ele>2366</ele>
        <time>2021-07-07T09:51:59Z</time>
      </trkpt>
      <trkpt lat="44.78485" lon="6.36233">
        <ele>2368</ele>
        <time>2021-07-07T09:51:51Z</time>
      </trkpt>
      <trkpt lat="44.78492" lon="6.36217">
        <ele>2372</ele>
        <time>2021-07-07T09:51:44Z</time>
      </trkpt>
      <trkpt lat="44.78489" lon="6.36185">
        <ele>2384</ele>
        <time>2021-07-07T09:51:33Z</time>
      </trkpt>
      <trkpt lat="44.78506" lon="6.36178">
        <ele>2383</ele>
        <time>2021-07-07T09:51:24Z</time>
      </trkpt>
      <trkpt lat="44.78495" lon="6.36171">
        <ele>2388</ele>
        <time>2021-07-07T09:51:18Z</time>
      </trkpt>
      <trkpt lat="44.78484" lon="6.36169">
        <ele>2391</ele>
        <time>2021-07-07T09:51:12Z</time>
      </trkpt>
      <trkpt lat="44.78487" lon="6.36165">
        <ele>2391</ele>
        <time>2021-07-07T09:51:10Z</time>
      </trkpt>
      <trkpt lat="44.78507" lon="6.36162">
        <ele>2388</ele>
        <time>2021-07-07T09:51:00Z</time>
      </trkpt>
      <trkpt lat="44.78477" lon="6.36144">
        <ele>2399</ele>
        <time>2021-07-07T09:50:44Z</time>
      </trkpt>
      <trkpt lat="44.78477" lon="6.36138">
        <ele>2401</ele>
        <time>2021-07-07T09:50:42Z</time>
      </trkpt>
      <trkpt lat="44.78495" lon="6.36134">
        <ele>2398</ele>
        <time>2021-07-07T09:50:33Z</time>
      </trkpt>
      <trkpt lat="44.785" lon="6.36126">
        <ele>2399</ele>
        <time>2021-07-07T09:50:29Z</time>
      </trkpt>
      <trkpt lat="44.78532" lon="6.36109">
        <ele>2393</ele>
        <time>2021-07-07T09:50:12Z</time>
      </trkpt>
      <trkpt lat="44.78516" lon="6.36093">
        <ele>2402</ele>
        <time>2021-07-07T09:50:02Z</time>
      </trkpt>
      <trkpt lat="44.78502" lon="6.36068">
        <ele>2412</ele>
        <time>2021-07-07T09:49:51Z</time>
      </trkpt>
      <trkpt lat="44.78519" lon="6.36076">
        <ele>2404</ele>
        <time>2021-07-07T09:49:42Z</time>
      </trkpt>
      <trkpt lat="44.78521" lon="6.3607">
        <ele>2404</ele>
        <time>2021-07-07T09:49:39Z</time>
      </trkpt>
      <trkpt lat="44.78501" lon="6.36043">
        <ele>2416</ele>
        <time>2021-07-07T09:49:25Z</time>
      </trkpt>
      <trkpt lat="44.7848" lon="6.36039">
        <ele>2423</ele>
        <time>2021-07-07T09:49:15Z</time>
      </trkpt>
      <trkpt lat="44.78459" lon="6.36039">
        <ele>2430</ele>
        <time>2021-07-07T09:49:04Z</time>
      </trkpt>
      <trkpt lat="44.78457" lon="6.36037">
        <ele>2431</ele>
        <time>2021-07-07T09:49:03Z</time>
      </trkpt>
      <trkpt lat="44.78466" lon="6.36025">
        <ele>2431</ele>
        <time>2021-07-07T09:48:57Z</time>
      </trkpt>
      <trkpt lat="44.78454" lon="6.36025">
        <ele>2435</ele>
        <time>2021-07-07T09:48:51Z</time>
      </trkpt>
      <trkpt lat="44.78445" lon="6.36028">
        <ele>2438</ele>
        <time>2021-07-07T09:48:46Z</time>
      </trkpt>
      <trkpt lat="44.78452" lon="6.36016">
        <ele>2438</ele>
        <time>2021-07-07T09:48:41Z</time>
      </trkpt>
      <trkpt lat="44.78461" lon="6.36009">
        <ele>2436</ele>
        <time>2021-07-07T09:48:36Z</time>
      </trkpt>
      <trkpt lat="44.78495" lon="6.36009">
        <ele>2423</ele>
        <time>2021-07-07T09:48:19Z</time>
      </trkpt>
      <trkpt lat="44.785" lon="6.36006">
        <ele>2422</ele>
        <time>2021-07-07T09:48:16Z</time>
      </trkpt>
      <trkpt lat="44.78498" lon="6.36002">
        <ele>2423</ele>
        <time>2021-07-07T09:48:14Z</time>
      </trkpt>
      <trkpt lat="44.78452" lon="6.3597">
        <ele>2452</ele>
        <time>2021-07-07T09:47:48Z</time>
      </trkpt>
      <trkpt lat="44.78423" lon="6.35969">
        <ele>2466</ele>
        <time>2021-07-07T09:47:34Z</time>
      </trkpt>
      <trkpt lat="44.78414" lon="6.35981">
        <ele>2464</ele>
        <time>2021-07-07T09:47:28Z</time>
      </trkpt>
      <trkpt lat="44.7841" lon="6.35997">
        <ele>2458</ele>
        <time>2021-07-07T09:47:22Z</time>
      </trkpt>
      <trkpt lat="44.78396" lon="6.36007">
        <ele>2457</ele>
        <time>2021-07-07T09:47:14Z</time>
      </trkpt>
      <trkpt lat="44.78368" lon="6.36009">
        <ele>2461</ele>
        <time>2021-07-07T09:47:00Z</time>
      </trkpt>
      <trkpt lat="44.78381" lon="6.3599">
        <ele>2465</ele>
        <time>2021-07-07T09:46:50Z</time>
      </trkpt>
      <trkpt lat="44.78378" lon="6.35988">
        <ele>2466</ele>
        <time>2021-07-07T09:46:49Z</time>
      </trkpt>
      <trkpt lat="44.78368" lon="6.3599">
        <ele>2466</ele>
        <time>2021-07-07T09:46:44Z</time>
      </trkpt>
      <trkpt lat="44.78355" lon="6.35985">
        <ele>2470</ele>
        <time>2021-07-07T09:46:37Z</time>
      </trkpt>
      <trkpt lat="44.78327" lon="6.35956">
        <ele>2481</ele>
        <time>2021-07-07T09:46:20Z</time>
      </trkpt>
      <trkpt lat="44.78308" lon="6.35921">
        <ele>2488</ele>
        <time>2021-07-07T09:46:04Z</time>
      </trkpt>
      <trkpt lat="44.78291" lon="6.35895">
        <ele>2490</ele>
        <time>2021-07-07T09:45:51Z</time>
      </trkpt>
      <trkpt lat="44.78281" lon="6.35884">
        <ele>2490</ele>
        <time>2021-07-07T09:45:45Z</time>
      </trkpt>
      <trkpt lat="44.7828" lon="6.35862">
        <ele>2492</ele>
        <time>2021-07-07T09:45:37Z</time>
      </trkpt>
      <trkpt lat="44.78268" lon="6.35827">
        <ele>2494</ele>
        <time>2021-07-07T09:45:23Z</time>
      </trkpt>
      <trkpt lat="44.78244" lon="6.35807">
        <ele>2496</ele>
        <time>2021-07-07T09:45:09Z</time>
      </trkpt>
      <trkpt lat="44.78234" lon="6.35802">
        <ele>2499</ele>
        <time>2021-07-07T09:45:04Z</time>
      </trkpt>
      <trkpt lat="44.78229" lon="6.35812">
        <ele>2499</ele>
        <time>2021-07-07T09:45:00Z</time>
      </trkpt>
      <trkpt lat="44.78224" lon="6.35834">
        <ele>2497</ele>
        <time>2021-07-07T09:44:52Z</time>
      </trkpt>
      <trkpt lat="44.78226" lon="6.35865">
        <ele>2495</ele>
        <time>2021-07-07T09:44:41Z</time>
      </trkpt>
      <trkpt lat="44.78223" lon="6.35903">
        <ele>2494</ele>
        <time>2021-07-07T09:44:27Z</time>
      </trkpt>
      <trkpt lat="44.78216" lon="6.35917">
        <ele>2496</ele>
        <time>2021-07-07T09:44:21Z</time>
      </trkpt>
      <trkpt lat="44.78218" lon="6.35962">
        <ele>2494</ele>
        <time>2021-07-07T09:44:05Z</time>
      </trkpt>
      <trkpt lat="44.78215" lon="6.36068">
        <ele>2492</ele>
        <time>2021-07-07T09:43:27Z</time>
      </trkpt>
      <trkpt lat="44.78221" lon="6.36076">
        <ele>2489</ele>
        <time>2021-07-07T09:43:23Z</time>
      </trkpt>
      <trkpt lat="44.78216" lon="6.3609">
        <ele>2491</ele>
        <time>2021-07-07T09:43:17Z</time>
      </trkpt>
      <trkpt lat="44.78204" lon="6.3608">
        <ele>2494</ele>
        <time>2021-07-07T09:43:11Z</time>
      </trkpt>
      <trkpt lat="44.78188" lon="6.36081">
        <ele>2499</ele>
        <time>2021-07-07T09:43:03Z</time>
      </trkpt>
      <trkpt lat="44.78175" lon="6.36078">
        <ele>2503</ele>
        <time>2021-07-07T09:42:56Z</time>
      </trkpt>
      <trkpt lat="44.7816" lon="6.36039">
        <ele>2511</ele>
        <time>2021-07-07T09:42:40Z</time>
      </trkpt>
      <trkpt lat="44.78143" lon="6.36009">
        <ele>2520</ele>
        <time>2021-07-07T09:42:27Z</time>
      </trkpt>
      <trkpt lat="44.78134" lon="6.35998">
        <ele>2524</ele>
        <time>2021-07-07T09:42:21Z</time>
      </trkpt>
      <trkpt lat="44.78124" lon="6.36003">
        <ele>2526</ele>
        <time>2021-07-07T09:42:15Z</time>
      </trkpt>
      <trkpt lat="44.78117" lon="6.36013">
        <ele>2525</ele>
        <time>2021-07-07T09:42:10Z</time>
      </trkpt>
      <trkpt lat="44.78099" lon="6.35999">
        <ele>2533</ele>
        <time>2021-07-07T09:42:00Z</time>
      </trkpt>
      <trkpt lat="44.78078" lon="6.36002">
        <ele>2537</ele>
        <time>2021-07-07T09:41:49Z</time>
      </trkpt>
      <trkpt lat="44.78067" lon="6.35998">
        <ele>2540</ele>
        <time>2021-07-07T09:41:44Z</time>
      </trkpt>
      <trkpt lat="44.78056" lon="6.36007">
        <ele>2539</ele>
        <time>2021-07-07T09:41:37Z</time>
      </trkpt>
      <trkpt lat="44.78043" lon="6.35993">
        <ele>2546</ele>
        <time>2021-07-07T09:41:29Z</time>
      </trkpt>
      <trkpt lat="44.78003" lon="6.35982">
        <ele>2558</ele>
        <time>2021-07-07T09:41:09Z</time>
      </trkpt>
      <trkpt lat="44.77971" lon="6.35981">
        <ele>2560</ele>
        <time>2021-07-07T09:40:53Z</time>
      </trkpt>
      <trkpt lat="44.77957" lon="6.35969">
        <ele>2566</ele>
        <time>2021-07-07T09:40:45Z</time>
      </trkpt>
      <trkpt lat="44.7795" lon="6.35951">
        <ele>2575</ele>
        <time>2021-07-07T09:40:37Z</time>
      </trkpt>
      <trkpt lat="44.77914" lon="6.35927">
        <ele>2587</ele>
        <time>2021-07-07T09:40:17Z</time>
      </trkpt>
      <trkpt lat="44.77896" lon="6.35911">
        <ele>2595</ele>
        <time>2021-07-07T09:40:07Z</time>
      </trkpt>
      <trkpt lat="44.77875" lon="6.35898">
        <ele>2600</ele>
        <time>2021-07-07T09:39:55Z</time>
      </trkpt>
      <trkpt lat="44.77851" lon="6.35896">
        <ele>2603</ele>
        <time>2021-07-07T09:39:43Z</time>
      </trkpt>
      <trkpt lat="44.77806" lon="6.35884">
        <ele>2614</ele>
        <time>2021-07-07T09:39:20Z</time>
      </trkpt>
      <trkpt lat="44.77788" lon="6.35888">
        <ele>2616</ele>
        <time>2021-07-07T09:39:11Z</time>
      </trkpt>
      <trkpt lat="44.77771" lon="6.35882">
        <ele>2621</ele>
        <time>2021-07-07T09:39:02Z</time>
      </trkpt>
      <trkpt lat="44.77713" lon="6.35912">
        <ele>2632</ele>
        <time>2021-07-07T09:38:31Z</time>
      </trkpt>
      <trkpt lat="44.77699" lon="6.35935">
        <ele>2630</ele>
        <time>2021-07-07T09:38:21Z</time>
      </trkpt>
      <trkpt lat="44.77683" lon="6.35951">
        <ele>2632</ele>
        <time>2021-07-07T09:38:11Z</time>
      </trkpt>
      <trkpt lat="44.77644" lon="6.35977">
        <ele>2638</ele>
        <time>2021-07-07T09:37:49Z</time>
      </trkpt>
      <trkpt lat="44.77591" lon="6.36009">
        <ele>2650</ele>
        <time>2021-07-07T09:37:20Z</time>
      </trkpt>
      <trkpt lat="44.77569" lon="6.3601">
        <ele>2662</ele>
        <time>2021-07-07T09:37:09Z</time>
      </trkpt>
      <trkpt lat="44.775" lon="6.36073">
        <ele>2689</ele>
        <time>2021-07-07T09:36:28Z</time>
      </trkpt>
      <trkpt lat="44.7749" lon="6.36096">
        <ele>2690</ele>
        <time>2021-07-07T09:36:19Z</time>
      </trkpt>
      <trkpt lat="44.77482" lon="6.36141">
        <ele>2691</ele>
        <time>2021-07-07T09:36:02Z</time>
      </trkpt>
      <trkpt lat="44.77468" lon="6.36103">
        <ele>2702</ele>
        <time>2021-07-07T09:35:47Z</time>
      </trkpt>
      <trkpt lat="44.77456" lon="6.36137">
        <ele>2708</ele>
        <time>2021-07-07T09:35:33Z</time>
      </trkpt>
      <trkpt lat="44.77447" lon="6.36114">
        <ele>2714</ele>
        <time>2021-07-07T09:35:24Z</time>
      </trkpt>
      <trkpt lat="44.77409" lon="6.3597">
        <ele>2747</ele>
        <time>2021-07-07T09:34:30Z</time>
      </trkpt>
      <trkpt lat="44.77399" lon="6.35895">
        <ele>2758</ele>
        <time>2021-07-07T09:34:02Z</time>
      </trkpt>
      <trkpt lat="44.77378" lon="6.35851">
        <ele>2759</ele>
        <time>2021-07-07T09:33:44Z</time>
      </trkpt>
      <trkpt lat="44.7734" lon="6.35807">
        <ele>2753</ele>
        <time>2021-07-07T09:33:19Z</time>
      </trkpt>
      <trkpt lat="44.77313" lon="6.35785">
        <ele>2745</ele>
        <time>2021-07-07T09:33:03Z</time>
      </trkpt>
      <trkpt lat="44.77295" lon="6.35775">
        <ele>2737</ele>
        <time>2021-07-07T09:32:54Z</time>
      </trkpt>
      <trkpt lat="44.77288" lon="6.35757">
        <ele>2739</ele>
        <time>2021-07-07T09:32:46Z</time>
      </trkpt>
      <trkpt lat="44.77286" lon="6.35742">
        <ele>2743</ele>
        <time>2021-07-07T09:32:41Z</time>
      </trkpt>
      <trkpt lat="44.7729" lon="6.35717">
        <ele>2757</ele>
        <time>2021-07-07T09:32:32Z</time>
      </trkpt>
      <trkpt lat="44.77279" lon="6.3573">
        <ele>2745</ele>
        <time>2021-07-07T09:32:25Z</time>
      </trkpt>
      <trkpt lat="44.77265" lon="6.35726">
        <ele>2739</ele>
        <time>2021-07-07T09:32:18Z</time>
      </trkpt>
      <trkpt lat="44.77257" lon="6.35716">
        <ele>2740</ele>
        <time>2021-07-07T09:32:12Z</time>
      </trkpt>
      <trkpt lat="44.77254" lon="6.35704">
        <ele>2744</ele>
        <time>2021-07-07T09:32:08Z</time>
      </trkpt>
      <trkpt lat="44.77238" lon="6.3571">
        <ele>2733</ele>
        <time>2021-07-07T09:31:59Z</time>
      </trkpt>
      <trkpt lat="44.77224" lon="6.35707">
        <ele>2729</ele>
        <time>2021-07-07T09:31:52Z</time>
      </trkpt>
      <trkpt lat="44.77205" lon="6.35683">
        <ele>2733</ele>
        <time>2021-07-07T09:31:40Z</time>
      </trkpt>
      <trkpt lat="44.77179" lon="6.35688">
        <ele>2719</ele>
        <time>2021-07-07T09:31:26Z</time>
      </trkpt>
      <trkpt lat="44.77163" lon="6.35676">
        <ele>2719</ele>
        <time>2021-07-07T09:31:17Z</time>
      </trkpt>
      <trkpt lat="44.77148" lon="6.35672">
        <ele>2715</ele>
        <time>2021-07-07T09:31:10Z</time>
      </trkpt>
      <trkpt lat="44.77121" lon="6.35641">
        <ele>2724</ele>
        <time>2021-07-07T09:30:52Z</time>
      </trkpt>
      <trkpt lat="44.77108" lon="6.3562">
        <ele>2732</ele>
        <time>2021-07-07T09:30:42Z</time>
      </trkpt>
      <trkpt lat="44.77029" lon="6.35604">
        <ele>2719</ele>
        <time>2021-07-07T09:30:02Z</time>
      </trkpt>
      <trkpt lat="44.77013" lon="6.35593">
        <ele>2723</ele>
        <time>2021-07-07T09:29:54Z</time>
      </trkpt>
      <trkpt lat="44.76982" lon="6.35564">
        <ele>2727</ele>
        <time>2021-07-07T09:29:35Z</time>
      </trkpt>
      <trkpt lat="44.76973" lon="6.35552">
        <ele>2728</ele>
        <time>2021-07-07T09:29:29Z</time>
      </trkpt>
      <trkpt lat="44.76967" lon="6.35533">
        <ele>2733</ele>
        <time>2021-07-07T09:29:21Z</time>
      </trkpt>
      <trkpt lat="44.76896" lon="6.35435">
        <ele>2738</ele>
        <time>2021-07-07T09:28:32Z</time>
      </trkpt>
      <trkpt lat="44.76846" lon="6.35397">
        <ele>2728</ele>
        <time>2021-07-07T09:28:03Z</time>
      </trkpt>
      <trkpt lat="44.76847" lon="6.3531">
        <ele>2730</ele>
        <time>2021-07-07T09:27:32Z</time>
      </trkpt>
      <trkpt lat="44.76844" lon="6.35289">
        <ele>2726</ele>
        <time>2021-07-07T09:27:25Z</time>
      </trkpt>
      <trkpt lat="44.76845" lon="6.35275">
        <ele>2725</ele>
        <time>2021-07-07T09:27:20Z</time>
      </trkpt>
      <trkpt lat="44.76831" lon="6.35299">
        <ele>2719</ele>
        <time>2021-07-07T09:27:09Z</time>
      </trkpt>
      <trkpt lat="44.76831" lon="6.35316">
        <ele>2721</ele>
        <time>2021-07-07T09:27:03Z</time>
      </trkpt>
      <trkpt lat="44.76808" lon="6.35345">
        <ele>2717</ele>
        <time>2021-07-07T09:26:47Z</time>
      </trkpt>
      <trkpt lat="44.76806" lon="6.3534">
        <ele>2715</ele>
        <time>2021-07-07T09:26:45Z</time>
      </trkpt>
      <trkpt lat="44.76809" lon="6.35318">
        <ele>2713</ele>
        <time>2021-07-07T09:26:37Z</time>
      </trkpt>
      <trkpt lat="44.76807" lon="6.35311">
        <ele>2712</ele>
        <time>2021-07-07T09:26:34Z</time>
      </trkpt>
      <trkpt lat="44.76799" lon="6.35304">
        <ele>2707</ele>
        <time>2021-07-07T09:26:30Z</time>
      </trkpt>
      <trkpt lat="44.76796" lon="6.35286">
        <ele>2703</ele>
        <time>2021-07-07T09:26:23Z</time>
      </trkpt>
      <trkpt lat="44.76804" lon="6.35259">
        <ele>2702</ele>
        <time>2021-07-07T09:26:13Z</time>
      </trkpt>
      <trkpt lat="44.76789" lon="6.3519">
        <ele>2690</ele>
        <time>2021-07-07T09:25:47Z</time>
      </trkpt>
      <trkpt lat="44.76787" lon="6.35188">
        <ele>2688</ele>
        <time>2021-07-07T09:25:46Z</time>
      </trkpt>
      <trkpt lat="44.76775" lon="6.35218">
        <ele>2684</ele>
        <time>2021-07-07T09:25:34Z</time>
      </trkpt>
      <trkpt lat="44.76768" lon="6.35248">
        <ele>2683</ele>
        <time>2021-07-07T09:25:22Z</time>
      </trkpt>
      <trkpt lat="44.76752" lon="6.35271">
        <ele>2680</ele>
        <time>2021-07-07T09:25:11Z</time>
      </trkpt>
      <trkpt lat="44.76749" lon="6.35283">
        <ele>2682</ele>
        <time>2021-07-07T09:25:06Z</time>
      </trkpt>
      <trkpt lat="44.76738" lon="6.35294">
        <ele>2682</ele>
        <time>2021-07-07T09:25:00Z</time>
      </trkpt>
      <trkpt lat="44.7673" lon="6.35299">
        <ele>2681</ele>
        <time>2021-07-07T09:24:55Z</time>
      </trkpt>
      <trkpt lat="44.76715" lon="6.35302">
        <ele>2677</ele>
        <time>2021-07-07T09:24:48Z</time>
      </trkpt>
      <trkpt lat="44.76709" lon="6.35302">
        <ele>2675</ele>
        <time>2021-07-07T09:24:45Z</time>
      </trkpt>
      <trkpt lat="44.76703" lon="6.35296">
        <ele>2672</ele>
        <time>2021-07-07T09:24:41Z</time>
      </trkpt>
      <trkpt lat="44.7668" lon="6.35304">
        <ele>2667</ele>
        <time>2021-07-07T09:24:29Z</time>
      </trkpt>
      <trkpt lat="44.76665" lon="6.35304">
        <ele>2663</ele>
        <time>2021-07-07T09:24:22Z</time>
      </trkpt>
      <trkpt lat="44.76667" lon="6.35294">
        <ele>2660</ele>
        <time>2021-07-07T09:24:18Z</time>
      </trkpt>
      <trkpt lat="44.76662" lon="6.3528">
        <ele>2655</ele>
        <time>2021-07-07T09:24:12Z</time>
      </trkpt>
      <trkpt lat="44.76674" lon="6.35255">
        <ele>2652</ele>
        <time>2021-07-07T09:24:02Z</time>
      </trkpt>
      <trkpt lat="44.76681" lon="6.3525">
        <ele>2652</ele>
        <time>2021-07-07T09:23:58Z</time>
      </trkpt>
      <trkpt lat="44.76682" lon="6.35239">
        <ele>2651</ele>
        <time>2021-07-07T09:23:54Z</time>
      </trkpt>
      <trkpt lat="44.76678" lon="6.35219">
        <ele>2647</ele>
        <time>2021-07-07T09:23:46Z</time>
      </trkpt>
      <trkpt lat="44.76678" lon="6.35201">
        <ele>2644</ele>
        <time>2021-07-07T09:23:40Z</time>
      </trkpt>
      <trkpt lat="44.76672" lon="6.3518">
        <ele>2639</ele>
        <time>2021-07-07T09:23:32Z</time>
      </trkpt>
      <trkpt lat="44.76664" lon="6.35201">
        <ele>2640</ele>
        <time>2021-07-07T09:23:24Z</time>
      </trkpt>
      <trkpt lat="44.7666" lon="6.35203">
        <ele>2639</ele>
        <time>2021-07-07T09:23:21Z</time>
      </trkpt>
      <trkpt lat="44.76649" lon="6.35186">
        <ele>2633</ele>
        <time>2021-07-07T09:23:13Z</time>
      </trkpt>
      <trkpt lat="44.76638" lon="6.35181">
        <ele>2629</ele>
        <time>2021-07-07T09:23:08Z</time>
      </trkpt>
      <trkpt lat="44.76637" lon="6.35194">
        <ele>2631</ele>
        <time>2021-07-07T09:23:03Z</time>
      </trkpt>
      <trkpt lat="44.76633" lon="6.35202">
        <ele>2631</ele>
        <time>2021-07-07T09:22:59Z</time>
      </trkpt>
      <trkpt lat="44.76629" lon="6.35204">
        <ele>2630</ele>
        <time>2021-07-07T09:22:57Z</time>
      </trkpt>
      <trkpt lat="44.7662" lon="6.352">
        <ele>2627</ele>
        <time>2021-07-07T09:22:53Z</time>
      </trkpt>
      <trkpt lat="44.76608" lon="6.35176">
        <ele>2619</ele>
        <time>2021-07-07T09:22:42Z</time>
      </trkpt>
      <trkpt lat="44.76598" lon="6.35172">
        <ele>2615</ele>
        <time>2021-07-07T09:22:37Z</time>
      </trkpt>
      <trkpt lat="44.76593" lon="6.35164">
        <ele>2611</ele>
        <time>2021-07-07T09:22:33Z</time>
      </trkpt>
      <trkpt lat="44.76583" lon="6.35162">
        <ele>2607</ele>
        <time>2021-07-07T09:22:28Z</time>
      </trkpt>
      <trkpt lat="44.76578" lon="6.35166">
        <ele>2608</ele>
        <time>2021-07-07T09:22:25Z</time>
      </trkpt>
      <trkpt lat="44.76573" lon="6.35176">
        <ele>2609</ele>
        <time>2021-07-07T09:22:21Z</time>
      </trkpt>
      <trkpt lat="44.76561" lon="6.35185">
        <ele>2609</ele>
        <time>2021-07-07T09:22:14Z</time>
      </trkpt>
      <trkpt lat="44.76545" lon="6.35182">
        <ele>2605</ele>
        <time>2021-07-07T09:22:06Z</time>
      </trkpt>
      <trkpt lat="44.76538" lon="6.35185">
        <ele>2604</ele>
        <time>2021-07-07T09:22:02Z</time>
      </trkpt>
      <trkpt lat="44.76539" lon="6.35175">
        <ele>2602</ele>
        <time>2021-07-07T09:21:59Z</time>
      </trkpt>
      <trkpt lat="44.76545" lon="6.35169">
        <ele>2601</ele>
        <time>2021-07-07T09:21:55Z</time>
      </trkpt>
      <trkpt lat="44.76542" lon="6.35166">
        <ele>2600</ele>
        <time>2021-07-07T09:21:53Z</time>
      </trkpt>
      <trkpt lat="44.76534" lon="6.35165">
        <ele>2598</ele>
        <time>2021-07-07T09:21:49Z</time>
      </trkpt>
      <trkpt lat="44.76532" lon="6.3516">
        <ele>2595</ele>
        <time>2021-07-07T09:21:47Z</time>
      </trkpt>
      <trkpt lat="44.76543" lon="6.35153">
        <ele>2595</ele>
        <time>2021-07-07T09:21:41Z</time>
      </trkpt>
      <trkpt lat="44.76545" lon="6.35141">
        <ele>2591</ele>
        <time>2021-07-07T09:21:37Z</time>
      </trkpt>
      <trkpt lat="44.76538" lon="6.35137">
        <ele>2588</ele>
        <time>2021-07-07T09:21:33Z</time>
      </trkpt>
      <trkpt lat="44.76527" lon="6.35138">
        <ele>2586</ele>
        <time>2021-07-07T09:21:27Z</time>
      </trkpt>
      <trkpt lat="44.7653" lon="6.35132">
        <ele>2584</ele>
        <time>2021-07-07T09:21:25Z</time>
      </trkpt>
      <trkpt lat="44.76537" lon="6.35129">
        <ele>2584</ele>
        <time>2021-07-07T09:21:21Z</time>
      </trkpt>
      <trkpt lat="44.7654" lon="6.35123">
        <ele>2583</ele>
        <time>2021-07-07T09:21:19Z</time>
      </trkpt>
      <trkpt lat="44.76535" lon="6.3512">
        <ele>2581</ele>
        <time>2021-07-07T09:21:16Z</time>
      </trkpt>
      <trkpt lat="44.76518" lon="6.35125">
        <ele>2579</ele>
        <time>2021-07-07T09:21:07Z</time>
      </trkpt>
      <trkpt lat="44.76509" lon="6.35123">
        <ele>2576</ele>
        <time>2021-07-07T09:21:03Z</time>
      </trkpt>
      <trkpt lat="44.76499" lon="6.35117">
        <ele>2571</ele>
        <time>2021-07-07T09:20:57Z</time>
      </trkpt>
      <trkpt lat="44.76499" lon="6.35103">
        <ele>2566</ele>
        <time>2021-07-07T09:20:52Z</time>
      </trkpt>
      <trkpt lat="44.76512" lon="6.35092">
        <ele>2564</ele>
        <time>2021-07-07T09:20:45Z</time>
      </trkpt>
      <trkpt lat="44.76499" lon="6.35086">
        <ele>2559</ele>
        <time>2021-07-07T09:20:38Z</time>
      </trkpt>
      <trkpt lat="44.76497" lon="6.35078">
        <ele>2554</ele>
        <time>2021-07-07T09:20:35Z</time>
      </trkpt>
      <trkpt lat="44.76499" lon="6.35064">
        <ele>2547</ele>
        <time>2021-07-07T09:20:30Z</time>
      </trkpt>
      <trkpt lat="44.7648" lon="6.35056">
        <ele>2539</ele>
        <time>2021-07-07T09:20:20Z</time>
      </trkpt>
      <trkpt lat="44.76471" lon="6.35065">
        <ele>2542</ele>
        <time>2021-07-07T09:20:14Z</time>
      </trkpt>
      <trkpt lat="44.76465" lon="6.35067">
        <ele>2542</ele>
        <time>2021-07-07T09:20:11Z</time>
      </trkpt>
      <trkpt lat="44.76463" lon="6.35064">
        <ele>2540</ele>
        <time>2021-07-07T09:20:10Z</time>
      </trkpt>
      <trkpt lat="44.76473" lon="6.3503">
        <ele>2522</ele>
        <time>2021-07-07T09:19:57Z</time>
      </trkpt>
      <trkpt lat="44.76486" lon="6.35026">
        <ele>2523</ele>
        <time>2021-07-07T09:19:50Z</time>
      </trkpt>
      <trkpt lat="44.76485" lon="6.35022">
        <ele>2520</ele>
        <time>2021-07-07T09:19:48Z</time>
      </trkpt>
      <trkpt lat="44.76471" lon="6.35015">
        <ele>2513</ele>
        <time>2021-07-07T09:19:41Z</time>
      </trkpt>
      <trkpt lat="44.76469" lon="6.3501">
        <ele>2510</ele>
        <time>2021-07-07T09:19:39Z</time>
      </trkpt>
      <trkpt lat="44.76476" lon="6.35007">
        <ele>2510</ele>
        <time>2021-07-07T09:19:35Z</time>
      </trkpt>
      <trkpt lat="44.76469" lon="6.34995">
        <ele>2501</ele>
        <time>2021-07-07T09:19:30Z</time>
      </trkpt>
      <trkpt lat="44.7646" lon="6.34987">
        <ele>2493</ele>
        <time>2021-07-07T09:19:24Z</time>
      </trkpt>
      <trkpt lat="44.76448" lon="6.34981">
        <ele>2486</ele>
        <time>2021-07-07T09:19:18Z</time>
      </trkpt>
      <trkpt lat="44.76455" lon="6.34972">
        <ele>2481</ele>
        <time>2021-07-07T09:19:13Z</time>
      </trkpt>
      <trkpt lat="44.76464" lon="6.34973">
        <ele>2484</ele>
        <time>2021-07-07T09:19:09Z</time>
      </trkpt>
      <trkpt lat="44.76497" lon="6.34981">
        <ele>2498</ele>
        <time>2021-07-07T09:18:52Z</time>
      </trkpt>
      <trkpt lat="44.76503" lon="6.34991">
        <ele>2506</ele>
        <time>2021-07-07T09:18:47Z</time>
      </trkpt>
      <trkpt lat="44.76514" lon="6.34997">
        <ele>2513</ele>
        <time>2021-07-07T09:18:41Z</time>
      </trkpt>
      <trkpt lat="44.76504" lon="6.34984">
        <ele>2502</ele>
        <time>2021-07-07T09:18:35Z</time>
      </trkpt>
      <trkpt lat="44.76501" lon="6.34974">
        <ele>2495</ele>
        <time>2021-07-07T09:18:31Z</time>
      </trkpt>
      <trkpt lat="44.76505" lon="6.34969">
        <ele>2493</ele>
        <time>2021-07-07T09:18:28Z</time>
      </trkpt>
      <trkpt lat="44.76515" lon="6.34965">
        <ele>2493</ele>
        <time>2021-07-07T09:18:23Z</time>
      </trkpt>
      <trkpt lat="44.76515" lon="6.34963">
        <ele>2492</ele>
        <time>2021-07-07T09:18:22Z</time>
      </trkpt>
      <trkpt lat="44.76497" lon="6.34959">
        <ele>2484</ele>
        <time>2021-07-07T09:18:13Z</time>
      </trkpt>
      <trkpt lat="44.76501" lon="6.34954">
        <ele>2482</ele>
        <time>2021-07-07T09:18:10Z</time>
      </trkpt>
      <trkpt lat="44.76517" lon="6.34947">
        <ele>2482</ele>
        <time>2021-07-07T09:18:02Z</time>
      </trkpt>
      <trkpt lat="44.76506" lon="6.34941">
        <ele>2475</ele>
        <time>2021-07-07T09:17:56Z</time>
      </trkpt>
      <trkpt lat="44.76486" lon="6.34938">
        <ele>2467</ele>
        <time>2021-07-07T09:17:46Z</time>
      </trkpt>
      <trkpt lat="44.76486" lon="6.34936">
        <ele>2466</ele>
        <time>2021-07-07T09:17:45Z</time>
      </trkpt>
      <trkpt lat="44.76494" lon="6.34927">
        <ele>2463</ele>
        <time>2021-07-07T09:17:40Z</time>
      </trkpt>
      <trkpt lat="44.76516" lon="6.34913">
        <ele>2462</ele>
        <time>2021-07-07T09:17:28Z</time>
      </trkpt>
      <trkpt lat="44.7651" lon="6.34907">
        <ele>2457</ele>
        <time>2021-07-07T09:17:24Z</time>
      </trkpt>
      <trkpt lat="44.76493" lon="6.34899">
        <ele>2448</ele>
        <time>2021-07-07T09:17:15Z</time>
      </trkpt>
      <trkpt lat="44.76475" lon="6.34897">
        <ele>2441</ele>
        <time>2021-07-07T09:17:06Z</time>
      </trkpt>
      <trkpt lat="44.76476" lon="6.34892">
        <ele>2439</ele>
        <time>2021-07-07T09:17:05Z</time>
      </trkpt>
      <trkpt lat="44.76491" lon="6.34874">
        <ele>2437</ele>
        <time>2021-07-07T09:16:55Z</time>
      </trkpt>
      <trkpt lat="44.7648" lon="6.34872">
        <ele>2432</ele>
        <time>2021-07-07T09:16:49Z</time>
      </trkpt>
      <trkpt lat="44.76456" lon="6.34875">
        <ele>2424</ele>
        <time>2021-07-07T09:16:37Z</time>
      </trkpt>
      <trkpt lat="44.76487" lon="6.34839">
        <ele>2421</ele>
        <time>2021-07-07T09:16:17Z</time>
      </trkpt>
      <trkpt lat="44.76485" lon="6.34836">
        <ele>2419</ele>
        <time>2021-07-07T09:16:16Z</time>
      </trkpt>
      <trkpt lat="44.7644" lon="6.34841">
        <ele>2403</ele>
        <time>2021-07-07T09:15:53Z</time>
      </trkpt>
      <trkpt lat="44.76437" lon="6.34843">
        <ele>2403</ele>
        <time>2021-07-07T09:15:51Z</time>
      </trkpt>
      <trkpt lat="44.7646" lon="6.34804">
        <ele>2397</ele>
        <time>2021-07-07T09:15:33Z</time>
      </trkpt>
      <trkpt lat="44.7646" lon="6.348">
        <ele>2396</ele>
        <time>2021-07-07T09:15:32Z</time>
      </trkpt>
      <trkpt lat="44.76455" lon="6.34798">
        <ele>2393</ele>
        <time>2021-07-07T09:15:29Z</time>
      </trkpt>
      <trkpt lat="44.76429" lon="6.34812">
        <ele>2387</ele>
        <time>2021-07-07T09:15:15Z</time>
      </trkpt>
      <trkpt lat="44.76442" lon="6.34782">
        <ele>2382</ele>
        <time>2021-07-07T09:15:03Z</time>
      </trkpt>
      <trkpt lat="44.7642" lon="6.34794">
        <ele>2377</ele>
        <time>2021-07-07T09:14:51Z</time>
      </trkpt>
      <trkpt lat="44.76419" lon="6.34791">
        <ele>2376</ele>
        <time>2021-07-07T09:14:50Z</time>
      </trkpt>
      <trkpt lat="44.76428" lon="6.34773">
        <ele>2373</ele>
        <time>2021-07-07T09:14:42Z</time>
      </trkpt>
      <trkpt lat="44.76414" lon="6.34782">
        <ele>2370</ele>
        <time>2021-07-07T09:14:34Z</time>
      </trkpt>
      <trkpt lat="44.76419" lon="6.34763">
        <ele>2366</ele>
        <time>2021-07-07T09:14:27Z</time>
      </trkpt>
      <trkpt lat="44.76407" lon="6.34772">
        <ele>2364</ele>
        <time>2021-07-07T09:14:20Z</time>
      </trkpt>
      <trkpt lat="44.76412" lon="6.34754">
        <ele>2359</ele>
        <time>2021-07-07T09:14:13Z</time>
      </trkpt>
      <trkpt lat="44.76402" lon="6.34765">
        <ele>2359</ele>
        <time>2021-07-07T09:14:07Z</time>
      </trkpt>
      <trkpt lat="44.76403" lon="6.34748">
        <ele>2354</ele>
        <time>2021-07-07T09:14:01Z</time>
      </trkpt>
      <trkpt lat="44.764" lon="6.34749">
        <ele>2353</ele>
        <time>2021-07-07T09:14:00Z</time>
      </trkpt>
      <trkpt lat="44.76395" lon="6.34757">
        <ele>2353</ele>
        <time>2021-07-07T09:13:56Z</time>
      </trkpt>
      <trkpt lat="44.76392" lon="6.34742">
        <ele>2347</ele>
        <time>2021-07-07T09:13:50Z</time>
      </trkpt>
      <trkpt lat="44.7639" lon="6.34751">
        <ele>2349</ele>
        <time>2021-07-07T09:13:47Z</time>
      </trkpt>
      <trkpt lat="44.76389" lon="6.3474">
        <ele>2345</ele>
        <time>2021-07-07T09:13:43Z</time>
      </trkpt>
      <trkpt lat="44.76384" lon="6.34744">
        <ele>2344</ele>
        <time>2021-07-07T09:13:40Z</time>
      </trkpt>
      <trkpt lat="44.76383" lon="6.34742">
        <ele>2343</ele>
        <time>2021-07-07T09:13:39Z</time>
      </trkpt>
      <trkpt lat="44.76384" lon="6.34731">
        <ele>2339</ele>
        <time>2021-07-07T09:13:35Z</time>
      </trkpt>
      <trkpt lat="44.76382" lon="6.3473">
        <ele>2338</ele>
        <time>2021-07-07T09:13:34Z</time>
      </trkpt>
      <trkpt lat="44.76377" lon="6.34735">
        <ele>2338</ele>
        <time>2021-07-07T09:13:31Z</time>
      </trkpt>
      <trkpt lat="44.76376" lon="6.34733">
        <ele>2337</ele>
        <time>2021-07-07T09:13:30Z</time>
      </trkpt>
      <trkpt lat="44.7638" lon="6.3472">
        <ele>2334</ele>
        <time>2021-07-07T09:13:25Z</time>
      </trkpt>
      <trkpt lat="44.76369" lon="6.34726">
        <ele>2331</ele>
        <time>2021-07-07T09:13:19Z</time>
      </trkpt>
      <trkpt lat="44.76369" lon="6.34715">
        <ele>2327</ele>
        <time>2021-07-07T09:13:15Z</time>
      </trkpt>
      <trkpt lat="44.76375" lon="6.34707">
        <ele>2327</ele>
        <time>2021-07-07T09:13:11Z</time>
      </trkpt>
      <trkpt lat="44.76363" lon="6.3471">
        <ele>2322</ele>
        <time>2021-07-07T09:13:05Z</time>
      </trkpt>
      <trkpt lat="44.76361" lon="6.34715">
        <ele>2323</ele>
        <time>2021-07-07T09:13:03Z</time>
      </trkpt>
      <trkpt lat="44.76359" lon="6.34713">
        <ele>2322</ele>
        <time>2021-07-07T09:13:02Z</time>
      </trkpt>
      <trkpt lat="44.76368" lon="6.34686">
        <ele>2316</ele>
        <time>2021-07-07T09:12:51Z</time>
      </trkpt>
      <trkpt lat="44.7636" lon="6.34689">
        <ele>2313</ele>
        <time>2021-07-07T09:12:47Z</time>
      </trkpt>
      <trkpt lat="44.76358" lon="6.34686">
        <ele>2311</ele>
        <time>2021-07-07T09:12:46Z</time>
      </trkpt>
      <trkpt lat="44.76365" lon="6.34676">
        <ele>2311</ele>
        <time>2021-07-07T09:12:41Z</time>
      </trkpt>
      <trkpt lat="44.76357" lon="6.3468">
        <ele>2308</ele>
        <time>2021-07-07T09:12:36Z</time>
      </trkpt>
      <trkpt lat="44.76352" lon="6.34686">
        <ele>2308</ele>
        <time>2021-07-07T09:12:33Z</time>
      </trkpt>
      <trkpt lat="44.76345" lon="6.34688">
        <ele>2306</ele>
        <time>2021-07-07T09:12:30Z</time>
      </trkpt>
      <trkpt lat="44.76339" lon="6.34698">
        <ele>2307</ele>
        <time>2021-07-07T09:12:25Z</time>
      </trkpt>
      <trkpt lat="44.76334" lon="6.34715">
        <ele>2311</ele>
        <time>2021-07-07T09:12:18Z</time>
      </trkpt>
      <trkpt lat="44.76328" lon="6.34718">
        <ele>2310</ele>
        <time>2021-07-07T09:12:15Z</time>
      </trkpt>
      <trkpt lat="44.76324" lon="6.34717">
        <ele>2308</ele>
        <time>2021-07-07T09:12:13Z</time>
      </trkpt>
      <trkpt lat="44.7632" lon="6.34708">
        <ele>2303</ele>
        <time>2021-07-07T09:12:09Z</time>
      </trkpt>
      <trkpt lat="44.76315" lon="6.34687">
        <ele>2292</ele>
        <time>2021-07-07T09:12:02Z</time>
      </trkpt>
      <trkpt lat="44.76312" lon="6.34688">
        <ele>2291</ele>
        <time>2021-07-07T09:12:00Z</time>
      </trkpt>
      <trkpt lat="44.76296" lon="6.34715">
        <ele>2296</ele>
        <time>2021-07-07T09:11:48Z</time>
      </trkpt>
      <trkpt lat="44.76292" lon="6.34736">
        <ele>2303</ele>
        <time>2021-07-07T09:11:40Z</time>
      </trkpt>
      <trkpt lat="44.76261" lon="6.34715">
        <ele>2281</ele>
        <time>2021-07-07T09:11:23Z</time>
      </trkpt>
      <trkpt lat="44.76253" lon="6.34713">
        <ele>2277</ele>
        <time>2021-07-07T09:11:18Z</time>
      </trkpt>
      <trkpt lat="44.76233" lon="6.34718">
        <ele>2276</ele>
        <time>2021-07-07T09:11:08Z</time>
      </trkpt>
      <trkpt lat="44.76223" lon="6.34713">
        <ele>2272</ele>
        <time>2021-07-07T09:11:03Z</time>
      </trkpt>
      <trkpt lat="44.76209" lon="6.34685">
        <ele>2258</ele>
        <time>2021-07-07T09:10:51Z</time>
      </trkpt>
      <trkpt lat="44.762" lon="6.34679">
        <ele>2254</ele>
        <time>2021-07-07T09:10:46Z</time>
      </trkpt>
      <trkpt lat="44.76198" lon="6.34674">
        <ele>2252</ele>
        <time>2021-07-07T09:10:44Z</time>
      </trkpt>
      <trkpt lat="44.76183" lon="6.3467">
        <ele>2248</ele>
        <time>2021-07-07T09:10:36Z</time>
      </trkpt>
      <trkpt lat="44.76169" lon="6.34673">
        <ele>2247</ele>
        <time>2021-07-07T09:10:29Z</time>
      </trkpt>
      <trkpt lat="44.7616" lon="6.34672">
        <ele>2248</ele>
        <time>2021-07-07T09:10:25Z</time>
      </trkpt>
      <trkpt lat="44.76157" lon="6.34662">
        <ele>2244</ele>
        <time>2021-07-07T09:10:21Z</time>
      </trkpt>
      <trkpt lat="44.76158" lon="6.34646">
        <ele>2238</ele>
        <time>2021-07-07T09:10:15Z</time>
      </trkpt>
      <trkpt lat="44.7615" lon="6.34634">
        <ele>2235</ele>
        <time>2021-07-07T09:10:09Z</time>
      </trkpt>
      <trkpt lat="44.76143" lon="6.3463">
        <ele>2235</ele>
        <time>2021-07-07T09:10:05Z</time>
      </trkpt>
      <trkpt lat="44.76144" lon="6.34626">
        <ele>2233</ele>
        <time>2021-07-07T09:10:04Z</time>
      </trkpt>
      <trkpt lat="44.76152" lon="6.3462">
        <ele>2230</ele>
        <time>2021-07-07T09:09:59Z</time>
      </trkpt>
      <trkpt lat="44.76172" lon="6.34616">
        <ele>2227</ele>
        <time>2021-07-07T09:09:49Z</time>
      </trkpt>
      <trkpt lat="44.7617" lon="6.34611">
        <ele>2226</ele>
        <time>2021-07-07T09:09:47Z</time>
      </trkpt>
      <trkpt lat="44.7614" lon="6.34593">
        <ele>2221</ele>
        <time>2021-07-07T09:09:31Z</time>
      </trkpt>
      <trkpt lat="44.76137" lon="6.34587">
        <ele>2219</ele>
        <time>2021-07-07T09:09:28Z</time>
      </trkpt>
      <trkpt lat="44.76187" lon="6.34564">
        <ele>2210</ele>
        <time>2021-07-07T09:09:02Z</time>
      </trkpt>
      <trkpt lat="44.76185" lon="6.34559">
        <ele>2208</ele>
        <time>2021-07-07T09:09:00Z</time>
      </trkpt>
      <trkpt lat="44.76173" lon="6.34548">
        <ele>2205</ele>
        <time>2021-07-07T09:08:53Z</time>
      </trkpt>
      <trkpt lat="44.76131" lon="6.34531">
        <ele>2199</ele>
        <time>2021-07-07T09:08:31Z</time>
      </trkpt>
      <trkpt lat="44.76131" lon="6.34526">
        <ele>2197</ele>
        <time>2021-07-07T09:08:29Z</time>
      </trkpt>
      <trkpt lat="44.76165" lon="6.345">
        <ele>2190</ele>
        <time>2021-07-07T09:08:10Z</time>
      </trkpt>
      <trkpt lat="44.7621" lon="6.34476">
        <ele>2177</ele>
        <time>2021-07-07T09:07:46Z</time>
      </trkpt>
      <trkpt lat="44.76186" lon="6.34427">
        <ele>2162</ele>
        <time>2021-07-07T09:07:25Z</time>
      </trkpt>
      <trkpt lat="44.7614" lon="6.34399">
        <ele>2155</ele>
        <time>2021-07-07T09:06:59Z</time>
      </trkpt>
      <trkpt lat="44.76159" lon="6.34386">
        <ele>2151</ele>
        <time>2021-07-07T09:06:49Z</time>
      </trkpt>
      <trkpt lat="44.76158" lon="6.34383">
        <ele>2150</ele>
        <time>2021-07-07T09:06:48Z</time>
      </trkpt>
      <trkpt lat="44.76142" lon="6.34374">
        <ele>2147</ele>
        <time>2021-07-07T09:06:39Z</time>
      </trkpt>
      <trkpt lat="44.76126" lon="6.34351">
        <ele>2140</ele>
        <time>2021-07-07T09:06:28Z</time>
      </trkpt>
      <trkpt lat="44.76114" lon="6.34344">
        <ele>2137</ele>
        <time>2021-07-07T09:06:21Z</time>
      </trkpt>
      <trkpt lat="44.76101" lon="6.34324">
        <ele>2130</ele>
        <time>2021-07-07T09:06:11Z</time>
      </trkpt>
      <trkpt lat="44.76101" lon="6.34309">
        <ele>2126</ele>
        <time>2021-07-07T09:06:06Z</time>
      </trkpt>
      <trkpt lat="44.76108" lon="6.34303">
        <ele>2124</ele>
        <time>2021-07-07T09:06:02Z</time>
      </trkpt>
      <trkpt lat="44.7611" lon="6.34296">
        <ele>2123</ele>
        <time>2021-07-07T09:05:59Z</time>
      </trkpt>
      <trkpt lat="44.76107" lon="6.34293">
        <ele>2121</ele>
        <time>2021-07-07T09:05:58Z</time>
      </trkpt>
      <trkpt lat="44.76093" lon="6.34293">
        <ele>2121</ele>
        <time>2021-07-07T09:05:51Z</time>
      </trkpt>
      <trkpt lat="44.76075" lon="6.343">
        <ele>2121</ele>
        <time>2021-07-07T09:05:41Z</time>
      </trkpt>
      <trkpt lat="44.76051" lon="6.34304">
        <ele>2121</ele>
        <time>2021-07-07T09:05:29Z</time>
      </trkpt>
      <trkpt lat="44.76012" lon="6.34279">
        <ele>2113</ele>
        <time>2021-07-07T09:05:08Z</time>
      </trkpt>
      <trkpt lat="44.76009" lon="6.34274">
        <ele>2112</ele>
        <time>2021-07-07T09:05:05Z</time>
      </trkpt>
      <trkpt lat="44.76031" lon="6.34231">
        <ele>2103</ele>
        <time>2021-07-07T09:04:46Z</time>
      </trkpt>
      <trkpt lat="44.76031" lon="6.34209">
        <ele>2099</ele>
        <time>2021-07-07T09:04:39Z</time>
      </trkpt>
      <trkpt lat="44.76054" lon="6.34207">
        <ele>2098</ele>
        <time>2021-07-07T09:04:27Z</time>
      </trkpt>
      <trkpt lat="44.76075" lon="6.34194">
        <ele>2095</ele>
        <time>2021-07-07T09:04:16Z</time>
      </trkpt>
      <trkpt lat="44.76083" lon="6.34184">
        <ele>2092</ele>
        <time>2021-07-07T09:04:10Z</time>
      </trkpt>
      <trkpt lat="44.76092" lon="6.34158">
        <ele>2087</ele>
        <time>2021-07-07T09:04:00Z</time>
      </trkpt>
      <trkpt lat="44.76098" lon="6.34149">
        <ele>2086</ele>
        <time>2021-07-07T09:03:56Z</time>
      </trkpt>
      <trkpt lat="44.76131" lon="6.34118">
        <ele>2082</ele>
        <time>2021-07-07T09:03:36Z</time>
      </trkpt>
      <trkpt lat="44.76141" lon="6.34112">
        <ele>2082</ele>
        <time>2021-07-07T09:03:30Z</time>
      </trkpt>
      <trkpt lat="44.76144" lon="6.34102">
        <ele>2080</ele>
        <time>2021-07-07T09:03:26Z</time>
      </trkpt>
      <trkpt lat="44.76192" lon="6.34072">
        <ele>2073</ele>
        <time>2021-07-07T09:03:00Z</time>
      </trkpt>
      <trkpt lat="44.76198" lon="6.34057">
        <ele>2069</ele>
        <time>2021-07-07T09:02:54Z</time>
      </trkpt>
      <trkpt lat="44.76196" lon="6.34052">
        <ele>2067</ele>
        <time>2021-07-07T09:02:52Z</time>
      </trkpt>
      <trkpt lat="44.762" lon="6.34033">
        <ele>2062</ele>
        <time>2021-07-07T09:02:45Z</time>
      </trkpt>
      <trkpt lat="44.76213" lon="6.34029">
        <ele>2060</ele>
        <time>2021-07-07T09:02:38Z</time>
      </trkpt>
      <trkpt lat="44.76235" lon="6.34032">
        <ele>2061</ele>
        <time>2021-07-07T09:02:27Z</time>
      </trkpt>
      <trkpt lat="44.76252" lon="6.34024">
        <ele>2058</ele>
        <time>2021-07-07T09:02:18Z</time>
      </trkpt>
      <trkpt lat="44.76253" lon="6.34007">
        <ele>2053</ele>
        <time>2021-07-07T09:02:12Z</time>
      </trkpt>
      <trkpt lat="44.76255" lon="6.34005">
        <ele>2053</ele>
        <time>2021-07-07T09:02:11Z</time>
      </trkpt>
      <trkpt lat="44.76259" lon="6.34006">
        <ele>2052</ele>
        <time>2021-07-07T09:02:09Z</time>
      </trkpt>
      <trkpt lat="44.76263" lon="6.34014">
        <ele>2054</ele>
        <time>2021-07-07T09:02:06Z</time>
      </trkpt>
      <trkpt lat="44.7627" lon="6.34019">
        <ele>2054</ele>
        <time>2021-07-07T09:02:02Z</time>
      </trkpt>
      <trkpt lat="44.76282" lon="6.3401">
        <ele>2050</ele>
        <time>2021-07-07T09:01:55Z</time>
      </trkpt>
      <trkpt lat="44.76286" lon="6.34022">
        <ele>2052</ele>
        <time>2021-07-07T09:01:50Z</time>
      </trkpt>
      <trkpt lat="44.76302" lon="6.34023">
        <ele>2050</ele>
        <time>2021-07-07T09:01:42Z</time>
      </trkpt>
      <trkpt lat="44.76322" lon="6.34019">
        <ele>2046</ele>
        <time>2021-07-07T09:01:32Z</time>
      </trkpt>
      <trkpt lat="44.76322" lon="6.34016">
        <ele>2045</ele>
        <time>2021-07-07T09:01:31Z</time>
      </trkpt>
      <trkpt lat="44.76312" lon="6.34008">
        <ele>2045</ele>
        <time>2021-07-07T09:01:25Z</time>
      </trkpt>
      <trkpt lat="44.76304" lon="6.33983">
        <ele>2040</ele>
        <time>2021-07-07T09:01:15Z</time>
      </trkpt>
      <trkpt lat="44.76315" lon="6.3398">
        <ele>2037</ele>
        <time>2021-07-07T09:01:10Z</time>
      </trkpt>
      <trkpt lat="44.76324" lon="6.33963">
        <ele>2032</ele>
        <time>2021-07-07T09:01:02Z</time>
      </trkpt>
      <trkpt lat="44.76333" lon="6.33957">
        <ele>2030</ele>
        <time>2021-07-07T09:00:57Z</time>
      </trkpt>
      <trkpt lat="44.76331" lon="6.33949">
        <ele>2028</ele>
        <time>2021-07-07T09:00:54Z</time>
      </trkpt>
      <trkpt lat="44.76325" lon="6.33942">
        <ele>2027</ele>
        <time>2021-07-07T09:00:50Z</time>
      </trkpt>
      <trkpt lat="44.76318" lon="6.33912">
        <ele>2020</ele>
        <time>2021-07-07T09:00:39Z</time>
      </trkpt>
      <trkpt lat="44.76325" lon="6.33909">
        <ele>2019</ele>
        <time>2021-07-07T09:00:35Z</time>
      </trkpt>
      <trkpt lat="44.76334" lon="6.339">
        <ele>2016</ele>
        <time>2021-07-07T09:00:30Z</time>
      </trkpt>
      <trkpt lat="44.76336" lon="6.33894">
        <ele>2015</ele>
        <time>2021-07-07T09:00:28Z</time>
      </trkpt>
      <trkpt lat="44.76326" lon="6.33889">
        <ele>2014</ele>
        <time>2021-07-07T09:00:22Z</time>
      </trkpt>
      <trkpt lat="44.76322" lon="6.33882">
        <ele>2013</ele>
        <time>2021-07-07T09:00:19Z</time>
      </trkpt>
      <trkpt lat="44.76324" lon="6.33868">
        <ele>2009</ele>
        <time>2021-07-07T09:00:14Z</time>
      </trkpt>
      <trkpt lat="44.76341" lon="6.33845">
        <ele>2002</ele>
        <time>2021-07-07T09:00:02Z</time>
      </trkpt>
      <trkpt lat="44.76342" lon="6.33839">
        <ele>2001</ele>
        <time>2021-07-07T09:00:00Z</time>
      </trkpt>
      <trkpt lat="44.76339" lon="6.33832">
        <ele>1999</ele>
        <time>2021-07-07T08:59:57Z</time>
      </trkpt>
      <trkpt lat="44.76349" lon="6.33828">
        <ele>1997</ele>
        <time>2021-07-07T08:59:52Z</time>
      </trkpt>
      <trkpt lat="44.76351" lon="6.33823">
        <ele>1995</ele>
        <time>2021-07-07T08:59:50Z</time>
      </trkpt>
      <trkpt lat="44.76346" lon="6.33815">
        <ele>1994</ele>
        <time>2021-07-07T08:59:46Z</time>
      </trkpt>
      <trkpt lat="44.76346" lon="6.33805">
        <ele>1991</ele>
        <time>2021-07-07T08:59:43Z</time>
      </trkpt>
      <trkpt lat="44.76351" lon="6.33805">
        <ele>1991</ele>
        <time>2021-07-07T08:59:40Z</time>
      </trkpt>
      <trkpt lat="44.76352" lon="6.33802">
        <ele>1990</ele>
        <time>2021-07-07T08:59:39Z</time>
      </trkpt>
      <trkpt lat="44.76348" lon="6.33795">
        <ele>1988</ele>
        <time>2021-07-07T08:59:36Z</time>
      </trkpt>
      <trkpt lat="44.76349" lon="6.33789">
        <ele>1986</ele>
        <time>2021-07-07T08:59:33Z</time>
      </trkpt>
      <trkpt lat="44.76355" lon="6.33785">
        <ele>1985</ele>
        <time>2021-07-07T08:59:30Z</time>
      </trkpt>
      <trkpt lat="44.76348" lon="6.33772">
        <ele>1982</ele>
        <time>2021-07-07T08:59:24Z</time>
      </trkpt>
      <trkpt lat="44.76348" lon="6.33754">
        <ele>1977</ele>
        <time>2021-07-07T08:59:18Z</time>
      </trkpt>
      <trkpt lat="44.76352" lon="6.33747">
        <ele>1975</ele>
        <time>2021-07-07T08:59:15Z</time>
      </trkpt>
      <trkpt lat="44.76352" lon="6.33737">
        <ele>1974</ele>
        <time>2021-07-07T08:59:11Z</time>
      </trkpt>
      <trkpt lat="44.76358" lon="6.33731">
        <ele>1973</ele>
        <time>2021-07-07T08:59:08Z</time>
      </trkpt>
      <trkpt lat="44.76357" lon="6.3372">
        <ele>1971</ele>
        <time>2021-07-07T08:59:04Z</time>
      </trkpt>
      <trkpt lat="44.76348" lon="6.33723">
        <ele>1972</ele>
        <time>2021-07-07T08:58:59Z</time>
      </trkpt>
      <trkpt lat="44.76334" lon="6.33719">
        <ele>1972</ele>
        <time>2021-07-07T08:58:52Z</time>
      </trkpt>
      <trkpt lat="44.76318" lon="6.33725">
        <ele>1979</ele>
        <time>2021-07-07T08:58:44Z</time>
      </trkpt>
      <trkpt lat="44.76314" lon="6.33719">
        <ele>1979</ele>
        <time>2021-07-07T08:58:41Z</time>
      </trkpt>
      <trkpt lat="44.76352" lon="6.33681">
        <ele>1966</ele>
        <time>2021-07-07T08:58:17Z</time>
      </trkpt>
      <trkpt lat="44.76373" lon="6.33664">
        <ele>1961</ele>
        <time>2021-07-07T08:58:05Z</time>
      </trkpt>
      <trkpt lat="44.76368" lon="6.3365">
        <ele>1961</ele>
        <time>2021-07-07T08:58:00Z</time>
      </trkpt>
      <trkpt lat="44.7636" lon="6.33646">
        <ele>1963</ele>
        <time>2021-07-07T08:57:55Z</time>
      </trkpt>
      <trkpt lat="44.76347" lon="6.33648">
        <ele>1965</ele>
        <time>2021-07-07T08:57:49Z</time>
      </trkpt>
      <trkpt lat="44.76338" lon="6.33644">
        <ele>1967</ele>
        <time>2021-07-07T08:57:44Z</time>
      </trkpt>
      <trkpt lat="44.76355" lon="6.3362">
        <ele>1964</ele>
        <time>2021-07-07T08:57:32Z</time>
      </trkpt>
      <trkpt lat="44.76371" lon="6.3361">
        <ele>1960</ele>
        <time>2021-07-07T08:57:23Z</time>
      </trkpt>
      <trkpt lat="44.76395" lon="6.33584">
        <ele>1951</ele>
        <time>2021-07-07T08:57:08Z</time>
      </trkpt>
      <trkpt lat="44.764" lon="6.33573">
        <ele>1949</ele>
        <time>2021-07-07T08:57:03Z</time>
      </trkpt>
      <trkpt lat="44.764" lon="6.33563">
        <ele>1949</ele>
        <time>2021-07-07T08:57:00Z</time>
      </trkpt>
      <trkpt lat="44.76405" lon="6.33551">
        <ele>1946</ele>
        <time>2021-07-07T08:56:55Z</time>
      </trkpt>
      <trkpt lat="44.76404" lon="6.33519">
        <ele>1945</ele>
        <time>2021-07-07T08:56:44Z</time>
      </trkpt>
      <trkpt lat="44.76407" lon="6.33496">
        <ele>1943</ele>
        <time>2021-07-07T08:56:35Z</time>
      </trkpt>
      <trkpt lat="44.76429" lon="6.33435">
        <ele>1929</ele>
        <time>2021-07-07T08:56:11Z</time>
      </trkpt>
      <trkpt lat="44.76437" lon="6.33431">
        <ele>1925</ele>
        <time>2021-07-07T08:56:07Z</time>
      </trkpt>
      <trkpt lat="44.76449" lon="6.33437">
        <ele>1921</ele>
        <time>2021-07-07T08:56:00Z</time>
      </trkpt>
      <trkpt lat="44.7645" lon="6.3343">
        <ele>1919</ele>
        <time>2021-07-07T08:55:58Z</time>
      </trkpt>
      <trkpt lat="44.76443" lon="6.33398">
        <ele>1917</ele>
        <time>2021-07-07T08:55:46Z</time>
      </trkpt>
      <trkpt lat="44.76446" lon="6.33384">
        <ele>1913</ele>
        <time>2021-07-07T08:55:41Z</time>
      </trkpt>
      <trkpt lat="44.7645" lon="6.33377">
        <ele>1910</ele>
        <time>2021-07-07T08:55:38Z</time>
      </trkpt>
      <trkpt lat="44.76455" lon="6.33375">
        <ele>1907</ele>
        <time>2021-07-07T08:55:35Z</time>
      </trkpt>
      <trkpt lat="44.76463" lon="6.33381">
        <ele>1903</ele>
        <time>2021-07-07T08:55:30Z</time>
      </trkpt>
      <trkpt lat="44.76467" lon="6.33378">
        <ele>1901</ele>
        <time>2021-07-07T08:55:28Z</time>
      </trkpt>
      <trkpt lat="44.76455" lon="6.33359">
        <ele>1903</ele>
        <time>2021-07-07T08:55:19Z</time>
      </trkpt>
      <trkpt lat="44.76457" lon="6.33353">
        <ele>1901</ele>
        <time>2021-07-07T08:55:17Z</time>
      </trkpt>
      <trkpt lat="44.76469" lon="6.33364">
        <ele>1896</ele>
        <time>2021-07-07T08:55:10Z</time>
      </trkpt>
      <trkpt lat="44.76474" lon="6.33365">
        <ele>1894</ele>
        <time>2021-07-07T08:55:07Z</time>
      </trkpt>
      <trkpt lat="44.76468" lon="6.33344">
        <ele>1893</ele>
        <time>2021-07-07T08:54:59Z</time>
      </trkpt>
      <trkpt lat="44.76479" lon="6.33354">
        <ele>1888</ele>
        <time>2021-07-07T08:54:52Z</time>
      </trkpt>
      <trkpt lat="44.76482" lon="6.33353">
        <ele>1887</ele>
        <time>2021-07-07T08:54:51Z</time>
      </trkpt>
      <trkpt lat="44.76481" lon="6.33346">
        <ele>1885</ele>
        <time>2021-07-07T08:54:48Z</time>
      </trkpt>
      <trkpt lat="44.76472" lon="6.33329">
        <ele>1886</ele>
        <time>2021-07-07T08:54:41Z</time>
      </trkpt>
      <trkpt lat="44.76472" lon="6.33323">
        <ele>1885</ele>
        <time>2021-07-07T08:54:39Z</time>
      </trkpt>
      <trkpt lat="44.76494" lon="6.3334">
        <ele>1876</ele>
        <time>2021-07-07T08:54:26Z</time>
      </trkpt>
      <trkpt lat="44.76497" lon="6.3334">
        <ele>1875</ele>
        <time>2021-07-07T08:54:25Z</time>
      </trkpt>
      <trkpt lat="44.76491" lon="6.33324">
        <ele>1874</ele>
        <time>2021-07-07T08:54:18Z</time>
      </trkpt>
      <trkpt lat="44.76501" lon="6.33333">
        <ele>1871</ele>
        <time>2021-07-07T08:54:12Z</time>
      </trkpt>
      <trkpt lat="44.76503" lon="6.33332">
        <ele>1870</ele>
        <time>2021-07-07T08:54:11Z</time>
      </trkpt>
      <trkpt lat="44.76487" lon="6.33304">
        <ele>1871</ele>
        <time>2021-07-07T08:53:58Z</time>
      </trkpt>
      <trkpt lat="44.7649" lon="6.33302">
        <ele>1868</ele>
        <time>2021-07-07T08:53:57Z</time>
      </trkpt>
      <trkpt lat="44.76503" lon="6.33314">
        <ele>1866</ele>
        <time>2021-07-07T08:53:49Z</time>
      </trkpt>
      <trkpt lat="44.76495" lon="6.33284">
        <ele>1861</ele>
        <time>2021-07-07T08:53:38Z</time>
      </trkpt>
      <trkpt lat="44.76491" lon="6.33281">
        <ele>1862</ele>
        <time>2021-07-07T08:53:35Z</time>
      </trkpt>
      <trkpt lat="44.76472" lon="6.33246">
        <ele>1861</ele>
        <time>2021-07-07T08:53:20Z</time>
      </trkpt>
      <trkpt lat="44.7646" lon="6.33212">
        <ele>1857</ele>
        <time>2021-07-07T08:53:06Z</time>
      </trkpt>
      <trkpt lat="44.76456" lon="6.33158">
        <ele>1843</ele>
        <time>2021-07-07T08:52:47Z</time>
      </trkpt>
      <trkpt lat="44.76447" lon="6.33119">
        <ele>1836</ele>
        <time>2021-07-07T08:52:32Z</time>
      </trkpt>
      <trkpt lat="44.76447" lon="6.33066">
        <ele>1826</ele>
        <time>2021-07-07T08:52:14Z</time>
      </trkpt>
      <trkpt lat="44.76431" lon="6.3303">
        <ele>1823</ele>
        <time>2021-07-07T08:51:58Z</time>
      </trkpt>
      <trkpt lat="44.76429" lon="6.33018">
        <ele>1822</ele>
        <time>2021-07-07T08:51:54Z</time>
      </trkpt>
      <trkpt lat="44.76431" lon="6.33003">
        <ele>1819</ele>
        <time>2021-07-07T08:51:49Z</time>
      </trkpt>
      <trkpt lat="44.76429" lon="6.3299">
        <ele>1818</ele>
        <time>2021-07-07T08:51:44Z</time>
      </trkpt>
      <trkpt lat="44.76432" lon="6.32974">
        <ele>1816</ele>
        <time>2021-07-07T08:51:38Z</time>
      </trkpt>
      <trkpt lat="44.7643" lon="6.32946">
        <ele>1813</ele>
        <time>2021-07-07T08:51:28Z</time>
      </trkpt>
      <trkpt lat="44.76432" lon="6.32874">
        <ele>1807</ele>
        <time>2021-07-07T08:51:02Z</time>
      </trkpt>
      <trkpt lat="44.76434" lon="6.32868">
        <ele>1807</ele>
        <time>2021-07-07T08:51:00Z</time>
      </trkpt>
      <trkpt lat="44.76439" lon="6.32875">
        <ele>1807</ele>
        <time>2021-07-07T08:50:57Z</time>
      </trkpt>
      <trkpt lat="44.76455" lon="6.32888">
        <ele>1807</ele>
        <time>2021-07-07T08:50:47Z</time>
      </trkpt>
      <trkpt lat="44.76463" lon="6.32889">
        <ele>1807</ele>
        <time>2021-07-07T08:50:43Z</time>
      </trkpt>
      <trkpt lat="44.76469" lon="6.32877">
        <ele>1806</ele>
        <time>2021-07-07T08:50:38Z</time>
      </trkpt>
      <trkpt lat="44.76492" lon="6.32876">
        <ele>1805</ele>
        <time>2021-07-07T08:50:27Z</time>
      </trkpt>
      <trkpt lat="44.76503" lon="6.32869">
        <ele>1805</ele>
        <time>2021-07-07T08:50:21Z</time>
      </trkpt>
      <trkpt lat="44.76519" lon="6.32839">
        <ele>1806</ele>
        <time>2021-07-07T08:50:07Z</time>
      </trkpt>
      <trkpt lat="44.76522" lon="6.32825">
        <ele>1805</ele>
        <time>2021-07-07T08:50:02Z</time>
      </trkpt>
      <trkpt lat="44.76519" lon="6.32767">
        <ele>1802</ele>
        <time>2021-07-07T08:49:41Z</time>
      </trkpt>
      <trkpt lat="44.76527" lon="6.32779">
        <ele>1803</ele>
        <time>2021-07-07T08:49:35Z</time>
      </trkpt>
      <trkpt lat="44.76527" lon="6.32779">
        <ele>1803</ele>
        <time>2021-07-07T08:49:35Z</time>
      </trkpt>
      <trkpt lat="44.76562" lon="6.32798">
        <ele>1808</ele>
        <time>2021-07-07T08:49:17Z</time>
      </trkpt>
      <trkpt lat="44.76646" lon="6.3282">
        <ele>1819</ele>
        <time>2021-07-07T08:48:34Z</time>
      </trkpt>
      <trkpt lat="44.76691" lon="6.32851">
        <ele>1826</ele>
        <time>2021-07-07T08:48:09Z</time>
      </trkpt>
      <trkpt lat="44.767" lon="6.32863">
        <ele>1828</ele>
        <time>2021-07-07T08:48:03Z</time>
      </trkpt>
      <trkpt lat="44.76722" lon="6.32874">
        <ele>1831</ele>
        <time>2021-07-07T08:47:51Z</time>
      </trkpt>
      <trkpt lat="44.76754" lon="6.329">
        <ele>1836</ele>
        <time>2021-07-07T08:47:33Z</time>
      </trkpt>
      <trkpt lat="44.76777" lon="6.32924">
        <ele>1843</ele>
        <time>2021-07-07T08:47:18Z</time>
      </trkpt>
      <trkpt lat="44.76789" lon="6.32928">
        <ele>1847</ele>
        <time>2021-07-07T08:47:12Z</time>
      </trkpt>
      <trkpt lat="44.76833" lon="6.32961">
        <ele>1858</ele>
        <time>2021-07-07T08:46:47Z</time>
      </trkpt>
      <trkpt lat="44.76847" lon="6.32965">
        <ele>1860</ele>
        <time>2021-07-07T08:46:40Z</time>
      </trkpt>
      <trkpt lat="44.76883" lon="6.32959">
        <ele>1866</ele>
        <time>2021-07-07T08:46:22Z</time>
      </trkpt>
      <trkpt lat="44.76925" lon="6.32936">
        <ele>1875</ele>
        <time>2021-07-07T08:45:59Z</time>
      </trkpt>
      <trkpt lat="44.76959" lon="6.32914">
        <ele>1886</ele>
        <time>2021-07-07T08:45:41Z</time>
      </trkpt>
      <trkpt lat="44.76975" lon="6.32908">
        <ele>1894</ele>
        <time>2021-07-07T08:45:32Z</time>
      </trkpt>
      <trkpt lat="44.76991" lon="6.32917">
        <ele>1894</ele>
        <time>2021-07-07T08:45:24Z</time>
      </trkpt>
      <trkpt lat="44.7702" lon="6.32921">
        <ele>1899</ele>
        <time>2021-07-07T08:45:09Z</time>
      </trkpt>
      <trkpt lat="44.77048" lon="6.32915">
        <ele>1905</ele>
        <time>2021-07-07T08:44:55Z</time>
      </trkpt>
      <trkpt lat="44.77069" lon="6.32921">
        <ele>1907</ele>
        <time>2021-07-07T08:44:44Z</time>
      </trkpt>
      <trkpt lat="44.77105" lon="6.32924">
        <ele>1909</ele>
        <time>2021-07-07T08:44:26Z</time>
      </trkpt>
      <trkpt lat="44.77149" lon="6.32909">
        <ele>1914</ele>
        <time>2021-07-07T08:44:03Z</time>
      </trkpt>
      <trkpt lat="44.77162" lon="6.32898">
        <ele>1920</ele>
        <time>2021-07-07T08:43:56Z</time>
      </trkpt>
      <trkpt lat="44.77193" lon="6.32892">
        <ele>1925</ele>
        <time>2021-07-07T08:43:40Z</time>
      </trkpt>
      <trkpt lat="44.77201" lon="6.32895">
        <ele>1924</ele>
        <time>2021-07-07T08:43:36Z</time>
      </trkpt>
      <trkpt lat="44.77231" lon="6.32869">
        <ele>1934</ele>
        <time>2021-07-07T08:43:18Z</time>
      </trkpt>
      <trkpt lat="44.77271" lon="6.32849">
        <ele>1940</ele>
        <time>2021-07-07T08:42:57Z</time>
      </trkpt>
      <trkpt lat="44.77282" lon="6.3284">
        <ele>1942</ele>
        <time>2021-07-07T08:42:51Z</time>
      </trkpt>
      <trkpt lat="44.77327" lon="6.32816">
        <ele>1953</ele>
        <time>2021-07-07T08:42:27Z</time>
      </trkpt>
      <trkpt lat="44.77338" lon="6.32816">
        <ele>1954</ele>
        <time>2021-07-07T08:42:21Z</time>
      </trkpt>
      <trkpt lat="44.77351" lon="6.32807">
        <ele>1959</ele>
        <time>2021-07-07T08:42:14Z</time>
      </trkpt>
      <trkpt lat="44.77369" lon="6.32791">
        <ele>1965</ele>
        <time>2021-07-07T08:42:03Z</time>
      </trkpt>
      <trkpt lat="44.77364" lon="6.32777">
        <ele>1969</ele>
        <time>2021-07-07T08:41:58Z</time>
      </trkpt>
      <trkpt lat="44.77363" lon="6.32756">
        <ele>1975</ele>
        <time>2021-07-07T08:41:50Z</time>
      </trkpt>
      <trkpt lat="44.7738" lon="6.32766">
        <ele>1973</ele>
        <time>2021-07-07T08:41:41Z</time>
      </trkpt>
      <trkpt lat="44.7739" lon="6.32763">
        <ele>1974</ele>
        <time>2021-07-07T08:41:36Z</time>
      </trkpt>
      <trkpt lat="44.77401" lon="6.32764">
        <ele>1974</ele>
        <time>2021-07-07T08:41:30Z</time>
      </trkpt>
      <trkpt lat="44.77411" lon="6.32758">
        <ele>1975</ele>
        <time>2021-07-07T08:41:25Z</time>
      </trkpt>
      <trkpt lat="44.77418" lon="6.32747">
        <ele>1978</ele>
        <time>2021-07-07T08:41:20Z</time>
      </trkpt>
      <trkpt lat="44.77435" lon="6.32745">
        <ele>1983</ele>
        <time>2021-07-07T08:41:11Z</time>
      </trkpt>
      <trkpt lat="44.77436" lon="6.32724">
        <ele>1991</ele>
        <time>2021-07-07T08:41:04Z</time>
      </trkpt>
      <trkpt lat="44.77454" lon="6.32735">
        <ele>1990</ele>
        <time>2021-07-07T08:40:54Z</time>
      </trkpt>
      <trkpt lat="44.77455" lon="6.32728">
        <ele>1993</ele>
        <time>2021-07-07T08:40:51Z</time>
      </trkpt>
      <trkpt lat="44.77467" lon="6.32736">
        <ele>1993</ele>
        <time>2021-07-07T08:40:45Z</time>
      </trkpt>
      <trkpt lat="44.77476" lon="6.32739">
        <ele>1993</ele>
        <time>2021-07-07T08:40:40Z</time>
      </trkpt>
      <trkpt lat="44.77501" lon="6.32765">
        <ele>1993</ele>
        <time>2021-07-07T08:40:25Z</time>
      </trkpt>
      <trkpt lat="44.77557" lon="6.32813">
        <ele>2005</ele>
        <time>2021-07-07T08:39:52Z</time>
      </trkpt>
      <trkpt lat="44.7758" lon="6.32708">
        <ele>2024</ele>
        <time>2021-07-07T08:39:13Z</time>
      </trkpt>
      <trkpt lat="44.77605" lon="6.32731">
        <ele>2026</ele>
        <time>2021-07-07T08:38:58Z</time>
      </trkpt>
      <trkpt lat="44.77626" lon="6.32755">
        <ele>2028</ele>
        <time>2021-07-07T08:38:44Z</time>
      </trkpt>
      <trkpt lat="44.77636" lon="6.32735">
        <ele>2034</ele>
        <time>2021-07-07T08:38:36Z</time>
      </trkpt>
      <trkpt lat="44.77636" lon="6.32697">
        <ele>2041</ele>
        <time>2021-07-07T08:38:22Z</time>
      </trkpt>
      <trkpt lat="44.77658" lon="6.32718">
        <ele>2043</ele>
        <time>2021-07-07T08:38:09Z</time>
      </trkpt>
      <trkpt lat="44.77662" lon="6.32682">
        <ele>2050</ele>
        <time>2021-07-07T08:37:56Z</time>
      </trkpt>
      <trkpt lat="44.77694" lon="6.3271">
        <ele>2055</ele>
        <time>2021-07-07T08:37:37Z</time>
      </trkpt>
      <trkpt lat="44.777" lon="6.32689">
        <ele>2059</ele>
        <time>2021-07-07T08:37:29Z</time>
      </trkpt>
      <trkpt lat="44.77698" lon="6.32671">
        <ele>2061</ele>
        <time>2021-07-07T08:37:22Z</time>
      </trkpt>
      <trkpt lat="44.77701" lon="6.32651">
        <ele>2065</ele>
        <time>2021-07-07T08:37:15Z</time>
      </trkpt>
      <trkpt lat="44.77708" lon="6.32626">
        <ele>2071</ele>
        <time>2021-07-07T08:37:06Z</time>
      </trkpt>
      <trkpt lat="44.77716" lon="6.32611">
        <ele>2076</ele>
        <time>2021-07-07T08:36:59Z</time>
      </trkpt>
      <trkpt lat="44.77687" lon="6.32585">
        <ele>2075</ele>
        <time>2021-07-07T08:36:42Z</time>
      </trkpt>
      <trkpt lat="44.77681" lon="6.32565">
        <ele>2082</ele>
        <time>2021-07-07T08:36:34Z</time>
      </trkpt>
      <trkpt lat="44.77701" lon="6.32568">
        <ele>2084</ele>
        <time>2021-07-07T08:36:24Z</time>
      </trkpt>
      <trkpt lat="44.77712" lon="6.32565">
        <ele>2087</ele>
        <time>2021-07-07T08:36:18Z</time>
      </trkpt>
      <trkpt lat="44.7769" lon="6.32544">
        <ele>2093</ele>
        <time>2021-07-07T08:36:05Z</time>
      </trkpt>
      <trkpt lat="44.77687" lon="6.32525">
        <ele>2101</ele>
        <time>2021-07-07T08:35:58Z</time>
      </trkpt>
      <trkpt lat="44.77672" lon="6.32512">
        <ele>2104</ele>
        <time>2021-07-07T08:35:49Z</time>
      </trkpt>
      <trkpt lat="44.77634" lon="6.32529">
        <ele>2099</ele>
        <time>2021-07-07T08:35:29Z</time>
      </trkpt>
      <trkpt lat="44.77618" lon="6.32527">
        <ele>2101</ele>
        <time>2021-07-07T08:35:21Z</time>
      </trkpt>
      <trkpt lat="44.77584" lon="6.32513">
        <ele>2114</ele>
        <time>2021-07-07T08:35:04Z</time>
      </trkpt>
      <trkpt lat="44.7756" lon="6.32496">
        <ele>2124</ele>
        <time>2021-07-07T08:34:50Z</time>
      </trkpt>
      <trkpt lat="44.7755" lon="6.32505">
        <ele>2118</ele>
        <time>2021-07-07T08:34:44Z</time>
      </trkpt>
      <trkpt lat="44.77542" lon="6.32504">
        <ele>2118</ele>
        <time>2021-07-07T08:34:40Z</time>
      </trkpt>
      <trkpt lat="44.77525" lon="6.32491">
        <ele>2125</ele>
        <time>2021-07-07T08:34:31Z</time>
      </trkpt>
      <trkpt lat="44.77514" lon="6.3249">
        <ele>2125</ele>
        <time>2021-07-07T08:34:25Z</time>
      </trkpt>
      <trkpt lat="44.77507" lon="6.32483">
        <ele>2128</ele>
        <time>2021-07-07T08:34:21Z</time>
      </trkpt>
      <trkpt lat="44.77498" lon="6.32479">
        <ele>2130</ele>
        <time>2021-07-07T08:34:16Z</time>
      </trkpt>
      <trkpt lat="44.77491" lon="6.32484">
        <ele>2127</ele>
        <time>2021-07-07T08:34:12Z</time>
      </trkpt>
      <trkpt lat="44.77457" lon="6.32473">
        <ele>2130</ele>
        <time>2021-07-07T08:33:55Z</time>
      </trkpt>
      <trkpt lat="44.77436" lon="6.32462">
        <ele>2134</ele>
        <time>2021-07-07T08:33:43Z</time>
      </trkpt>
      <trkpt lat="44.77445" lon="6.3246">
        <ele>2136</ele>
        <time>2021-07-07T08:33:39Z</time>
      </trkpt>
      <trkpt lat="44.77436" lon="6.32452">
        <ele>2139</ele>
        <time>2021-07-07T08:33:34Z</time>
      </trkpt>
      <trkpt lat="44.77447" lon="6.32443">
        <ele>2146</ele>
        <time>2021-07-07T08:33:27Z</time>
      </trkpt>
      <trkpt lat="44.77442" lon="6.32421">
        <ele>2157</ele>
        <time>2021-07-07T08:33:19Z</time>
      </trkpt>
      <trkpt lat="44.77451" lon="6.32376">
        <ele>2173</ele>
        <time>2021-07-07T08:33:02Z</time>
      </trkpt>
      <trkpt lat="44.77439" lon="6.32343">
        <ele>2180</ele>
        <time>2021-07-07T08:32:49Z</time>
      </trkpt>
      <trkpt lat="44.77433" lon="6.32316">
        <ele>2185</ele>
        <time>2021-07-07T08:32:39Z</time>
      </trkpt>
      <trkpt lat="44.77417" lon="6.32277">
        <ele>2191</ele>
        <time>2021-07-07T08:32:23Z</time>
      </trkpt>
      <trkpt lat="44.774" lon="6.32252">
        <ele>2195</ele>
        <time>2021-07-07T08:32:11Z</time>
      </trkpt>
      <trkpt lat="44.77394" lon="6.32234">
        <ele>2201</ele>
        <time>2021-07-07T08:32:04Z</time>
      </trkpt>
      <trkpt lat="44.77367" lon="6.32214">
        <ele>2202</ele>
        <time>2021-07-07T08:31:49Z</time>
      </trkpt>
      <trkpt lat="44.77362" lon="6.32199">
        <ele>2205</ele>
        <time>2021-07-07T08:31:43Z</time>
      </trkpt>
      <trkpt lat="44.77362" lon="6.32182">
        <ele>2210</ele>
        <time>2021-07-07T08:31:37Z</time>
      </trkpt>
      <trkpt lat="44.77369" lon="6.32187">
        <ele>2210</ele>
        <time>2021-07-07T08:31:33Z</time>
      </trkpt>
      <trkpt lat="44.77412" lon="6.32191">
        <ele>2219</ele>
        <time>2021-07-07T08:31:11Z</time>
      </trkpt>
      <trkpt lat="44.77381" lon="6.32152">
        <ele>2225</ele>
        <time>2021-07-07T08:30:50Z</time>
      </trkpt>
      <trkpt lat="44.77371" lon="6.32131">
        <ele>2231</ele>
        <time>2021-07-07T08:30:41Z</time>
      </trkpt>
      <trkpt lat="44.77413" lon="6.32147">
        <ele>2236</ele>
        <time>2021-07-07T08:30:20Z</time>
      </trkpt>
      <trkpt lat="44.77466" lon="6.3215">
        <ele>2255</ele>
        <time>2021-07-07T08:29:53Z</time>
      </trkpt>
      <trkpt lat="44.77486" lon="6.32155">
        <ele>2261</ele>
        <time>2021-07-07T08:29:43Z</time>
      </trkpt>
      <trkpt lat="44.77508" lon="6.32168">
        <ele>2262</ele>
        <time>2021-07-07T08:29:31Z</time>
      </trkpt>
      <trkpt lat="44.77526" lon="6.32173">
        <ele>2260</ele>
        <time>2021-07-07T08:29:22Z</time>
      </trkpt>
      <trkpt lat="44.77507" lon="6.32152">
        <ele>2268</ele>
        <time>2021-07-07T08:29:10Z</time>
      </trkpt>
      <trkpt lat="44.77488" lon="6.32118">
        <ele>2277</ele>
        <time>2021-07-07T08:28:54Z</time>
      </trkpt>
      <trkpt lat="44.77526" lon="6.32135">
        <ele>2275</ele>
        <time>2021-07-07T08:28:34Z</time>
      </trkpt>
      <trkpt lat="44.77505" lon="6.32099">
        <ele>2290</ele>
        <time>2021-07-07T08:28:18Z</time>
      </trkpt>
      <trkpt lat="44.77519" lon="6.32105">
        <ele>2287</ele>
        <time>2021-07-07T08:28:10Z</time>
      </trkpt>
      <trkpt lat="44.77497" lon="6.3206">
        <ele>2302</ele>
        <time>2021-07-07T08:27:51Z</time>
      </trkpt>
      <trkpt lat="44.77458" lon="6.32004">
        <ele>2311</ele>
        <time>2021-07-07T08:27:23Z</time>
      </trkpt>
      <trkpt lat="44.77451" lon="6.31977">
        <ele>2317</ele>
        <time>2021-07-07T08:27:13Z</time>
      </trkpt>
      <trkpt lat="44.77466" lon="6.31986">
        <ele>2317</ele>
        <time>2021-07-07T08:27:05Z</time>
      </trkpt>
      <trkpt lat="44.77472" lon="6.31979">
        <ele>2319</ele>
        <time>2021-07-07T08:27:01Z</time>
      </trkpt>
      <trkpt lat="44.7746" lon="6.31959">
        <ele>2322</ele>
        <time>2021-07-07T08:26:52Z</time>
      </trkpt>
      <trkpt lat="44.77457" lon="6.31942">
        <ele>2326</ele>
        <time>2021-07-07T08:26:45Z</time>
      </trkpt>
      <trkpt lat="44.77446" lon="6.31935">
        <ele>2325</ele>
        <time>2021-07-07T08:26:39Z</time>
      </trkpt>
      <trkpt lat="44.77444" lon="6.31925">
        <ele>2327</ele>
        <time>2021-07-07T08:26:36Z</time>
      </trkpt>
      <trkpt lat="44.77436" lon="6.31914">
        <ele>2329</ele>
        <time>2021-07-07T08:26:30Z</time>
      </trkpt>
      <trkpt lat="44.77435" lon="6.31899">
        <ele>2334</ele>
        <time>2021-07-07T08:26:25Z</time>
      </trkpt>
      <trkpt lat="44.77426" lon="6.31895">
        <ele>2334</ele>
        <time>2021-07-07T08:26:20Z</time>
      </trkpt>
      <trkpt lat="44.77397" lon="6.31907">
        <ele>2329</ele>
        <time>2021-07-07T08:26:05Z</time>
      </trkpt>
      <trkpt lat="44.77386" lon="6.31903">
        <ele>2330</ele>
        <time>2021-07-07T08:25:59Z</time>
      </trkpt>
      <trkpt lat="44.77369" lon="6.31906">
        <ele>2330</ele>
        <time>2021-07-07T08:25:51Z</time>
      </trkpt>
      <trkpt lat="44.77358" lon="6.31904">
        <ele>2331</ele>
        <time>2021-07-07T08:25:45Z</time>
      </trkpt>
      <trkpt lat="44.77361" lon="6.31874">
        <ele>2339</ele>
        <time>2021-07-07T08:25:34Z</time>
      </trkpt>
      <trkpt lat="44.77367" lon="6.31854">
        <ele>2345</ele>
        <time>2021-07-07T08:25:27Z</time>
      </trkpt>
      <trkpt lat="44.77363" lon="6.31835">
        <ele>2351</ele>
        <time>2021-07-07T08:25:19Z</time>
      </trkpt>
      <trkpt lat="44.7737" lon="6.31775">
        <ele>2365</ele>
        <time>2021-07-07T08:24:58Z</time>
      </trkpt>
      <trkpt lat="44.77363" lon="6.31762">
        <ele>2367</ele>
        <time>2021-07-07T08:24:52Z</time>
      </trkpt>
      <trkpt lat="44.77363" lon="6.31739">
        <ele>2373</ele>
        <time>2021-07-07T08:24:44Z</time>
      </trkpt>
      <trkpt lat="44.77374" lon="6.31739">
        <ele>2374</ele>
        <time>2021-07-07T08:24:38Z</time>
      </trkpt>
      <trkpt lat="44.77365" lon="6.31697">
        <ele>2383</ele>
        <time>2021-07-07T08:24:23Z</time>
      </trkpt>
      <trkpt lat="44.77365" lon="6.31686">
        <ele>2386</ele>
        <time>2021-07-07T08:24:19Z</time>
      </trkpt>
      <trkpt lat="44.77386" lon="6.31636">
        <ele>2400</ele>
        <time>2021-07-07T08:23:58Z</time>
      </trkpt>
      <trkpt lat="44.77391" lon="6.31608">
        <ele>2407</ele>
        <time>2021-07-07T08:23:48Z</time>
      </trkpt>
      <trkpt lat="44.77394" lon="6.31516">
        <ele>2430</ele>
        <time>2021-07-07T08:23:15Z</time>
      </trkpt>
      <trkpt lat="44.77402" lon="6.31526">
        <ele>2429</ele>
        <time>2021-07-07T08:23:10Z</time>
      </trkpt>
      <trkpt lat="44.77401" lon="6.31495">
        <ele>2436</ele>
        <time>2021-07-07T08:22:59Z</time>
      </trkpt>
      <trkpt lat="44.77407" lon="6.31501">
        <ele>2435</ele>
        <time>2021-07-07T08:22:55Z</time>
      </trkpt>
      <trkpt lat="44.77403" lon="6.31485">
        <ele>2439</ele>
        <time>2021-07-07T08:22:49Z</time>
      </trkpt>
      <trkpt lat="44.77403" lon="6.31447">
        <ele>2448</ele>
        <time>2021-07-07T08:22:36Z</time>
      </trkpt>
      <trkpt lat="44.77391" lon="6.31377">
        <ele>2461</ele>
        <time>2021-07-07T08:22:10Z</time>
      </trkpt>
      <trkpt lat="44.77363" lon="6.31285">
        <ele>2474</ele>
        <time>2021-07-07T08:21:35Z</time>
      </trkpt>
      <trkpt lat="44.7735" lon="6.31302">
        <ele>2474</ele>
        <time>2021-07-07T08:21:26Z</time>
      </trkpt>
      <trkpt lat="44.7735" lon="6.3127">
        <ele>2477</ele>
        <time>2021-07-07T08:21:14Z</time>
      </trkpt>
      <trkpt lat="44.77339" lon="6.31285">
        <ele>2476</ele>
        <time>2021-07-07T08:21:07Z</time>
      </trkpt>
      <trkpt lat="44.77316" lon="6.31307">
        <ele>2482</ele>
        <time>2021-07-07T08:20:53Z</time>
      </trkpt>
      <trkpt lat="44.77323" lon="6.31223">
        <ele>2489</ele>
        <time>2021-07-07T08:20:23Z</time>
      </trkpt>
      <trkpt lat="44.77312" lon="6.31235">
        <ele>2492</ele>
        <time>2021-07-07T08:20:16Z</time>
      </trkpt>
      <trkpt lat="44.77299" lon="6.31256">
        <ele>2495</ele>
        <time>2021-07-07T08:20:06Z</time>
      </trkpt>
      <trkpt lat="44.77306" lon="6.31216">
        <ele>2498</ele>
        <time>2021-07-07T08:19:51Z</time>
      </trkpt>
      <trkpt lat="44.77312" lon="6.31205">
        <ele>2497</ele>
        <time>2021-07-07T08:19:46Z</time>
      </trkpt>
      <trkpt lat="44.77313" lon="6.31188">
        <ele>2499</ele>
        <time>2021-07-07T08:19:40Z</time>
      </trkpt>
      <trkpt lat="44.77303" lon="6.31195">
        <ele>2502</ele>
        <time>2021-07-07T08:19:35Z</time>
      </trkpt>
      <trkpt lat="44.77304" lon="6.31178">
        <ele>2504</ele>
        <time>2021-07-07T08:19:29Z</time>
      </trkpt>
      <trkpt lat="44.77291" lon="6.3115">
        <ele>2512</ele>
        <time>2021-07-07T08:19:17Z</time>
      </trkpt>
      <trkpt lat="44.77299" lon="6.3109">
        <ele>2516</ele>
        <time>2021-07-07T08:18:55Z</time>
      </trkpt>
      <trkpt lat="44.77296" lon="6.31068">
        <ele>2520</ele>
        <time>2021-07-07T08:18:47Z</time>
      </trkpt>
      <trkpt lat="44.77304" lon="6.31003">
        <ele>2530</ele>
        <time>2021-07-07T08:18:24Z</time>
      </trkpt>
      <trkpt lat="44.77303" lon="6.30969">
        <ele>2539</ele>
        <time>2021-07-07T08:18:12Z</time>
      </trkpt>
      <trkpt lat="44.77297" lon="6.30933">
        <ele>2550</ele>
        <time>2021-07-07T08:17:58Z</time>
      </trkpt>
      <trkpt lat="44.77293" lon="6.30946">
        <ele>2548</ele>
        <time>2021-07-07T08:17:53Z</time>
      </trkpt>
      <trkpt lat="44.77283" lon="6.30946">
        <ele>2552</ele>
        <time>2021-07-07T08:17:48Z</time>
      </trkpt>
      <trkpt lat="44.77276" lon="6.30968">
        <ele>2547</ele>
        <time>2021-07-07T08:17:40Z</time>
      </trkpt>
      <trkpt lat="44.77267" lon="6.30977">
        <ele>2547</ele>
        <time>2021-07-07T08:17:34Z</time>
      </trkpt>
      <trkpt lat="44.77262" lon="6.30912">
        <ele>2570</ele>
        <time>2021-07-07T08:17:11Z</time>
      </trkpt>
      <trkpt lat="44.77248" lon="6.30903">
        <ele>2578</ele>
        <time>2021-07-07T08:17:03Z</time>
      </trkpt>
      <trkpt lat="44.77257" lon="6.30866">
        <ele>2590</ele>
        <time>2021-07-07T08:16:49Z</time>
      </trkpt>
      <trkpt lat="44.77264" lon="6.30855">
        <ele>2592</ele>
        <time>2021-07-07T08:16:44Z</time>
      </trkpt>
      <trkpt lat="44.77265" lon="6.308">
        <ele>2611</ele>
        <time>2021-07-07T08:16:25Z</time>
      </trkpt>
      <trkpt lat="44.77285" lon="6.30693">
        <ele>2626</ele>
        <time>2021-07-07T08:15:45Z</time>
      </trkpt>
      <trkpt lat="44.77296" lon="6.30654">
        <ele>2632</ele>
        <time>2021-07-07T08:15:30Z</time>
      </trkpt>
      <trkpt lat="44.77316" lon="6.30616">
        <ele>2646</ele>
        <time>2021-07-07T08:15:14Z</time>
      </trkpt>
      <trkpt lat="44.77294" lon="6.30626">
        <ele>2640</ele>
        <time>2021-07-07T08:15:02Z</time>
      </trkpt>
      <trkpt lat="44.7733" lon="6.30554">
        <ele>2662</ele>
        <time>2021-07-07T08:14:31Z</time>
      </trkpt>
      <trkpt lat="44.77358" lon="6.30526">
        <ele>2661</ele>
        <time>2021-07-07T08:14:14Z</time>
      </trkpt>
      <trkpt lat="44.77373" lon="6.3052">
        <ele>2659</ele>
        <time>2021-07-07T08:14:06Z</time>
      </trkpt>
      <trkpt lat="44.77385" lon="6.3051">
        <ele>2656</ele>
        <time>2021-07-07T08:13:59Z</time>
      </trkpt>
      <trkpt lat="44.77377" lon="6.30503">
        <ele>2657</ele>
        <time>2021-07-07T08:13:54Z</time>
      </trkpt>
      <trkpt lat="44.77394" lon="6.3049">
        <ele>2649</ele>
        <time>2021-07-07T08:13:44Z</time>
      </trkpt>
      <trkpt lat="44.77387" lon="6.30479">
        <ele>2646</ele>
        <time>2021-07-07T08:13:39Z</time>
      </trkpt>
      <trkpt lat="44.77393" lon="6.30469">
        <ele>2640</ele>
        <time>2021-07-07T08:13:35Z</time>
      </trkpt>
      <trkpt lat="44.77402" lon="6.30467">
        <ele>2637</ele>
        <time>2021-07-07T08:13:30Z</time>
      </trkpt>
      <trkpt lat="44.77412" lon="6.30448">
        <ele>2624</ele>
        <time>2021-07-07T08:13:22Z</time>
      </trkpt>
      <trkpt lat="44.7741" lon="6.30434">
        <ele>2618</ele>
        <time>2021-07-07T08:13:16Z</time>
      </trkpt>
      <trkpt lat="44.77418" lon="6.3044">
        <ele>2618</ele>
        <time>2021-07-07T08:13:12Z</time>
      </trkpt>
      <trkpt lat="44.77436" lon="6.30433">
        <ele>2614</ele>
        <time>2021-07-07T08:13:03Z</time>
      </trkpt>
      <trkpt lat="44.77424" lon="6.30409">
        <ele>2602</ele>
        <time>2021-07-07T08:12:52Z</time>
      </trkpt>
      <trkpt lat="44.77422" lon="6.30395">
        <ele>2594</ele>
        <time>2021-07-07T08:12:47Z</time>
      </trkpt>
      <trkpt lat="44.77426" lon="6.30371">
        <ele>2581</ele>
        <time>2021-07-07T08:12:38Z</time>
      </trkpt>
      <trkpt lat="44.77441" lon="6.30381">
        <ele>2586</ele>
        <time>2021-07-07T08:12:30Z</time>
      </trkpt>
      <trkpt lat="44.77439" lon="6.30357">
        <ele>2573</ele>
        <time>2021-07-07T08:12:21Z</time>
      </trkpt>
      <trkpt lat="44.77442" lon="6.30345">
        <ele>2567</ele>
        <time>2021-07-07T08:12:17Z</time>
      </trkpt>
      <trkpt lat="44.77453" lon="6.30354">
        <ele>2572</ele>
        <time>2021-07-07T08:12:11Z</time>
      </trkpt>
      <trkpt lat="44.7747" lon="6.30349">
        <ele>2570</ele>
        <time>2021-07-07T08:12:02Z</time>
      </trkpt>
      <trkpt lat="44.77485" lon="6.30327">
        <ele>2561</ele>
        <time>2021-07-07T08:11:51Z</time>
      </trkpt>
      <trkpt lat="44.77484" lon="6.30296">
        <ele>2551</ele>
        <time>2021-07-07T08:11:40Z</time>
      </trkpt>
      <trkpt lat="44.77493" lon="6.30286">
        <ele>2549</ele>
        <time>2021-07-07T08:11:34Z</time>
      </trkpt>
      <trkpt lat="44.77496" lon="6.30233">
        <ele>2529</ele>
        <time>2021-07-07T08:11:15Z</time>
      </trkpt>
      <trkpt lat="44.77501" lon="6.30244">
        <ele>2536</ele>
        <time>2021-07-07T08:11:11Z</time>
      </trkpt>
      <trkpt lat="44.77502" lon="6.3023">
        <ele>2529</ele>
        <time>2021-07-07T08:11:06Z</time>
      </trkpt>
      <trkpt lat="44.77506" lon="6.30245">
        <ele>2537</ele>
        <time>2021-07-07T08:11:00Z</time>
      </trkpt>
      <trkpt lat="44.77517" lon="6.30257">
        <ele>2542</ele>
        <time>2021-07-07T08:10:53Z</time>
      </trkpt>
      <trkpt lat="44.77528" lon="6.30256">
        <ele>2542</ele>
        <time>2021-07-07T08:10:48Z</time>
      </trkpt>
      <trkpt lat="44.77527" lon="6.30243">
        <ele>2536</ele>
        <time>2021-07-07T08:10:43Z</time>
      </trkpt>
      <trkpt lat="44.7753" lon="6.30232">
        <ele>2531</ele>
        <time>2021-07-07T08:10:39Z</time>
      </trkpt>
      <trkpt lat="44.7754" lon="6.30235">
        <ele>2533</ele>
        <time>2021-07-07T08:10:34Z</time>
      </trkpt>
      <trkpt lat="44.7756" lon="6.30181">
        <ele>2513</ele>
        <time>2021-07-07T08:10:12Z</time>
      </trkpt>
      <trkpt lat="44.77561" lon="6.30146">
        <ele>2502</ele>
        <time>2021-07-07T08:10:00Z</time>
      </trkpt>
      <trkpt lat="44.77572" lon="6.30109">
        <ele>2496</ele>
        <time>2021-07-07T08:09:45Z</time>
      </trkpt>
      <trkpt lat="44.77581" lon="6.30093">
        <ele>2494</ele>
        <time>2021-07-07T08:09:38Z</time>
      </trkpt>
      <trkpt lat="44.77586" lon="6.30032">
        <ele>2487</ele>
        <time>2021-07-07T08:09:16Z</time>
      </trkpt>
      <trkpt lat="44.77585" lon="6.30009">
        <ele>2485</ele>
        <time>2021-07-07T08:09:08Z</time>
      </trkpt>
      <trkpt lat="44.77611" lon="6.29972">
        <ele>2484</ele>
        <time>2021-07-07T08:08:50Z</time>
      </trkpt>
      <trkpt lat="44.77619" lon="6.29954">
        <ele>2484</ele>
        <time>2021-07-07T08:08:42Z</time>
      </trkpt>
      <trkpt lat="44.77632" lon="6.29913">
        <ele>2484</ele>
        <time>2021-07-07T08:08:26Z</time>
      </trkpt>
      <trkpt lat="44.7764" lon="6.29883">
        <ele>2485</ele>
        <time>2021-07-07T08:08:15Z</time>
      </trkpt>
      <trkpt lat="44.77647" lon="6.2981">
        <ele>2485</ele>
        <time>2021-07-07T08:07:49Z</time>
      </trkpt>
      <trkpt lat="44.77657" lon="6.29788">
        <ele>2485</ele>
        <time>2021-07-07T08:07:39Z</time>
      </trkpt>
      <trkpt lat="44.77658" lon="6.29763">
        <ele>2483</ele>
        <time>2021-07-07T08:07:30Z</time>
      </trkpt>
      <trkpt lat="44.77666" lon="6.2975">
        <ele>2484</ele>
        <time>2021-07-07T08:07:24Z</time>
      </trkpt>
      <trkpt lat="44.77693" lon="6.29646">
        <ele>2489</ele>
        <time>2021-07-07T08:06:45Z</time>
      </trkpt>
      <trkpt lat="44.77697" lon="6.29595">
        <ele>2490</ele>
        <time>2021-07-07T08:06:27Z</time>
      </trkpt>
      <trkpt lat="44.77707" lon="6.29548">
        <ele>2495</ele>
        <time>2021-07-07T08:06:09Z</time>
      </trkpt>
      <trkpt lat="44.77711" lon="6.29508">
        <ele>2499</ele>
        <time>2021-07-07T08:05:55Z</time>
      </trkpt>
      <trkpt lat="44.77704" lon="6.29466">
        <ele>2501</ele>
        <time>2021-07-07T08:05:40Z</time>
      </trkpt>
      <trkpt lat="44.7771" lon="6.29422">
        <ele>2507</ele>
        <time>2021-07-07T08:05:24Z</time>
      </trkpt>
      <trkpt lat="44.77702" lon="6.2937">
        <ele>2516</ele>
        <time>2021-07-07T08:05:05Z</time>
      </trkpt>
      <trkpt lat="44.77708" lon="6.29361">
        <ele>2519</ele>
        <time>2021-07-07T08:05:00Z</time>
      </trkpt>
      <trkpt lat="44.77704" lon="6.29345">
        <ele>2522</ele>
        <time>2021-07-07T08:04:54Z</time>
      </trkpt>
      <trkpt lat="44.77708" lon="6.29335">
        <ele>2525</ele>
        <time>2021-07-07T08:04:50Z</time>
      </trkpt>
      <trkpt lat="44.77719" lon="6.29327">
        <ele>2527</ele>
        <time>2021-07-07T08:04:44Z</time>
      </trkpt>
      <trkpt lat="44.77703" lon="6.29317">
        <ele>2529</ele>
        <time>2021-07-07T08:04:35Z</time>
      </trkpt>
      <trkpt lat="44.777" lon="6.29302">
        <ele>2533</ele>
        <time>2021-07-07T08:04:30Z</time>
      </trkpt>
      <trkpt lat="44.77705" lon="6.29289">
        <ele>2537</ele>
        <time>2021-07-07T08:04:25Z</time>
      </trkpt>
      <trkpt lat="44.77712" lon="6.29298">
        <ele>2535</ele>
        <time>2021-07-07T08:04:20Z</time>
      </trkpt>
      <trkpt lat="44.77715" lon="6.29272">
        <ele>2542</ele>
        <time>2021-07-07T08:04:10Z</time>
      </trkpt>
      <trkpt lat="44.77723" lon="6.29252">
        <ele>2548</ele>
        <time>2021-07-07T08:04:02Z</time>
      </trkpt>
      <trkpt lat="44.77722" lon="6.29221">
        <ele>2558</ele>
        <time>2021-07-07T08:03:51Z</time>
      </trkpt>
      <trkpt lat="44.77711" lon="6.29202">
        <ele>2564</ele>
        <time>2021-07-07T08:03:43Z</time>
      </trkpt>
      <trkpt lat="44.7772" lon="6.29205">
        <ele>2563</ele>
        <time>2021-07-07T08:03:38Z</time>
      </trkpt>
      <trkpt lat="44.77728" lon="6.29196">
        <ele>2566</ele>
        <time>2021-07-07T08:03:33Z</time>
      </trkpt>
      <trkpt lat="44.77717" lon="6.29177">
        <ele>2573</ele>
        <time>2021-07-07T08:03:24Z</time>
      </trkpt>
      <trkpt lat="44.77706" lon="6.29171">
        <ele>2576</ele>
        <time>2021-07-07T08:03:18Z</time>
      </trkpt>
      <trkpt lat="44.77715" lon="6.29167">
        <ele>2577</ele>
        <time>2021-07-07T08:03:13Z</time>
      </trkpt>
      <trkpt lat="44.77728" lon="6.29172">
        <ele>2574</ele>
        <time>2021-07-07T08:03:07Z</time>
      </trkpt>
      <trkpt lat="44.77746" lon="6.29187">
        <ele>2569</ele>
        <time>2021-07-07T08:02:56Z</time>
      </trkpt>
      <trkpt lat="44.77737" lon="6.29127">
        <ele>2584</ele>
        <time>2021-07-07T08:02:34Z</time>
      </trkpt>
      <trkpt lat="44.7772" lon="6.29111">
        <ele>2590</ele>
        <time>2021-07-07T08:02:24Z</time>
      </trkpt>
      <trkpt lat="44.77733" lon="6.29102">
        <ele>2591</ele>
        <time>2021-07-07T08:02:17Z</time>
      </trkpt>
      <trkpt lat="44.7774" lon="6.29104">
        <ele>2589</ele>
        <time>2021-07-07T08:02:13Z</time>
      </trkpt>
      <trkpt lat="44.77759" lon="6.29119">
        <ele>2588</ele>
        <time>2021-07-07T08:02:03Z</time>
      </trkpt>
      <trkpt lat="44.77756" lon="6.29084">
        <ele>2593</ele>
        <time>2021-07-07T08:01:50Z</time>
      </trkpt>
      <trkpt lat="44.77752" lon="6.29074">
        <ele>2590</ele>
        <time>2021-07-07T08:01:46Z</time>
      </trkpt>
      <trkpt lat="44.77724" lon="6.29057">
        <ele>2593</ele>
        <time>2021-07-07T08:01:31Z</time>
      </trkpt>
      <trkpt lat="44.77733" lon="6.2904">
        <ele>2588</ele>
        <time>2021-07-07T08:01:23Z</time>
      </trkpt>
      <trkpt lat="44.77747" lon="6.29042">
        <ele>2584</ele>
        <time>2021-07-07T08:01:16Z</time>
      </trkpt>
      <trkpt lat="44.7776" lon="6.29039">
        <ele>2583</ele>
        <time>2021-07-07T08:01:09Z</time>
      </trkpt>
      <trkpt lat="44.77766" lon="6.29035">
        <ele>2583</ele>
        <time>2021-07-07T08:01:06Z</time>
      </trkpt>
      <trkpt lat="44.77791" lon="6.29">
        <ele>2574</ele>
        <time>2021-07-07T08:00:49Z</time>
      </trkpt>
      <trkpt lat="44.77799" lon="6.28998">
        <ele>2573</ele>
        <time>2021-07-07T08:00:44Z</time>
      </trkpt>
      <trkpt lat="44.77838" lon="6.28975">
        <ele>2566</ele>
        <time>2021-07-07T08:00:23Z</time>
      </trkpt>
      <trkpt lat="44.77859" lon="6.28967">
        <ele>2564</ele>
        <time>2021-07-07T08:00:12Z</time>
      </trkpt>
      <trkpt lat="44.77885" lon="6.28968">
        <ele>2567</ele>
        <time>2021-07-07T07:59:59Z</time>
      </trkpt>
      <trkpt lat="44.779" lon="6.28948">
        <ele>2559</ele>
        <time>2021-07-07T07:59:49Z</time>
      </trkpt>
      <trkpt lat="44.77921" lon="6.28928">
        <ele>2550</ele>
        <time>2021-07-07T07:59:36Z</time>
      </trkpt>
      <trkpt lat="44.77946" lon="6.28914">
        <ele>2544</ele>
        <time>2021-07-07T07:59:23Z</time>
      </trkpt>
      <trkpt lat="44.77962" lon="6.28899">
        <ele>2538</ele>
        <time>2021-07-07T07:59:13Z</time>
      </trkpt>
      <trkpt lat="44.7798" lon="6.28891">
        <ele>2535</ele>
        <time>2021-07-07T07:59:04Z</time>
      </trkpt>
      <trkpt lat="44.78042" lon="6.28881">
        <ele>2521</ele>
        <time>2021-07-07T07:58:33Z</time>
      </trkpt>
      <trkpt lat="44.78073" lon="6.28883">
        <ele>2515</ele>
        <time>2021-07-07T07:58:17Z</time>
      </trkpt>
      <trkpt lat="44.78085" lon="6.28878">
        <ele>2510</ele>
        <time>2021-07-07T07:58:11Z</time>
      </trkpt>
      <trkpt lat="44.78126" lon="6.28878">
        <ele>2502</ele>
        <time>2021-07-07T07:57:50Z</time>
      </trkpt>
      <trkpt lat="44.78111" lon="6.28863">
        <ele>2498</ele>
        <time>2021-07-07T07:57:41Z</time>
      </trkpt>
      <trkpt lat="44.78105" lon="6.28851">
        <ele>2493</ele>
        <time>2021-07-07T07:57:36Z</time>
      </trkpt>
      <trkpt lat="44.78149" lon="6.28851">
        <ele>2485</ele>
        <time>2021-07-07T07:57:14Z</time>
      </trkpt>
      <trkpt lat="44.78159" lon="6.28848">
        <ele>2482</ele>
        <time>2021-07-07T07:57:09Z</time>
      </trkpt>
      <trkpt lat="44.78167" lon="6.28845">
        <ele>2479</ele>
        <time>2021-07-07T07:57:05Z</time>
      </trkpt>
      <trkpt lat="44.78173" lon="6.28838">
        <ele>2477</ele>
        <time>2021-07-07T07:57:01Z</time>
      </trkpt>
      <trkpt lat="44.78179" lon="6.28837">
        <ele>2477</ele>
        <time>2021-07-07T07:56:58Z</time>
      </trkpt>
      <trkpt lat="44.78182" lon="6.28826">
        <ele>2473</ele>
        <time>2021-07-07T07:56:54Z</time>
      </trkpt>
      <trkpt lat="44.78203" lon="6.28818">
        <ele>2473</ele>
        <time>2021-07-07T07:56:43Z</time>
      </trkpt>
      <trkpt lat="44.78209" lon="6.28812">
        <ele>2472</ele>
        <time>2021-07-07T07:56:39Z</time>
      </trkpt>
      <trkpt lat="44.78214" lon="6.2879">
        <ele>2466</ele>
        <time>2021-07-07T07:56:31Z</time>
      </trkpt>
      <trkpt lat="44.78215" lon="6.28773">
        <ele>2461</ele>
        <time>2021-07-07T07:56:25Z</time>
      </trkpt>
      <trkpt lat="44.78257" lon="6.28694">
        <ele>2443</ele>
        <time>2021-07-07T07:55:50Z</time>
      </trkpt>
      <trkpt lat="44.78268" lon="6.28689">
        <ele>2442</ele>
        <time>2021-07-07T07:55:44Z</time>
      </trkpt>
      <trkpt lat="44.78295" lon="6.28687">
        <ele>2445</ele>
        <time>2021-07-07T07:55:30Z</time>
      </trkpt>
      <trkpt lat="44.78307" lon="6.28693">
        <ele>2448</ele>
        <time>2021-07-07T07:55:24Z</time>
      </trkpt>
      <trkpt lat="44.78317" lon="6.28691">
        <ele>2448</ele>
        <time>2021-07-07T07:55:19Z</time>
      </trkpt>
      <trkpt lat="44.78321" lon="6.2866">
        <ele>2439</ele>
        <time>2021-07-07T07:55:08Z</time>
      </trkpt>
      <trkpt lat="44.78324" lon="6.28654">
        <ele>2438</ele>
        <time>2021-07-07T07:55:05Z</time>
      </trkpt>
      <trkpt lat="44.7833" lon="6.28655">
        <ele>2439</ele>
        <time>2021-07-07T07:55:02Z</time>
      </trkpt>
      <trkpt lat="44.78333" lon="6.28645">
        <ele>2438</ele>
        <time>2021-07-07T07:54:58Z</time>
      </trkpt>
      <trkpt lat="44.78332" lon="6.28632">
        <ele>2435</ele>
        <time>2021-07-07T07:54:54Z</time>
      </trkpt>
      <trkpt lat="44.78336" lon="6.28627">
        <ele>2434</ele>
        <time>2021-07-07T07:54:51Z</time>
      </trkpt>
      <trkpt lat="44.78333" lon="6.28612">
        <ele>2431</ele>
        <time>2021-07-07T07:54:45Z</time>
      </trkpt>
      <trkpt lat="44.7834" lon="6.28595">
        <ele>2428</ele>
        <time>2021-07-07T07:54:38Z</time>
      </trkpt>
      <trkpt lat="44.78353" lon="6.28592">
        <ele>2430</ele>
        <time>2021-07-07T07:54:32Z</time>
      </trkpt>
      <trkpt lat="44.78356" lon="6.28583">
        <ele>2428</ele>
        <time>2021-07-07T07:54:28Z</time>
      </trkpt>
      <trkpt lat="44.7836" lon="6.28582">
        <ele>2429</ele>
        <time>2021-07-07T07:54:26Z</time>
      </trkpt>
      <trkpt lat="44.78366" lon="6.28589">
        <ele>2431</ele>
        <time>2021-07-07T07:54:22Z</time>
      </trkpt>
      <trkpt lat="44.78375" lon="6.28571">
        <ele>2428</ele>
        <time>2021-07-07T07:54:14Z</time>
      </trkpt>
      <trkpt lat="44.78383" lon="6.28565">
        <ele>2428</ele>
        <time>2021-07-07T07:54:10Z</time>
      </trkpt>
      <trkpt lat="44.78386" lon="6.28547">
        <ele>2425</ele>
        <time>2021-07-07T07:54:03Z</time>
      </trkpt>
      <trkpt lat="44.78395" lon="6.28533">
        <ele>2422</ele>
        <time>2021-07-07T07:53:57Z</time>
      </trkpt>
      <trkpt lat="44.78403" lon="6.28531">
        <ele>2423</ele>
        <time>2021-07-07T07:53:53Z</time>
      </trkpt>
      <trkpt lat="44.78409" lon="6.28533">
        <ele>2424</ele>
        <time>2021-07-07T07:53:50Z</time>
      </trkpt>
      <trkpt lat="44.78418" lon="6.28526">
        <ele>2423</ele>
        <time>2021-07-07T07:53:44Z</time>
      </trkpt>
      <trkpt lat="44.78443" lon="6.28534">
        <ele>2435</ele>
        <time>2021-07-07T07:53:32Z</time>
      </trkpt>
      <trkpt lat="44.78448" lon="6.28531">
        <ele>2436</ele>
        <time>2021-07-07T07:53:29Z</time>
      </trkpt>
      <trkpt lat="44.78452" lon="6.28517">
        <ele>2434</ele>
        <time>2021-07-07T07:53:23Z</time>
      </trkpt>
      <trkpt lat="44.78458" lon="6.28515">
        <ele>2435</ele>
        <time>2021-07-07T07:53:20Z</time>
      </trkpt>
      <trkpt lat="44.78462" lon="6.2851">
        <ele>2436</ele>
        <time>2021-07-07T07:53:18Z</time>
      </trkpt>
      <trkpt lat="44.78463" lon="6.28497">
        <ele>2433</ele>
        <time>2021-07-07T07:53:13Z</time>
      </trkpt>
      <trkpt lat="44.78456" lon="6.28478">
        <ele>2427</ele>
        <time>2021-07-07T07:53:05Z</time>
      </trkpt>
      <trkpt lat="44.78456" lon="6.28464">
        <ele>2425</ele>
        <time>2021-07-07T07:53:00Z</time>
      </trkpt>
      <trkpt lat="44.78463" lon="6.28415">
        <ele>2420</ele>
        <time>2021-07-07T07:52:43Z</time>
      </trkpt>
      <trkpt lat="44.78476" lon="6.28389">
        <ele>2422</ele>
        <time>2021-07-07T07:52:31Z</time>
      </trkpt>
      <trkpt lat="44.78497" lon="6.2836">
        <ele>2424</ele>
        <time>2021-07-07T07:52:17Z</time>
      </trkpt>
      <trkpt lat="44.78506" lon="6.28352">
        <ele>2425</ele>
        <time>2021-07-07T07:52:11Z</time>
      </trkpt>
      <trkpt lat="44.78522" lon="6.28346">
        <ele>2431</ele>
        <time>2021-07-07T07:52:03Z</time>
      </trkpt>
      <trkpt lat="44.78522" lon="6.28332">
        <ele>2429</ele>
        <time>2021-07-07T07:51:58Z</time>
      </trkpt>
      <trkpt lat="44.78514" lon="6.28312">
        <ele>2423</ele>
        <time>2021-07-07T07:51:50Z</time>
      </trkpt>
      <trkpt lat="44.78518" lon="6.28302">
        <ele>2424</ele>
        <time>2021-07-07T07:51:46Z</time>
      </trkpt>
      <trkpt lat="44.78529" lon="6.28293">
        <ele>2428</ele>
        <time>2021-07-07T07:51:40Z</time>
      </trkpt>
      <trkpt lat="44.78532" lon="6.28311">
        <ele>2431</ele>
        <time>2021-07-07T07:51:33Z</time>
      </trkpt>
      <trkpt lat="44.78543" lon="6.28295">
        <ele>2434</ele>
        <time>2021-07-07T07:51:25Z</time>
      </trkpt>
      <trkpt lat="44.78549" lon="6.2829">
        <ele>2436</ele>
        <time>2021-07-07T07:51:22Z</time>
      </trkpt>
      <trkpt lat="44.78547" lon="6.28295">
        <ele>2436</ele>
        <time>2021-07-07T07:51:20Z</time>
      </trkpt>
      <trkpt lat="44.78547" lon="6.28311">
        <ele>2437</ele>
        <time>2021-07-07T07:51:14Z</time>
      </trkpt>
      <trkpt lat="44.78557" lon="6.28334">
        <ele>2443</ele>
        <time>2021-07-07T07:51:04Z</time>
      </trkpt>
      <trkpt lat="44.78559" lon="6.28314">
        <ele>2442</ele>
        <time>2021-07-07T07:50:57Z</time>
      </trkpt>
      <trkpt lat="44.78564" lon="6.28306">
        <ele>2443</ele>
        <time>2021-07-07T07:50:53Z</time>
      </trkpt>
      <trkpt lat="44.78576" lon="6.28299">
        <ele>2448</ele>
        <time>2021-07-07T07:50:47Z</time>
      </trkpt>
      <trkpt lat="44.78588" lon="6.28279">
        <ele>2452</ele>
        <time>2021-07-07T07:50:38Z</time>
      </trkpt>
      <trkpt lat="44.78596" lon="6.28274">
        <ele>2455</ele>
        <time>2021-07-07T07:50:33Z</time>
      </trkpt>
      <trkpt lat="44.78617" lon="6.28274">
        <ele>2464</ele>
        <time>2021-07-07T07:50:23Z</time>
      </trkpt>
      <trkpt lat="44.78624" lon="6.28269">
        <ele>2467</ele>
        <time>2021-07-07T07:50:19Z</time>
      </trkpt>
      <trkpt lat="44.78629" lon="6.28261">
        <ele>2468</ele>
        <time>2021-07-07T07:50:15Z</time>
      </trkpt>
      <trkpt lat="44.78613" lon="6.28248">
        <ele>2460</ele>
        <time>2021-07-07T07:50:06Z</time>
      </trkpt>
      <trkpt lat="44.78608" lon="6.28241">
        <ele>2458</ele>
        <time>2021-07-07T07:50:02Z</time>
      </trkpt>
      <trkpt lat="44.78609" lon="6.28236">
        <ele>2458</ele>
        <time>2021-07-07T07:50:00Z</time>
      </trkpt>
      <trkpt lat="44.78657" lon="6.28223">
        <ele>2478</ele>
        <time>2021-07-07T07:49:36Z</time>
      </trkpt>
      <trkpt lat="44.78661" lon="6.28185">
        <ele>2480</ele>
        <time>2021-07-07T07:49:22Z</time>
      </trkpt>
      <trkpt lat="44.78653" lon="6.28176">
        <ele>2476</ele>
        <time>2021-07-07T07:49:17Z</time>
      </trkpt>
      <trkpt lat="44.78652" lon="6.28162">
        <ele>2476</ele>
        <time>2021-07-07T07:49:12Z</time>
      </trkpt>
      <trkpt lat="44.78675" lon="6.28135">
        <ele>2485</ele>
        <time>2021-07-07T07:48:57Z</time>
      </trkpt>
      <trkpt lat="44.78689" lon="6.28127">
        <ele>2491</ele>
        <time>2021-07-07T07:48:50Z</time>
      </trkpt>
      <trkpt lat="44.78705" lon="6.28122">
        <ele>2499</ele>
        <time>2021-07-07T07:48:41Z</time>
      </trkpt>
      <trkpt lat="44.7872" lon="6.28133">
        <ele>2508</ele>
        <time>2021-07-07T07:48:33Z</time>
      </trkpt>
      <trkpt lat="44.78721" lon="6.28114">
        <ele>2507</ele>
        <time>2021-07-07T07:48:26Z</time>
      </trkpt>
      <trkpt lat="44.78733" lon="6.28098">
        <ele>2513</ele>
        <time>2021-07-07T07:48:18Z</time>
      </trkpt>
      <trkpt lat="44.78719" lon="6.28092">
        <ele>2505</ele>
        <time>2021-07-07T07:48:11Z</time>
      </trkpt>
      <trkpt lat="44.78717" lon="6.28083">
        <ele>2504</ele>
        <time>2021-07-07T07:48:07Z</time>
      </trkpt>
      <trkpt lat="44.78724" lon="6.28074">
        <ele>2507</ele>
        <time>2021-07-07T07:48:02Z</time>
      </trkpt>
      <trkpt lat="44.78724" lon="6.28062">
        <ele>2507</ele>
        <time>2021-07-07T07:47:58Z</time>
      </trkpt>
      <trkpt lat="44.7873" lon="6.28048">
        <ele>2510</ele>
        <time>2021-07-07T07:47:52Z</time>
      </trkpt>
      <trkpt lat="44.78746" lon="6.28067">
        <ele>2520</ele>
        <time>2021-07-07T07:47:42Z</time>
      </trkpt>
      <trkpt lat="44.78747" lon="6.28042">
        <ele>2520</ele>
        <time>2021-07-07T07:47:33Z</time>
      </trkpt>
      <trkpt lat="44.78762" lon="6.28058">
        <ele>2529</ele>
        <time>2021-07-07T07:47:24Z</time>
      </trkpt>
      <trkpt lat="44.78761" lon="6.28043">
        <ele>2528</ele>
        <time>2021-07-07T07:47:18Z</time>
      </trkpt>
      <trkpt lat="44.7877" lon="6.28025">
        <ele>2534</ele>
        <time>2021-07-07T07:47:10Z</time>
      </trkpt>
      <trkpt lat="44.78778" lon="6.28047">
        <ele>2538</ele>
        <time>2021-07-07T07:47:02Z</time>
      </trkpt>
      <trkpt lat="44.78785" lon="6.28029">
        <ele>2543</ele>
        <time>2021-07-07T07:46:54Z</time>
      </trkpt>
      <trkpt lat="44.78786" lon="6.28039">
        <ele>2543</ele>
        <time>2021-07-07T07:46:51Z</time>
      </trkpt>
      <trkpt lat="44.78792" lon="6.28046">
        <ele>2547</ele>
        <time>2021-07-07T07:46:47Z</time>
      </trkpt>
      <trkpt lat="44.78794" lon="6.28058">
        <ele>2548</ele>
        <time>2021-07-07T07:46:42Z</time>
      </trkpt>
      <trkpt lat="44.78798" lon="6.28052">
        <ele>2550</ele>
        <time>2021-07-07T07:46:40Z</time>
      </trkpt>
      <trkpt lat="44.78801" lon="6.28039">
        <ele>2552</ele>
        <time>2021-07-07T07:46:35Z</time>
      </trkpt>
      <trkpt lat="44.78804" lon="6.28047">
        <ele>2554</ele>
        <time>2021-07-07T07:46:31Z</time>
      </trkpt>
      <trkpt lat="44.78804" lon="6.28066">
        <ele>2554</ele>
        <time>2021-07-07T07:46:25Z</time>
      </trkpt>
      <trkpt lat="44.78808" lon="6.28067">
        <ele>2556</ele>
        <time>2021-07-07T07:46:23Z</time>
      </trkpt>
      <trkpt lat="44.78821" lon="6.28024">
        <ele>2564</ele>
        <time>2021-07-07T07:46:06Z</time>
      </trkpt>
      <trkpt lat="44.78827" lon="6.2802">
        <ele>2567</ele>
        <time>2021-07-07T07:46:03Z</time>
      </trkpt>
      <trkpt lat="44.78837" lon="6.27996">
        <ele>2573</ele>
        <time>2021-07-07T07:45:53Z</time>
      </trkpt>
      <trkpt lat="44.78839" lon="6.28015">
        <ele>2574</ele>
        <time>2021-07-07T07:45:46Z</time>
      </trkpt>
      <trkpt lat="44.78837" lon="6.28033">
        <ele>2573</ele>
        <time>2021-07-07T07:45:40Z</time>
      </trkpt>
      <trkpt lat="44.78842" lon="6.28045">
        <ele>2576</ele>
        <time>2021-07-07T07:45:35Z</time>
      </trkpt>
      <trkpt lat="44.78845" lon="6.28034">
        <ele>2577</ele>
        <time>2021-07-07T07:45:30Z</time>
      </trkpt>
      <trkpt lat="44.78856" lon="6.28021">
        <ele>2584</ele>
        <time>2021-07-07T07:45:23Z</time>
      </trkpt>
      <trkpt lat="44.78862" lon="6.27999">
        <ele>2587</ele>
        <time>2021-07-07T07:45:15Z</time>
      </trkpt>
      <trkpt lat="44.78866" lon="6.28025">
        <ele>2589</ele>
        <time>2021-07-07T07:45:05Z</time>
      </trkpt>
      <trkpt lat="44.78863" lon="6.28043">
        <ele>2587</ele>
        <time>2021-07-07T07:44:59Z</time>
      </trkpt>
      <trkpt lat="44.78868" lon="6.28059">
        <ele>2590</ele>
        <time>2021-07-07T07:44:53Z</time>
      </trkpt>
      <trkpt lat="44.78875" lon="6.28112">
        <ele>2592</ele>
        <time>2021-07-07T07:44:34Z</time>
      </trkpt>
      <trkpt lat="44.78873" lon="6.28146">
        <ele>2589</ele>
        <time>2021-07-07T07:44:21Z</time>
      </trkpt>
      <trkpt lat="44.7888" lon="6.28179">
        <ele>2587</ele>
        <time>2021-07-07T07:44:09Z</time>
      </trkpt>
      <trkpt lat="44.78911" lon="6.28169">
        <ele>2599</ele>
        <time>2021-07-07T07:43:53Z</time>
      </trkpt>
      <trkpt lat="44.78909" lon="6.28183">
        <ele>2594</ele>
        <time>2021-07-07T07:43:48Z</time>
      </trkpt>
      <trkpt lat="44.78941" lon="6.2818">
        <ele>2590</ele>
        <time>2021-07-07T07:43:32Z</time>
      </trkpt>
      <trkpt lat="44.78968" lon="6.28164">
        <ele>2588</ele>
        <time>2021-07-07T07:43:17Z</time>
      </trkpt>
      <trkpt lat="44.78992" lon="6.28163">
        <ele>2582</ele>
        <time>2021-07-07T07:43:05Z</time>
      </trkpt>
      <trkpt lat="44.78995" lon="6.28177">
        <ele>2576</ele>
        <time>2021-07-07T07:43:00Z</time>
      </trkpt>
      <trkpt lat="44.79018" lon="6.28164">
        <ele>2577</ele>
        <time>2021-07-07T07:42:48Z</time>
      </trkpt>
      <trkpt lat="44.79036" lon="6.2817">
        <ele>2572</ele>
        <time>2021-07-07T07:42:39Z</time>
      </trkpt>
      <trkpt lat="44.79021" lon="6.28177">
        <ele>2572</ele>
        <time>2021-07-07T07:42:31Z</time>
      </trkpt>
      <trkpt lat="44.79017" lon="6.28196">
        <ele>2566</ele>
        <time>2021-07-07T07:42:24Z</time>
      </trkpt>
      <trkpt lat="44.79027" lon="6.28191">
        <ele>2566</ele>
        <time>2021-07-07T07:42:18Z</time>
      </trkpt>
      <trkpt lat="44.79027" lon="6.28216">
        <ele>2558</ele>
        <time>2021-07-07T07:42:09Z</time>
      </trkpt>
      <trkpt lat="44.79037" lon="6.2821">
        <ele>2559</ele>
        <time>2021-07-07T07:42:04Z</time>
      </trkpt>
      <trkpt lat="44.79039" lon="6.2824">
        <ele>2549</ele>
        <time>2021-07-07T07:41:53Z</time>
      </trkpt>
      <trkpt lat="44.79035" lon="6.28253">
        <ele>2545</ele>
        <time>2021-07-07T07:41:48Z</time>
      </trkpt>
      <trkpt lat="44.79041" lon="6.28254">
        <ele>2544</ele>
        <time>2021-07-07T07:41:45Z</time>
      </trkpt>
      <trkpt lat="44.7905" lon="6.28234">
        <ele>2549</ele>
        <time>2021-07-07T07:41:37Z</time>
      </trkpt>
      <trkpt lat="44.79062" lon="6.28244">
        <ele>2545</ele>
        <time>2021-07-07T07:41:30Z</time>
      </trkpt>
      <trkpt lat="44.79079" lon="6.28253">
        <ele>2540</ele>
        <time>2021-07-07T07:41:21Z</time>
      </trkpt>
      <trkpt lat="44.79113" lon="6.28253">
        <ele>2544</ele>
        <time>2021-07-07T07:41:04Z</time>
      </trkpt>
      <trkpt lat="44.79119" lon="6.28273">
        <ele>2540</ele>
        <time>2021-07-07T07:40:56Z</time>
      </trkpt>
      <trkpt lat="44.79113" lon="6.28302">
        <ele>2531</ele>
        <time>2021-07-07T07:40:45Z</time>
      </trkpt>
      <trkpt lat="44.79099" lon="6.2834">
        <ele>2518</ele>
        <time>2021-07-07T07:40:30Z</time>
      </trkpt>
      <trkpt lat="44.79108" lon="6.28364">
        <ele>2510</ele>
        <time>2021-07-07T07:40:21Z</time>
      </trkpt>
      <trkpt lat="44.7913" lon="6.28379">
        <ele>2506</ele>
        <time>2021-07-07T07:40:08Z</time>
      </trkpt>
      <trkpt lat="44.79135" lon="6.2837">
        <ele>2510</ele>
        <time>2021-07-07T07:40:04Z</time>
      </trkpt>
      <trkpt lat="44.79147" lon="6.28379">
        <ele>2507</ele>
        <time>2021-07-07T07:39:57Z</time>
      </trkpt>
      <trkpt lat="44.7916" lon="6.28394">
        <ele>2502</ele>
        <time>2021-07-07T07:39:49Z</time>
      </trkpt>
      <trkpt lat="44.79151" lon="6.28399">
        <ele>2500</ele>
        <time>2021-07-07T07:39:44Z</time>
      </trkpt>
      <trkpt lat="44.7914" lon="6.28415">
        <ele>2493</ele>
        <time>2021-07-07T07:39:36Z</time>
      </trkpt>
      <trkpt lat="44.79149" lon="6.28422">
        <ele>2490</ele>
        <time>2021-07-07T07:39:31Z</time>
      </trkpt>
      <trkpt lat="44.79151" lon="6.28433">
        <ele>2486</ele>
        <time>2021-07-07T07:39:27Z</time>
      </trkpt>
      <trkpt lat="44.7914" lon="6.28433">
        <ele>2485</ele>
        <time>2021-07-07T07:39:22Z</time>
      </trkpt>
      <trkpt lat="44.79152" lon="6.28442">
        <ele>2482</ele>
        <time>2021-07-07T07:39:15Z</time>
      </trkpt>
      <trkpt lat="44.79138" lon="6.28441">
        <ele>2481</ele>
        <time>2021-07-07T07:39:08Z</time>
      </trkpt>
      <trkpt lat="44.7915" lon="6.28449">
        <ele>2478</ele>
        <time>2021-07-07T07:39:01Z</time>
      </trkpt>
      <trkpt lat="44.79131" lon="6.28455">
        <ele>2475</ele>
        <time>2021-07-07T07:38:51Z</time>
      </trkpt>
      <trkpt lat="44.79152" lon="6.28464">
        <ele>2472</ele>
        <time>2021-07-07T07:38:40Z</time>
      </trkpt>
      <trkpt lat="44.79118" lon="6.28467">
        <ele>2469</ele>
        <time>2021-07-07T07:38:23Z</time>
      </trkpt>
      <trkpt lat="44.79149" lon="6.28479">
        <ele>2465</ele>
        <time>2021-07-07T07:38:07Z</time>
      </trkpt>
      <trkpt lat="44.79163" lon="6.28472">
        <ele>2469</ele>
        <time>2021-07-07T07:38:00Z</time>
      </trkpt>
      <trkpt lat="44.79176" lon="6.28473">
        <ele>2471</ele>
        <time>2021-07-07T07:37:53Z</time>
      </trkpt>
      <trkpt lat="44.7915" lon="6.285">
        <ele>2456</ele>
        <time>2021-07-07T07:37:37Z</time>
      </trkpt>
      <trkpt lat="44.7913" lon="6.28514">
        <ele>2452</ele>
        <time>2021-07-07T07:37:26Z</time>
      </trkpt>
      <trkpt lat="44.79104" lon="6.28521">
        <ele>2450</ele>
        <time>2021-07-07T07:37:13Z</time>
      </trkpt>
      <trkpt lat="44.79126" lon="6.28539">
        <ele>2445</ele>
        <time>2021-07-07T07:37:00Z</time>
      </trkpt>
      <trkpt lat="44.79145" lon="6.28526">
        <ele>2449</ele>
        <time>2021-07-07T07:36:49Z</time>
      </trkpt>
      <trkpt lat="44.79146" lon="6.28545">
        <ele>2443</ele>
        <time>2021-07-07T07:36:43Z</time>
      </trkpt>
      <trkpt lat="44.79161" lon="6.28561">
        <ele>2439</ele>
        <time>2021-07-07T07:36:33Z</time>
      </trkpt>
      <trkpt lat="44.79175" lon="6.28557">
        <ele>2442</ele>
        <time>2021-07-07T07:36:26Z</time>
      </trkpt>
      <trkpt lat="44.7918" lon="6.28584">
        <ele>2435</ele>
        <time>2021-07-07T07:36:16Z</time>
      </trkpt>
      <trkpt lat="44.79195" lon="6.28592">
        <ele>2436</ele>
        <time>2021-07-07T07:36:08Z</time>
      </trkpt>
      <trkpt lat="44.79215" lon="6.28621">
        <ele>2431</ele>
        <time>2021-07-07T07:35:54Z</time>
      </trkpt>
      <trkpt lat="44.79229" lon="6.2865">
        <ele>2425</ele>
        <time>2021-07-07T07:35:41Z</time>
      </trkpt>
      <trkpt lat="44.79245" lon="6.28655">
        <ele>2425</ele>
        <time>2021-07-07T07:35:33Z</time>
      </trkpt>
      <trkpt lat="44.79249" lon="6.28684">
        <ele>2418</ele>
        <time>2021-07-07T07:35:23Z</time>
      </trkpt>
      <trkpt lat="44.79268" lon="6.28704">
        <ele>2411</ele>
        <time>2021-07-07T07:35:11Z</time>
      </trkpt>
      <trkpt lat="44.7929" lon="6.28712">
        <ele>2406</ele>
        <time>2021-07-07T07:34:59Z</time>
      </trkpt>
      <trkpt lat="44.79301" lon="6.28709">
        <ele>2406</ele>
        <time>2021-07-07T07:34:54Z</time>
      </trkpt>
      <trkpt lat="44.79324" lon="6.2872">
        <ele>2399</ele>
        <time>2021-07-07T07:34:42Z</time>
      </trkpt>
      <trkpt lat="44.79338" lon="6.2872">
        <ele>2396</ele>
        <time>2021-07-07T07:34:35Z</time>
      </trkpt>
      <trkpt lat="44.79378" lon="6.28712">
        <ele>2385</ele>
        <time>2021-07-07T07:34:14Z</time>
      </trkpt>
      <trkpt lat="44.7942" lon="6.28684">
        <ele>2378</ele>
        <time>2021-07-07T07:33:51Z</time>
      </trkpt>
      <trkpt lat="44.79475" lon="6.28655">
        <ele>2369</ele>
        <time>2021-07-07T07:33:22Z</time>
      </trkpt>
      <trkpt lat="44.79418" lon="6.28743">
        <ele>2361</ele>
        <time>2021-07-07T07:32:39Z</time>
      </trkpt>
      <trkpt lat="44.79456" lon="6.28733">
        <ele>2353</ele>
        <time>2021-07-07T07:32:20Z</time>
      </trkpt>
      <trkpt lat="44.79473" lon="6.28733">
        <ele>2348</ele>
        <time>2021-07-07T07:32:12Z</time>
      </trkpt>
      <trkpt lat="44.79486" lon="6.2873">
        <ele>2345</ele>
        <time>2021-07-07T07:32:05Z</time>
      </trkpt>
      <trkpt lat="44.79502" lon="6.28741">
        <ele>2338</ele>
        <time>2021-07-07T07:31:56Z</time>
      </trkpt>
      <trkpt lat="44.79509" lon="6.28739">
        <ele>2337</ele>
        <time>2021-07-07T07:31:53Z</time>
      </trkpt>
      <trkpt lat="44.7952" lon="6.28749">
        <ele>2333</ele>
        <time>2021-07-07T07:31:46Z</time>
      </trkpt>
      <trkpt lat="44.79527" lon="6.2875">
        <ele>2331</ele>
        <time>2021-07-07T07:31:42Z</time>
      </trkpt>
      <trkpt lat="44.79534" lon="6.28747">
        <ele>2331</ele>
        <time>2021-07-07T07:31:39Z</time>
      </trkpt>
      <trkpt lat="44.79549" lon="6.28746">
        <ele>2328</ele>
        <time>2021-07-07T07:31:31Z</time>
      </trkpt>
      <trkpt lat="44.79553" lon="6.28742">
        <ele>2328</ele>
        <time>2021-07-07T07:31:29Z</time>
      </trkpt>
      <trkpt lat="44.79568" lon="6.28748">
        <ele>2325</ele>
        <time>2021-07-07T07:31:21Z</time>
      </trkpt>
      <trkpt lat="44.79588" lon="6.28745">
        <ele>2321</ele>
        <time>2021-07-07T07:31:11Z</time>
      </trkpt>
      <trkpt lat="44.79608" lon="6.28738">
        <ele>2316</ele>
        <time>2021-07-07T07:31:01Z</time>
      </trkpt>
      <trkpt lat="44.79617" lon="6.28728">
        <ele>2314</ele>
        <time>2021-07-07T07:30:55Z</time>
      </trkpt>
      <trkpt lat="44.7962" lon="6.2872">
        <ele>2314</ele>
        <time>2021-07-07T07:30:52Z</time>
      </trkpt>
      <trkpt lat="44.79639" lon="6.28755">
        <ele>2304</ele>
        <time>2021-07-07T07:30:36Z</time>
      </trkpt>
      <trkpt lat="44.79653" lon="6.28771">
        <ele>2298</ele>
        <time>2021-07-07T07:30:27Z</time>
      </trkpt>
      <trkpt lat="44.79663" lon="6.28774">
        <ele>2295</ele>
        <time>2021-07-07T07:30:22Z</time>
      </trkpt>
      <trkpt lat="44.7967" lon="6.28782">
        <ele>2293</ele>
        <time>2021-07-07T07:30:17Z</time>
      </trkpt>
      <trkpt lat="44.79693" lon="6.28796">
        <ele>2291</ele>
        <time>2021-07-07T07:30:05Z</time>
      </trkpt>
      <trkpt lat="44.79714" lon="6.28813">
        <ele>2288</ele>
        <time>2021-07-07T07:29:53Z</time>
      </trkpt>
      <trkpt lat="44.79755" lon="6.28832">
        <ele>2284</ele>
        <time>2021-07-07T07:29:31Z</time>
      </trkpt>
      <trkpt lat="44.79809" lon="6.2887">
        <ele>2281</ele>
        <time>2021-07-07T07:29:01Z</time>
      </trkpt>
      <trkpt lat="44.79811" lon="6.28873">
        <ele>2281</ele>
        <time>2021-07-07T07:29:00Z</time>
      </trkpt>
      <trkpt lat="44.79811" lon="6.28891">
        <ele>2280</ele>
        <time>2021-07-07T07:28:53Z</time>
      </trkpt>
      <trkpt lat="44.79808" lon="6.28893">
        <ele>2280</ele>
        <time>2021-07-07T07:28:51Z</time>
      </trkpt>
      <trkpt lat="44.79814" lon="6.289">
        <ele>2279</ele>
        <time>2021-07-07T07:28:48Z</time>
      </trkpt>
      <trkpt lat="44.79816" lon="6.28898">
        <ele>2279</ele>
        <time>2021-07-07T07:28:46Z</time>
      </trkpt>
      <trkpt lat="44.7983" lon="6.28903">
        <ele>2279</ele>
        <time>2021-07-07T07:28:39Z</time>
      </trkpt>
      <trkpt lat="44.79833" lon="6.28918">
        <ele>2278</ele>
        <time>2021-07-07T07:28:34Z</time>
      </trkpt>
      <trkpt lat="44.79843" lon="6.28926">
        <ele>2277</ele>
        <time>2021-07-07T07:28:28Z</time>
      </trkpt>
      <trkpt lat="44.79843" lon="6.28926">
        <ele>2277</ele>
        <time>2021-07-07T07:28:28Z</time>
      </trkpt>
      <trkpt lat="44.79847" lon="6.2894">
        <ele>2276</ele>
        <time>2021-07-07T07:28:22Z</time>
      </trkpt>
      <trkpt lat="44.79848" lon="6.28994">
        <ele>2273</ele>
        <time>2021-07-07T07:28:03Z</time>
      </trkpt>
      <trkpt lat="44.79847" lon="6.29004">
        <ele>2273</ele>
        <time>2021-07-07T07:28:00Z</time>
      </trkpt>
      <trkpt lat="44.79835" lon="6.29021">
        <ele>2273</ele>
        <time>2021-07-07T07:27:51Z</time>
      </trkpt>
      <trkpt lat="44.79821" lon="6.2903">
        <ele>2273</ele>
        <time>2021-07-07T07:27:43Z</time>
      </trkpt>
      <trkpt lat="44.79817" lon="6.2903">
        <ele>2273</ele>
        <time>2021-07-07T07:27:41Z</time>
      </trkpt>
      <trkpt lat="44.79817" lon="6.29052">
        <ele>2273</ele>
        <time>2021-07-07T07:27:34Z</time>
      </trkpt>
      <trkpt lat="44.7981" lon="6.29093">
        <ele>2272</ele>
        <time>2021-07-07T07:27:19Z</time>
      </trkpt>
      <trkpt lat="44.79804" lon="6.29109">
        <ele>2271</ele>
        <time>2021-07-07T07:27:12Z</time>
      </trkpt>
      <trkpt lat="44.79799" lon="6.29112">
        <ele>2271</ele>
        <time>2021-07-07T07:27:10Z</time>
      </trkpt>
      <trkpt lat="44.79797" lon="6.29127">
        <ele>2271</ele>
        <time>2021-07-07T07:27:04Z</time>
      </trkpt>
      <trkpt lat="44.79799" lon="6.29145">
        <ele>2270</ele>
        <time>2021-07-07T07:26:58Z</time>
      </trkpt>
      <trkpt lat="44.79807" lon="6.2917">
        <ele>2269</ele>
        <time>2021-07-07T07:26:48Z</time>
      </trkpt>
      <trkpt lat="44.79836" lon="6.29198">
        <ele>2265</ele>
        <time>2021-07-07T07:26:30Z</time>
      </trkpt>
      <trkpt lat="44.79842" lon="6.29201">
        <ele>2264</ele>
        <time>2021-07-07T07:26:27Z</time>
      </trkpt>
      <trkpt lat="44.79854" lon="6.29189">
        <ele>2263</ele>
        <time>2021-07-07T07:26:20Z</time>
      </trkpt>
      <trkpt lat="44.7986" lon="6.29188">
        <ele>2263</ele>
        <time>2021-07-07T07:26:17Z</time>
      </trkpt>
      <trkpt lat="44.79857" lon="6.29205">
        <ele>2261</ele>
        <time>2021-07-07T07:26:11Z</time>
      </trkpt>
      <trkpt lat="44.79882" lon="6.29199">
        <ele>2258</ele>
        <time>2021-07-07T07:25:58Z</time>
      </trkpt>
      <trkpt lat="44.799" lon="6.29194">
        <ele>2256</ele>
        <time>2021-07-07T07:25:49Z</time>
      </trkpt>
      <trkpt lat="44.79915" lon="6.29187">
        <ele>2255</ele>
        <time>2021-07-07T07:25:41Z</time>
      </trkpt>
      <trkpt lat="44.79925" lon="6.29179">
        <ele>2254</ele>
        <time>2021-07-07T07:25:35Z</time>
      </trkpt>
      <trkpt lat="44.79982" lon="6.29158">
        <ele>2244</ele>
        <time>2021-07-07T07:25:06Z</time>
      </trkpt>
      <trkpt lat="44.79988" lon="6.29161">
        <ele>2243</ele>
        <time>2021-07-07T07:25:02Z</time>
      </trkpt>
      <trkpt lat="44.79999" lon="6.29156">
        <ele>2241</ele>
        <time>2021-07-07T07:24:57Z</time>
      </trkpt>
      <trkpt lat="44.80016" lon="6.29153">
        <ele>2236</ele>
        <time>2021-07-07T07:24:48Z</time>
      </trkpt>
      <trkpt lat="44.80018" lon="6.29154">
        <ele>2235</ele>
        <time>2021-07-07T07:24:47Z</time>
      </trkpt>
      <trkpt lat="44.80018" lon="6.2916">
        <ele>2235</ele>
        <time>2021-07-07T07:24:45Z</time>
      </trkpt>
      <trkpt lat="44.80026" lon="6.29169">
        <ele>2231</ele>
        <time>2021-07-07T07:24:40Z</time>
      </trkpt>
      <trkpt lat="44.80066" lon="6.29184">
        <ele>2217</ele>
        <time>2021-07-07T07:24:19Z</time>
      </trkpt>
      <trkpt lat="44.80078" lon="6.29191">
        <ele>2213</ele>
        <time>2021-07-07T07:24:12Z</time>
      </trkpt>
      <trkpt lat="44.80079" lon="6.29201">
        <ele>2211</ele>
        <time>2021-07-07T07:24:09Z</time>
      </trkpt>
      <trkpt lat="44.80075" lon="6.29213">
        <ele>2212</ele>
        <time>2021-07-07T07:24:04Z</time>
      </trkpt>
      <trkpt lat="44.80076" lon="6.29224">
        <ele>2210</ele>
        <time>2021-07-07T07:24:00Z</time>
      </trkpt>
      <trkpt lat="44.80079" lon="6.29222">
        <ele>2210</ele>
        <time>2021-07-07T07:23:59Z</time>
      </trkpt>
      <trkpt lat="44.80084" lon="6.2921">
        <ele>2209</ele>
        <time>2021-07-07T07:23:54Z</time>
      </trkpt>
      <trkpt lat="44.80086" lon="6.29214">
        <ele>2208</ele>
        <time>2021-07-07T07:23:52Z</time>
      </trkpt>
      <trkpt lat="44.80107" lon="6.29185">
        <ele>2200</ele>
        <time>2021-07-07T07:23:37Z</time>
      </trkpt>
      <trkpt lat="44.80107" lon="6.29179">
        <ele>2201</ele>
        <time>2021-07-07T07:23:35Z</time>
      </trkpt>
      <trkpt lat="44.80097" lon="6.2917">
        <ele>2206</ele>
        <time>2021-07-07T07:23:29Z</time>
      </trkpt>
      <trkpt lat="44.80111" lon="6.29171">
        <ele>2200</ele>
        <time>2021-07-07T07:23:22Z</time>
      </trkpt>
      <trkpt lat="44.80123" lon="6.29176">
        <ele>2194</ele>
        <time>2021-07-07T07:23:16Z</time>
      </trkpt>
      <trkpt lat="44.80125" lon="6.29179">
        <ele>2192</ele>
        <time>2021-07-07T07:23:14Z</time>
      </trkpt>
      <trkpt lat="44.80123" lon="6.29201">
        <ele>2192</ele>
        <time>2021-07-07T07:23:06Z</time>
      </trkpt>
      <trkpt lat="44.80126" lon="6.29214">
        <ele>2189</ele>
        <time>2021-07-07T07:23:02Z</time>
      </trkpt>
      <trkpt lat="44.80123" lon="6.29223">
        <ele>2190</ele>
        <time>2021-07-07T07:22:58Z</time>
      </trkpt>
      <trkpt lat="44.80141" lon="6.29212">
        <ele>2182</ele>
        <time>2021-07-07T07:22:48Z</time>
      </trkpt>
      <trkpt lat="44.80143" lon="6.29208">
        <ele>2182</ele>
        <time>2021-07-07T07:22:47Z</time>
      </trkpt>
      <trkpt lat="44.8014" lon="6.29198">
        <ele>2184</ele>
        <time>2021-07-07T07:22:43Z</time>
      </trkpt>
      <trkpt lat="44.80141" lon="6.29192">
        <ele>2184</ele>
        <time>2021-07-07T07:22:40Z</time>
      </trkpt>
      <trkpt lat="44.80143" lon="6.29198">
        <ele>2182</ele>
        <time>2021-07-07T07:22:38Z</time>
      </trkpt>
      <trkpt lat="44.8015" lon="6.29201">
        <ele>2179</ele>
        <time>2021-07-07T07:22:34Z</time>
      </trkpt>
      <trkpt lat="44.80153" lon="6.29213">
        <ele>2177</ele>
        <time>2021-07-07T07:22:30Z</time>
      </trkpt>
      <trkpt lat="44.80159" lon="6.29201">
        <ele>2175</ele>
        <time>2021-07-07T07:22:25Z</time>
      </trkpt>
      <trkpt lat="44.80159" lon="6.2921">
        <ele>2174</ele>
        <time>2021-07-07T07:22:22Z</time>
      </trkpt>
      <trkpt lat="44.80165" lon="6.29201">
        <ele>2172</ele>
        <time>2021-07-07T07:22:17Z</time>
      </trkpt>
      <trkpt lat="44.80164" lon="6.29192">
        <ele>2173</ele>
        <time>2021-07-07T07:22:14Z</time>
      </trkpt>
      <trkpt lat="44.80171" lon="6.29193">
        <ele>2169</ele>
        <time>2021-07-07T07:22:10Z</time>
      </trkpt>
      <trkpt lat="44.80173" lon="6.29196">
        <ele>2168</ele>
        <time>2021-07-07T07:22:09Z</time>
      </trkpt>
      <trkpt lat="44.8017" lon="6.29214">
        <ele>2168</ele>
        <time>2021-07-07T07:22:02Z</time>
      </trkpt>
      <trkpt lat="44.80183" lon="6.29203">
        <ele>2162</ele>
        <time>2021-07-07T07:21:55Z</time>
      </trkpt>
      <trkpt lat="44.80189" lon="6.29184">
        <ele>2160</ele>
        <time>2021-07-07T07:21:47Z</time>
      </trkpt>
      <trkpt lat="44.80193" lon="6.2919">
        <ele>2158</ele>
        <time>2021-07-07T07:21:44Z</time>
      </trkpt>
      <trkpt lat="44.80184" lon="6.29237">
        <ele>2160</ele>
        <time>2021-07-07T07:21:27Z</time>
      </trkpt>
      <trkpt lat="44.80194" lon="6.2923">
        <ele>2155</ele>
        <time>2021-07-07T07:21:22Z</time>
      </trkpt>
      <trkpt lat="44.80211" lon="6.29203">
        <ele>2147</ele>
        <time>2021-07-07T07:21:09Z</time>
      </trkpt>
      <trkpt lat="44.80209" lon="6.29242">
        <ele>2147</ele>
        <time>2021-07-07T07:20:55Z</time>
      </trkpt>
      <trkpt lat="44.80215" lon="6.29249">
        <ele>2144</ele>
        <time>2021-07-07T07:20:51Z</time>
      </trkpt>
      <trkpt lat="44.80226" lon="6.292">
        <ele>2140</ele>
        <time>2021-07-07T07:20:33Z</time>
      </trkpt>
      <trkpt lat="44.80246" lon="6.29158">
        <ele>2129</ele>
        <time>2021-07-07T07:20:15Z</time>
      </trkpt>
      <trkpt lat="44.80239" lon="6.29143">
        <ele>2134</ele>
        <time>2021-07-07T07:20:08Z</time>
      </trkpt>
      <trkpt lat="44.80254" lon="6.29154">
        <ele>2125</ele>
        <time>2021-07-07T07:20:00Z</time>
      </trkpt>
      <trkpt lat="44.80257" lon="6.29165">
        <ele>2123</ele>
        <time>2021-07-07T07:19:56Z</time>
      </trkpt>
      <trkpt lat="44.8025" lon="6.29183">
        <ele>2126</ele>
        <time>2021-07-07T07:19:48Z</time>
      </trkpt>
      <trkpt lat="44.80265" lon="6.29222">
        <ele>2121</ele>
        <time>2021-07-07T07:19:33Z</time>
      </trkpt>
      <trkpt lat="44.8026" lon="6.29231">
        <ele>2123</ele>
        <time>2021-07-07T07:19:29Z</time>
      </trkpt>
      <trkpt lat="44.80279" lon="6.29226">
        <ele>2115</ele>
        <time>2021-07-07T07:19:19Z</time>
      </trkpt>
      <trkpt lat="44.80287" lon="6.29213">
        <ele>2111</ele>
        <time>2021-07-07T07:19:13Z</time>
      </trkpt>
      <trkpt lat="44.80312" lon="6.29163">
        <ele>2098</ele>
        <time>2021-07-07T07:18:51Z</time>
      </trkpt>
      <trkpt lat="44.80308" lon="6.29148">
        <ele>2100</ele>
        <time>2021-07-07T07:18:45Z</time>
      </trkpt>
      <trkpt lat="44.80294" lon="6.29124">
        <ele>2106</ele>
        <time>2021-07-07T07:18:34Z</time>
      </trkpt>
      <trkpt lat="44.80299" lon="6.291">
        <ele>2103</ele>
        <time>2021-07-07T07:18:26Z</time>
      </trkpt>
      <trkpt lat="44.80309" lon="6.29123">
        <ele>2098</ele>
        <time>2021-07-07T07:18:16Z</time>
      </trkpt>
      <trkpt lat="44.80329" lon="6.29137">
        <ele>2089</ele>
        <time>2021-07-07T07:18:05Z</time>
      </trkpt>
      <trkpt lat="44.8036" lon="6.29142">
        <ele>2079</ele>
        <time>2021-07-07T07:17:49Z</time>
      </trkpt>
      <trkpt lat="44.80383" lon="6.29153">
        <ele>2072</ele>
        <time>2021-07-07T07:17:37Z</time>
      </trkpt>
      <trkpt lat="44.80383" lon="6.29165">
        <ele>2073</ele>
        <time>2021-07-07T07:17:33Z</time>
      </trkpt>
      <trkpt lat="44.80388" lon="6.29183">
        <ele>2072</ele>
        <time>2021-07-07T07:17:26Z</time>
      </trkpt>
      <trkpt lat="44.80376" lon="6.29199">
        <ele>2076</ele>
        <time>2021-07-07T07:17:18Z</time>
      </trkpt>
      <trkpt lat="44.80374" lon="6.29213">
        <ele>2077</ele>
        <time>2021-07-07T07:17:13Z</time>
      </trkpt>
      <trkpt lat="44.80388" lon="6.29227">
        <ele>2073</ele>
        <time>2021-07-07T07:17:04Z</time>
      </trkpt>
      <trkpt lat="44.80407" lon="6.29223">
        <ele>2067</ele>
        <time>2021-07-07T07:16:54Z</time>
      </trkpt>
      <trkpt lat="44.80425" lon="6.29233">
        <ele>2062</ele>
        <time>2021-07-07T07:16:45Z</time>
      </trkpt>
      <trkpt lat="44.80449" lon="6.2924">
        <ele>2055</ele>
        <time>2021-07-07T07:16:32Z</time>
      </trkpt>
      <trkpt lat="44.8048" lon="6.29255">
        <ele>2047</ele>
        <time>2021-07-07T07:16:16Z</time>
      </trkpt>
      <trkpt lat="44.80497" lon="6.29268">
        <ele>2042</ele>
        <time>2021-07-07T07:16:06Z</time>
      </trkpt>
      <trkpt lat="44.80497" lon="6.29293">
        <ele>2043</ele>
        <time>2021-07-07T07:15:57Z</time>
      </trkpt>
      <trkpt lat="44.80519" lon="6.29306">
        <ele>2033</ele>
        <time>2021-07-07T07:15:46Z</time>
      </trkpt>
      <trkpt lat="44.80521" lon="6.29314">
        <ele>2032</ele>
        <time>2021-07-07T07:15:43Z</time>
      </trkpt>
      <trkpt lat="44.80508" lon="6.29353">
        <ele>2042</ele>
        <time>2021-07-07T07:15:27Z</time>
      </trkpt>
      <trkpt lat="44.80528" lon="6.2941">
        <ele>2034</ele>
        <time>2021-07-07T07:15:05Z</time>
      </trkpt>
      <trkpt lat="44.80531" lon="6.29373">
        <ele>2029</ele>
        <time>2021-07-07T07:14:51Z</time>
      </trkpt>
      <trkpt lat="44.80536" lon="6.29358">
        <ele>2025</ele>
        <time>2021-07-07T07:14:46Z</time>
      </trkpt>
      <trkpt lat="44.80541" lon="6.29384">
        <ele>2023</ele>
        <time>2021-07-07T07:14:36Z</time>
      </trkpt>
      <trkpt lat="44.80595" lon="6.29524">
        <ele>1990</ele>
        <time>2021-07-07T07:13:39Z</time>
      </trkpt>
      <trkpt lat="44.80597" lon="6.29463">
        <ele>1983</ele>
        <time>2021-07-07T07:13:18Z</time>
      </trkpt>
      <trkpt lat="44.80604" lon="6.2941">
        <ele>1979</ele>
        <time>2021-07-07T07:12:59Z</time>
      </trkpt>
      <trkpt lat="44.80631" lon="6.29492">
        <ele>1958</ele>
        <time>2021-07-07T07:12:26Z</time>
      </trkpt>
      <trkpt lat="44.80664" lon="6.29569">
        <ele>1944</ele>
        <time>2021-07-07T07:11:55Z</time>
      </trkpt>
      <trkpt lat="44.80665" lon="6.29494">
        <ele>1931</ele>
        <time>2021-07-07T07:11:28Z</time>
      </trkpt>
      <trkpt lat="44.80669" lon="6.29458">
        <ele>1933</ele>
        <time>2021-07-07T07:11:15Z</time>
      </trkpt>
      <trkpt lat="44.80684" lon="6.2942">
        <ele>1929</ele>
        <time>2021-07-07T07:11:00Z</time>
      </trkpt>
      <trkpt lat="44.80695" lon="6.29486">
        <ele>1916</ele>
        <time>2021-07-07T07:10:35Z</time>
      </trkpt>
      <trkpt lat="44.80725" lon="6.29563">
        <ele>1904</ele>
        <time>2021-07-07T07:10:04Z</time>
      </trkpt>
      <trkpt lat="44.80731" lon="6.29492">
        <ele>1897</ele>
        <time>2021-07-07T07:09:39Z</time>
      </trkpt>
      <trkpt lat="44.80744" lon="6.2946">
        <ele>1893</ele>
        <time>2021-07-07T07:09:26Z</time>
      </trkpt>
      <trkpt lat="44.80751" lon="6.29503">
        <ele>1886</ele>
        <time>2021-07-07T07:09:10Z</time>
      </trkpt>
      <trkpt lat="44.80776" lon="6.29565">
        <ele>1875</ele>
        <time>2021-07-07T07:08:45Z</time>
      </trkpt>
      <trkpt lat="44.80783" lon="6.2953">
        <ele>1871</ele>
        <time>2021-07-07T07:08:32Z</time>
      </trkpt>
      <trkpt lat="44.80791" lon="6.29509">
        <ele>1867</ele>
        <time>2021-07-07T07:08:23Z</time>
      </trkpt>
      <trkpt lat="44.80801" lon="6.29557">
        <ele>1861</ele>
        <time>2021-07-07T07:08:06Z</time>
      </trkpt>
      <trkpt lat="44.80823" lon="6.29503">
        <ele>1852</ele>
        <time>2021-07-07T07:07:44Z</time>
      </trkpt>
      <trkpt lat="44.80839" lon="6.29477">
        <ele>1847</ele>
        <time>2021-07-07T07:07:31Z</time>
      </trkpt>
      <trkpt lat="44.80858" lon="6.29466">
        <ele>1842</ele>
        <time>2021-07-07T07:07:21Z</time>
      </trkpt>
      <trkpt lat="44.80851" lon="6.29489">
        <ele>1842</ele>
        <time>2021-07-07T07:07:12Z</time>
      </trkpt>
      <trkpt lat="44.80857" lon="6.2954">
        <ele>1834</ele>
        <time>2021-07-07T07:06:54Z</time>
      </trkpt>
      <trkpt lat="44.80861" lon="6.29556">
        <ele>1831</ele>
        <time>2021-07-07T07:06:48Z</time>
      </trkpt>
      <trkpt lat="44.80861" lon="6.29572">
        <ele>1829</ele>
        <time>2021-07-07T07:06:42Z</time>
      </trkpt>
      <trkpt lat="44.80883" lon="6.29556">
        <ele>1821</ele>
        <time>2021-07-07T07:06:30Z</time>
      </trkpt>
      <trkpt lat="44.80891" lon="6.29539">
        <ele>1820</ele>
        <time>2021-07-07T07:06:23Z</time>
      </trkpt>
      <trkpt lat="44.80932" lon="6.29517">
        <ele>1805</ele>
        <time>2021-07-07T07:06:01Z</time>
      </trkpt>
      <trkpt lat="44.8093" lon="6.29529">
        <ele>1804</ele>
        <time>2021-07-07T07:05:56Z</time>
      </trkpt>
      <trkpt lat="44.80941" lon="6.29531">
        <ele>1798</ele>
        <time>2021-07-07T07:05:51Z</time>
      </trkpt>
      <trkpt lat="44.80933" lon="6.29549">
        <ele>1799</ele>
        <time>2021-07-07T07:05:43Z</time>
      </trkpt>
      <trkpt lat="44.80936" lon="6.29559">
        <ele>1795</ele>
        <time>2021-07-07T07:05:39Z</time>
      </trkpt>
      <trkpt lat="44.8093" lon="6.29572">
        <ele>1796</ele>
        <time>2021-07-07T07:05:34Z</time>
      </trkpt>
      <trkpt lat="44.80947" lon="6.2957">
        <ele>1788</ele>
        <time>2021-07-07T07:05:25Z</time>
      </trkpt>
      <trkpt lat="44.80961" lon="6.29556">
        <ele>1783</ele>
        <time>2021-07-07T07:05:17Z</time>
      </trkpt>
      <trkpt lat="44.80964" lon="6.29561">
        <ele>1781</ele>
        <time>2021-07-07T07:05:14Z</time>
      </trkpt>
      <trkpt lat="44.80958" lon="6.29575">
        <ele>1781</ele>
        <time>2021-07-07T07:05:08Z</time>
      </trkpt>
      <trkpt lat="44.80973" lon="6.29573">
        <ele>1774</ele>
        <time>2021-07-07T07:05:01Z</time>
      </trkpt>
      <trkpt lat="44.80981" lon="6.29566">
        <ele>1772</ele>
        <time>2021-07-07T07:04:56Z</time>
      </trkpt>
      <trkpt lat="44.8098" lon="6.29542">
        <ele>1777</ele>
        <time>2021-07-07T07:04:48Z</time>
      </trkpt>
      <trkpt lat="44.80989" lon="6.2953">
        <ele>1775</ele>
        <time>2021-07-07T07:04:41Z</time>
      </trkpt>
      <trkpt lat="44.80994" lon="6.29542">
        <ele>1770</ele>
        <time>2021-07-07T07:04:37Z</time>
      </trkpt>
      <trkpt lat="44.81005" lon="6.29526">
        <ele>1768</ele>
        <time>2021-07-07T07:04:29Z</time>
      </trkpt>
      <trkpt lat="44.81016" lon="6.29531">
        <ele>1761</ele>
        <time>2021-07-07T07:04:23Z</time>
      </trkpt>
      <trkpt lat="44.81033" lon="6.29514">
        <ele>1756</ele>
        <time>2021-07-07T07:04:12Z</time>
      </trkpt>
      <trkpt lat="44.81049" lon="6.29511">
        <ele>1749</ele>
        <time>2021-07-07T07:04:04Z</time>
      </trkpt>
      <trkpt lat="44.81055" lon="6.29506">
        <ele>1746</ele>
        <time>2021-07-07T07:04:01Z</time>
      </trkpt>
      <trkpt lat="44.81075" lon="6.29503">
        <ele>1737</ele>
        <time>2021-07-07T07:03:51Z</time>
      </trkpt>
      <trkpt lat="44.81075" lon="6.29512">
        <ele>1736</ele>
        <time>2021-07-07T07:03:48Z</time>
      </trkpt>
      <trkpt lat="44.81081" lon="6.29526">
        <ele>1731</ele>
        <time>2021-07-07T07:03:42Z</time>
      </trkpt>
      <trkpt lat="44.81079" lon="6.29535">
        <ele>1731</ele>
        <time>2021-07-07T07:03:38Z</time>
      </trkpt>
      <trkpt lat="44.81088" lon="6.29568">
        <ele>1724</ele>
        <time>2021-07-07T07:03:26Z</time>
      </trkpt>
      <trkpt lat="44.81109" lon="6.296">
        <ele>1714</ele>
        <time>2021-07-07T07:03:10Z</time>
      </trkpt>
      <trkpt lat="44.81118" lon="6.2962">
        <ele>1709</ele>
        <time>2021-07-07T07:03:02Z</time>
      </trkpt>
      <trkpt lat="44.81117" lon="6.29644">
        <ele>1705</ele>
        <time>2021-07-07T07:02:53Z</time>
      </trkpt>
      <trkpt lat="44.8111" lon="6.29649">
        <ele>1705</ele>
        <time>2021-07-07T07:02:50Z</time>
      </trkpt>
      <trkpt lat="44.81112" lon="6.29654">
        <ele>1704</ele>
        <time>2021-07-07T07:02:48Z</time>
      </trkpt>
      <trkpt lat="44.8112" lon="6.29656">
        <ele>1702</ele>
        <time>2021-07-07T07:02:43Z</time>
      </trkpt>
      <trkpt lat="44.81132" lon="6.29643">
        <ele>1702</ele>
        <time>2021-07-07T07:02:36Z</time>
      </trkpt>
      <trkpt lat="44.81146" lon="6.29615">
        <ele>1704</ele>
        <time>2021-07-07T07:02:24Z</time>
      </trkpt>
      <trkpt lat="44.8115" lon="6.29601">
        <ele>1705</ele>
        <time>2021-07-07T07:02:18Z</time>
      </trkpt>
      <trkpt lat="44.81155" lon="6.29597">
        <ele>1705</ele>
        <time>2021-07-07T07:02:15Z</time>
      </trkpt>
      <trkpt lat="44.81196" lon="6.29614">
        <ele>1697</ele>
        <time>2021-07-07T07:01:54Z</time>
      </trkpt>
      <trkpt lat="44.81242" lon="6.29649">
        <ele>1688</ele>
        <time>2021-07-07T07:01:28Z</time>
      </trkpt>
      <trkpt lat="44.81267" lon="6.2965">
        <ele>1685</ele>
        <time>2021-07-07T07:01:15Z</time>
      </trkpt>
      <trkpt lat="44.81316" lon="6.2964">
        <ele>1681</ele>
        <time>2021-07-07T07:00:51Z</time>
      </trkpt>
      <trkpt lat="44.81375" lon="6.29617">
        <ele>1674</ele>
        <time>2021-07-07T07:00:20Z</time>
      </trkpt>
      <trkpt lat="44.81416" lon="6.29606">
        <ele>1668</ele>
        <time>2021-07-07T06:59:59Z</time>
      </trkpt>
      <trkpt lat="44.81533" lon="6.29564">
        <ele>1657</ele>
        <time>2021-07-07T06:58:59Z</time>
      </trkpt>
      <trkpt lat="44.81568" lon="6.29565">
        <ele>1653</ele>
        <time>2021-07-07T06:58:41Z</time>
      </trkpt>
      <trkpt lat="44.81601" lon="6.29563">
        <ele>1651</ele>
        <time>2021-07-07T06:58:25Z</time>
      </trkpt>
      <trkpt lat="44.81617" lon="6.29565">
        <ele>1650</ele>
        <time>2021-07-07T06:58:17Z</time>
      </trkpt>
      <trkpt lat="44.8163" lon="6.2956">
        <ele>1650</ele>
        <time>2021-07-07T06:58:10Z</time>
      </trkpt>
      <trkpt lat="44.81667" lon="6.29558">
        <ele>1648</ele>
        <time>2021-07-07T06:57:51Z</time>
      </trkpt>
      <trkpt lat="44.81691" lon="6.29554">
        <ele>1646</ele>
        <time>2021-07-07T06:57:39Z</time>
      </trkpt>
      <trkpt lat="44.817" lon="6.29556">
        <ele>1646</ele>
        <time>2021-07-07T06:57:35Z</time>
      </trkpt>
      <trkpt lat="44.81709" lon="6.29564">
        <ele>1644</ele>
        <time>2021-07-07T06:57:29Z</time>
      </trkpt>
      <trkpt lat="44.81718" lon="6.29565">
        <ele>1643</ele>
        <time>2021-07-07T06:57:25Z</time>
      </trkpt>
      <trkpt lat="44.81723" lon="6.2957">
        <ele>1642</ele>
        <time>2021-07-07T06:57:22Z</time>
      </trkpt>
      <trkpt lat="44.81735" lon="6.29569">
        <ele>1642</ele>
        <time>2021-07-07T06:57:16Z</time>
      </trkpt>
      <trkpt lat="44.81749" lon="6.29564">
        <ele>1641</ele>
        <time>2021-07-07T06:57:09Z</time>
      </trkpt>
      <trkpt lat="44.81751" lon="6.29566">
        <ele>1641</ele>
        <time>2021-07-07T06:57:07Z</time>
      </trkpt>
      <trkpt lat="44.81756" lon="6.29564">
        <ele>1641</ele>
        <time>2021-07-07T06:57:05Z</time>
      </trkpt>
      <trkpt lat="44.81777" lon="6.29568">
        <ele>1638</ele>
        <time>2021-07-07T06:56:54Z</time>
      </trkpt>
      <trkpt lat="44.81793" lon="6.29559">
        <ele>1638</ele>
        <time>2021-07-07T06:56:45Z</time>
      </trkpt>
      <trkpt lat="44.81805" lon="6.29559">
        <ele>1636</ele>
        <time>2021-07-07T06:56:39Z</time>
      </trkpt>
      <trkpt lat="44.81815" lon="6.29556">
        <ele>1636</ele>
        <time>2021-07-07T06:56:34Z</time>
      </trkpt>
      <trkpt lat="44.8182" lon="6.29558">
        <ele>1635</ele>
        <time>2021-07-07T06:56:32Z</time>
      </trkpt>
      <trkpt lat="44.81837" lon="6.29556">
        <ele>1634</ele>
        <time>2021-07-07T06:56:23Z</time>
      </trkpt>
      <trkpt lat="44.81844" lon="6.29558">
        <ele>1633</ele>
        <time>2021-07-07T06:56:20Z</time>
      </trkpt>
      <trkpt lat="44.81851" lon="6.29556">
        <ele>1632</ele>
        <time>2021-07-07T06:56:16Z</time>
      </trkpt>
      <trkpt lat="44.81874" lon="6.29565">
        <ele>1628</ele>
        <time>2021-07-07T06:56:04Z</time>
      </trkpt>
      <trkpt lat="44.81883" lon="6.29562">
        <ele>1628</ele>
        <time>2021-07-07T06:55:59Z</time>
      </trkpt>
      <trkpt lat="44.81897" lon="6.29563">
        <ele>1626</ele>
        <time>2021-07-07T06:55:52Z</time>
      </trkpt>
      <trkpt lat="44.81902" lon="6.29561">
        <ele>1626</ele>
        <time>2021-07-07T06:55:50Z</time>
      </trkpt>
      <trkpt lat="44.81916" lon="6.29564">
        <ele>1624</ele>
        <time>2021-07-07T06:55:43Z</time>
      </trkpt>
      <trkpt lat="44.81926" lon="6.29558">
        <ele>1624</ele>
        <time>2021-07-07T06:55:37Z</time>
      </trkpt>
      <trkpt lat="44.81932" lon="6.29558">
        <ele>1623</ele>
        <time>2021-07-07T06:55:34Z</time>
      </trkpt>
      <trkpt lat="44.81959" lon="6.29548">
        <ele>1621</ele>
        <time>2021-07-07T06:55:20Z</time>
      </trkpt>
      <trkpt lat="44.81967" lon="6.29549">
        <ele>1620</ele>
        <time>2021-07-07T06:55:16Z</time>
      </trkpt>
      <trkpt lat="44.81973" lon="6.29547">
        <ele>1620</ele>
        <time>2021-07-07T06:55:13Z</time>
      </trkpt>
      <trkpt lat="44.81992" lon="6.29536">
        <ele>1619</ele>
        <time>2021-07-07T06:55:03Z</time>
      </trkpt>
      <trkpt lat="44.82021" lon="6.29536">
        <ele>1613</ele>
        <time>2021-07-07T06:54:48Z</time>
      </trkpt>
      <trkpt lat="44.82049" lon="6.29524">
        <ele>1607</ele>
        <time>2021-07-07T06:54:34Z</time>
      </trkpt>
      <trkpt lat="44.82063" lon="6.29527">
        <ele>1604</ele>
        <time>2021-07-07T06:54:27Z</time>
      </trkpt>
      <trkpt lat="44.82078" lon="6.2952">
        <ele>1600</ele>
        <time>2021-07-07T06:54:19Z</time>
      </trkpt>
      <trkpt lat="44.82083" lon="6.29513">
        <ele>1599</ele>
        <time>2021-07-07T06:54:15Z</time>
      </trkpt>
      <trkpt lat="44.82095" lon="6.29508">
        <ele>1597</ele>
        <time>2021-07-07T06:54:09Z</time>
      </trkpt>
      <trkpt lat="44.821" lon="6.2951">
        <ele>1596</ele>
        <time>2021-07-07T06:54:06Z</time>
      </trkpt>
      <trkpt lat="44.82117" lon="6.29505">
        <ele>1592</ele>
        <time>2021-07-07T06:53:58Z</time>
      </trkpt>
      <trkpt lat="44.82134" lon="6.29496">
        <ele>1589</ele>
        <time>2021-07-07T06:53:49Z</time>
      </trkpt>
      <trkpt lat="44.82156" lon="6.29469">
        <ele>1590</ele>
        <time>2021-07-07T06:53:34Z</time>
      </trkpt>
      <trkpt lat="44.82164" lon="6.29467">
        <ele>1589</ele>
        <time>2021-07-07T06:53:30Z</time>
      </trkpt>
      <trkpt lat="44.82179" lon="6.29453">
        <ele>1589</ele>
        <time>2021-07-07T06:53:21Z</time>
      </trkpt>
      <trkpt lat="44.82184" lon="6.29444">
        <ele>1590</ele>
        <time>2021-07-07T06:53:17Z</time>
      </trkpt>
      <trkpt lat="44.822" lon="6.29429">
        <ele>1590</ele>
        <time>2021-07-07T06:53:07Z</time>
      </trkpt>
      <trkpt lat="44.82208" lon="6.29417">
        <ele>1591</ele>
        <time>2021-07-07T06:53:01Z</time>
      </trkpt>
      <trkpt lat="44.82222" lon="6.29405">
        <ele>1592</ele>
        <time>2021-07-07T06:52:53Z</time>
      </trkpt>
      <trkpt lat="44.82265" lon="6.29386">
        <ele>1589</ele>
        <time>2021-07-07T06:52:31Z</time>
      </trkpt>
      <trkpt lat="44.82278" lon="6.29373">
        <ele>1591</ele>
        <time>2021-07-07T06:52:23Z</time>
      </trkpt>
      <trkpt lat="44.82332" lon="6.2935">
        <ele>1581</ele>
        <time>2021-07-07T06:51:55Z</time>
      </trkpt>
      <trkpt lat="44.82336" lon="6.29352">
        <ele>1580</ele>
        <time>2021-07-07T06:51:52Z</time>
      </trkpt>
      <trkpt lat="44.82347" lon="6.2935">
        <ele>1581</ele>
        <time>2021-07-07T06:51:47Z</time>
      </trkpt>
      <trkpt lat="44.82362" lon="6.29352">
        <ele>1580</ele>
        <time>2021-07-07T06:51:39Z</time>
      </trkpt>
      <trkpt lat="44.82393" lon="6.29343">
        <ele>1580</ele>
        <time>2021-07-07T06:51:23Z</time>
      </trkpt>
      <trkpt lat="44.82405" lon="6.29347">
        <ele>1580</ele>
        <time>2021-07-07T06:51:17Z</time>
      </trkpt>
      <trkpt lat="44.82426" lon="6.29344">
        <ele>1578</ele>
        <time>2021-07-07T06:51:07Z</time>
      </trkpt>
      <trkpt lat="44.82433" lon="6.29337">
        <ele>1577</ele>
        <time>2021-07-07T06:51:02Z</time>
      </trkpt>
      <trkpt lat="44.82439" lon="6.29335">
        <ele>1576</ele>
        <time>2021-07-07T06:50:59Z</time>
      </trkpt>
      <trkpt lat="44.82445" lon="6.29335">
        <ele>1575</ele>
        <time>2021-07-07T06:50:56Z</time>
      </trkpt>
      <trkpt lat="44.82454" lon="6.29344">
        <ele>1573</ele>
        <time>2021-07-07T06:50:51Z</time>
      </trkpt>
      <trkpt lat="44.82462" lon="6.29347">
        <ele>1572</ele>
        <time>2021-07-07T06:50:47Z</time>
      </trkpt>
      <trkpt lat="44.82475" lon="6.29345">
        <ele>1570</ele>
        <time>2021-07-07T06:50:40Z</time>
      </trkpt>
      <trkpt lat="44.82483" lon="6.29341">
        <ele>1568</ele>
        <time>2021-07-07T06:50:36Z</time>
      </trkpt>
      <trkpt lat="44.82489" lon="6.29342">
        <ele>1567</ele>
        <time>2021-07-07T06:50:33Z</time>
      </trkpt>
      <trkpt lat="44.82523" lon="6.29318">
        <ele>1564</ele>
        <time>2021-07-07T06:50:14Z</time>
      </trkpt>
      <trkpt lat="44.8253" lon="6.29318">
        <ele>1563</ele>
        <time>2021-07-07T06:50:10Z</time>
      </trkpt>
      <trkpt lat="44.82534" lon="6.29324">
        <ele>1562</ele>
        <time>2021-07-07T06:50:07Z</time>
      </trkpt>
      <trkpt lat="44.82549" lon="6.29315">
        <ele>1561</ele>
        <time>2021-07-07T06:49:59Z</time>
      </trkpt>
      <trkpt lat="44.8256" lon="6.29313">
        <ele>1559</ele>
        <time>2021-07-07T06:49:54Z</time>
      </trkpt>
      <trkpt lat="44.82573" lon="6.29316">
        <ele>1558</ele>
        <time>2021-07-07T06:49:47Z</time>
      </trkpt>
      <trkpt lat="44.82578" lon="6.29315">
        <ele>1557</ele>
        <time>2021-07-07T06:49:45Z</time>
      </trkpt>
      <trkpt lat="44.82601" lon="6.29294">
        <ele>1557</ele>
        <time>2021-07-07T06:49:31Z</time>
      </trkpt>
      <trkpt lat="44.82607" lon="6.29282">
        <ele>1557</ele>
        <time>2021-07-07T06:49:26Z</time>
      </trkpt>
      <trkpt lat="44.82619" lon="6.2928">
        <ele>1558</ele>
        <time>2021-07-07T06:49:20Z</time>
      </trkpt>
      <trkpt lat="44.82627" lon="6.29272">
        <ele>1558</ele>
        <time>2021-07-07T06:49:15Z</time>
      </trkpt>
      <trkpt lat="44.82636" lon="6.29269">
        <ele>1558</ele>
        <time>2021-07-07T06:49:10Z</time>
      </trkpt>
      <trkpt lat="44.82655" lon="6.29248">
        <ele>1557</ele>
        <time>2021-07-07T06:48:58Z</time>
      </trkpt>
      <trkpt lat="44.82669" lon="6.29244">
        <ele>1558</ele>
        <time>2021-07-07T06:48:51Z</time>
      </trkpt>
      <trkpt lat="44.82687" lon="6.29223">
        <ele>1556</ele>
        <time>2021-07-07T06:48:39Z</time>
      </trkpt>
      <trkpt lat="44.82706" lon="6.29224">
        <ele>1554</ele>
        <time>2021-07-07T06:48:30Z</time>
      </trkpt>
      <trkpt lat="44.8271" lon="6.29228">
        <ele>1553</ele>
        <time>2021-07-07T06:48:27Z</time>
      </trkpt>
      <trkpt lat="44.82718" lon="6.29228">
        <ele>1552</ele>
        <time>2021-07-07T06:48:23Z</time>
      </trkpt>
      <trkpt lat="44.82728" lon="6.29215">
        <ele>1550</ele>
        <time>2021-07-07T06:48:16Z</time>
      </trkpt>
      <trkpt lat="44.82735" lon="6.29211">
        <ele>1549</ele>
        <time>2021-07-07T06:48:13Z</time>
      </trkpt>
      <trkpt lat="44.82742" lon="6.29214">
        <ele>1549</ele>
        <time>2021-07-07T06:48:09Z</time>
      </trkpt>
      <trkpt lat="44.82752" lon="6.29214">
        <ele>1548</ele>
        <time>2021-07-07T06:48:04Z</time>
      </trkpt>
      <trkpt lat="44.82765" lon="6.29193">
        <ele>1545</ele>
        <time>2021-07-07T06:47:54Z</time>
      </trkpt>
      <trkpt lat="44.82768" lon="6.29193">
        <ele>1545</ele>
        <time>2021-07-07T06:47:53Z</time>
      </trkpt>
      <trkpt lat="44.82772" lon="6.29199">
        <ele>1546</ele>
        <time>2021-07-07T06:47:50Z</time>
      </trkpt>
      <trkpt lat="44.82777" lon="6.29198">
        <ele>1546</ele>
        <time>2021-07-07T06:47:47Z</time>
      </trkpt>
      <trkpt lat="44.82782" lon="6.2919">
        <ele>1545</ele>
        <time>2021-07-07T06:47:43Z</time>
      </trkpt>
      <trkpt lat="44.8279" lon="6.29193">
        <ele>1545</ele>
        <time>2021-07-07T06:47:39Z</time>
      </trkpt>
      <trkpt lat="44.82798" lon="6.29201">
        <ele>1546</ele>
        <time>2021-07-07T06:47:34Z</time>
      </trkpt>
      <trkpt lat="44.82802" lon="6.29199">
        <ele>1546</ele>
        <time>2021-07-07T06:47:32Z</time>
      </trkpt>
      <trkpt lat="44.82825" lon="6.29165">
        <ele>1538</ele>
        <time>2021-07-07T06:47:15Z</time>
      </trkpt>
      <trkpt lat="44.82842" lon="6.29156">
        <ele>1538</ele>
        <time>2021-07-07T06:47:06Z</time>
      </trkpt>
      <trkpt lat="44.82858" lon="6.29139">
        <ele>1537</ele>
        <time>2021-07-07T06:46:56Z</time>
      </trkpt>
      <trkpt lat="44.82874" lon="6.29116">
        <ele>1533</ele>
        <time>2021-07-07T06:46:45Z</time>
      </trkpt>
      <trkpt lat="44.82885" lon="6.29114">
        <ele>1532</ele>
        <time>2021-07-07T06:46:39Z</time>
      </trkpt>
      <trkpt lat="44.82892" lon="6.29109">
        <ele>1531</ele>
        <time>2021-07-07T06:46:35Z</time>
      </trkpt>
      <trkpt lat="44.82914" lon="6.29101">
        <ele>1527</ele>
        <time>2021-07-07T06:46:24Z</time>
      </trkpt>
      <trkpt lat="44.82927" lon="6.29088">
        <ele>1525</ele>
        <time>2021-07-07T06:46:16Z</time>
      </trkpt>
      <trkpt lat="44.82943" lon="6.29084">
        <ele>1528</ele>
        <time>2021-07-07T06:46:08Z</time>
      </trkpt>
      <trkpt lat="44.82959" lon="6.29068">
        <ele>1528</ele>
        <time>2021-07-07T06:45:58Z</time>
      </trkpt>
      <trkpt lat="44.8297" lon="6.29066">
        <ele>1529</ele>
        <time>2021-07-07T06:45:53Z</time>
      </trkpt>
      <trkpt lat="44.8298" lon="6.29057">
        <ele>1528</ele>
        <time>2021-07-07T06:45:47Z</time>
      </trkpt>
      <trkpt lat="44.83002" lon="6.29026">
        <ele>1521</ele>
        <time>2021-07-07T06:45:31Z</time>
      </trkpt>
      <trkpt lat="44.83018" lon="6.28988">
        <ele>1515</ele>
        <time>2021-07-07T06:45:15Z</time>
      </trkpt>
      <trkpt lat="44.83029" lon="6.2895">
        <ele>1510</ele>
        <time>2021-07-07T06:45:01Z</time>
      </trkpt>
      <trkpt lat="44.83041" lon="6.28923">
        <ele>1507</ele>
        <time>2021-07-07T06:44:50Z</time>
      </trkpt>
      <trkpt lat="44.83044" lon="6.28902">
        <ele>1504</ele>
        <time>2021-07-07T06:44:42Z</time>
      </trkpt>
      <trkpt lat="44.8306" lon="6.28859">
        <ele>1498</ele>
        <time>2021-07-07T06:44:25Z</time>
      </trkpt>
      <trkpt lat="44.83077" lon="6.28827">
        <ele>1489</ele>
        <time>2021-07-07T06:44:11Z</time>
      </trkpt>
      <trkpt lat="44.83089" lon="6.28785">
        <ele>1485</ele>
        <time>2021-07-07T06:43:54Z</time>
      </trkpt>
      <trkpt lat="44.83084" lon="6.28751">
        <ele>1478</ele>
        <time>2021-07-07T06:43:42Z</time>
      </trkpt>
      <trkpt lat="44.831" lon="6.28679">
        <ele>1474</ele>
        <time>2021-07-07T06:43:15Z</time>
      </trkpt>
      <trkpt lat="44.83096" lon="6.28638">
        <ele>1466</ele>
        <time>2021-07-07T06:43:01Z</time>
      </trkpt>
      <trkpt lat="44.83099" lon="6.28596">
        <ele>1462</ele>
        <time>2021-07-07T06:42:46Z</time>
      </trkpt>
      <trkpt lat="44.83108" lon="6.28528">
        <ele>1455</ele>
        <time>2021-07-07T06:42:21Z</time>
      </trkpt>
      <trkpt lat="44.83126" lon="6.28486">
        <ele>1450</ele>
        <time>2021-07-07T06:42:04Z</time>
      </trkpt>
      <trkpt lat="44.83129" lon="6.28482">
        <ele>1450</ele>
        <time>2021-07-07T06:42:02Z</time>
      </trkpt>
      <trkpt lat="44.83135" lon="6.2848">
        <ele>1450</ele>
        <time>2021-07-07T06:41:59Z</time>
      </trkpt>
      <trkpt lat="44.83136" lon="6.28467">
        <ele>1448</ele>
        <time>2021-07-07T06:41:54Z</time>
      </trkpt>
      <trkpt lat="44.83146" lon="6.28455">
        <ele>1447</ele>
        <time>2021-07-07T06:41:47Z</time>
      </trkpt>
      <trkpt lat="44.83147" lon="6.28447">
        <ele>1446</ele>
        <time>2021-07-07T06:41:44Z</time>
      </trkpt>
      <trkpt lat="44.83172" lon="6.28409">
        <ele>1442</ele>
        <time>2021-07-07T06:41:26Z</time>
      </trkpt>
      <trkpt lat="44.83174" lon="6.28387">
        <ele>1441</ele>
        <time>2021-07-07T06:41:18Z</time>
      </trkpt>
      <trkpt lat="44.83163" lon="6.28371">
        <ele>1437</ele>
        <time>2021-07-07T06:41:10Z</time>
      </trkpt>
      <trkpt lat="44.83179" lon="6.28365">
        <ele>1442</ele>
        <time>2021-07-07T06:41:02Z</time>
      </trkpt>
      <trkpt lat="44.83212" lon="6.28359">
        <ele>1457</ele>
        <time>2021-07-07T06:40:45Z</time>
      </trkpt>
      <trkpt lat="44.83215" lon="6.28322">
        <ele>1459</ele>
        <time>2021-07-07T06:40:32Z</time>
      </trkpt>
      <trkpt lat="44.83205" lon="6.28241">
        <ele>1458</ele>
        <time>2021-07-07T06:40:03Z</time>
      </trkpt>
      <trkpt lat="44.83192" lon="6.28189">
        <ele>1447</ele>
        <time>2021-07-07T06:39:43Z</time>
      </trkpt>
      <trkpt lat="44.83176" lon="6.28141">
        <ele>1439</ele>
        <time>2021-07-07T06:39:25Z</time>
      </trkpt>
      <trkpt lat="44.83158" lon="6.28101">
        <ele>1434</ele>
        <time>2021-07-07T06:39:08Z</time>
      </trkpt>
      <trkpt lat="44.8313" lon="6.28054">
        <ele>1433</ele>
        <time>2021-07-07T06:38:46Z</time>
      </trkpt>
      <trkpt lat="44.83081" lon="6.28006">
        <ele>1418</ele>
        <time>2021-07-07T06:38:16Z</time>
      </trkpt>
      <trkpt lat="44.8307" lon="6.2799">
        <ele>1420</ele>
        <time>2021-07-07T06:38:08Z</time>
      </trkpt>
      <trkpt lat="44.83013" lon="6.2795">
        <ele>1418</ele>
        <time>2021-07-07T06:37:36Z</time>
      </trkpt>
      <trkpt lat="44.82999" lon="6.27937">
        <ele>1416</ele>
        <time>2021-07-07T06:37:28Z</time>
      </trkpt>
      <trkpt lat="44.82989" lon="6.27922">
        <ele>1416</ele>
        <time>2021-07-07T06:37:21Z</time>
      </trkpt>
      <trkpt lat="44.82989" lon="6.27897">
        <ele>1418</ele>
        <time>2021-07-07T06:37:12Z</time>
      </trkpt>
      <trkpt lat="44.82967" lon="6.27859">
        <ele>1420</ele>
        <time>2021-07-07T06:36:54Z</time>
      </trkpt>
      <trkpt lat="44.82958" lon="6.27818">
        <ele>1420</ele>
        <time>2021-07-07T06:36:39Z</time>
      </trkpt>
      <trkpt lat="44.82959" lon="6.27798">
        <ele>1422</ele>
        <time>2021-07-07T06:36:32Z</time>
      </trkpt>
      <trkpt lat="44.82944" lon="6.27771">
        <ele>1419</ele>
        <time>2021-07-07T06:36:20Z</time>
      </trkpt>
      <trkpt lat="44.82942" lon="6.27711">
        <ele>1418</ele>
        <time>2021-07-07T06:35:59Z</time>
      </trkpt>
      <trkpt lat="44.82936" lon="6.27641">
        <ele>1414</ele>
        <time>2021-07-07T06:35:34Z</time>
      </trkpt>
      <trkpt lat="44.82923" lon="6.2758">
        <ele>1406</ele>
        <time>2021-07-07T06:35:11Z</time>
      </trkpt>
      <trkpt lat="44.82932" lon="6.27548">
        <ele>1409</ele>
        <time>2021-07-07T06:34:59Z</time>
      </trkpt>
      <trkpt lat="44.82928" lon="6.27538">
        <ele>1408</ele>
        <time>2021-07-07T06:34:55Z</time>
      </trkpt>
      <trkpt lat="44.82922" lon="6.27532">
        <ele>1405</ele>
        <time>2021-07-07T06:34:51Z</time>
      </trkpt>
      <trkpt lat="44.82916" lon="6.2751">
        <ele>1403</ele>
        <time>2021-07-07T06:34:43Z</time>
      </trkpt>
      <trkpt lat="44.82906" lon="6.27441">
        <ele>1405</ele>
        <time>2021-07-07T06:34:18Z</time>
      </trkpt>
      <trkpt lat="44.82906" lon="6.2734">
        <ele>1407</ele>
        <time>2021-07-07T06:33:42Z</time>
      </trkpt>
      <trkpt lat="44.82902" lon="6.27314">
        <ele>1407</ele>
        <time>2021-07-07T06:33:32Z</time>
      </trkpt>
      <trkpt lat="44.829" lon="6.27264">
        <ele>1408</ele>
        <time>2021-07-07T06:33:15Z</time>
      </trkpt>
      <trkpt lat="44.82902" lon="6.27141">
        <ele>1424</ele>
        <time>2021-07-07T06:32:31Z</time>
      </trkpt>
      <trkpt lat="44.82897" lon="6.27116">
        <ele>1425</ele>
        <time>2021-07-07T06:32:22Z</time>
      </trkpt>
      <trkpt lat="44.82911" lon="6.27079">
        <ele>1437</ele>
        <time>2021-07-07T06:32:07Z</time>
      </trkpt>
      <trkpt lat="44.82898" lon="6.27069">
        <ele>1431</ele>
        <time>2021-07-07T06:31:59Z</time>
      </trkpt>
      <trkpt lat="44.82885" lon="6.27067">
        <ele>1425</ele>
        <time>2021-07-07T06:31:53Z</time>
      </trkpt>
      <trkpt lat="44.82881" lon="6.27051">
        <ele>1425</ele>
        <time>2021-07-07T06:31:47Z</time>
      </trkpt>
      <trkpt lat="44.82885" lon="6.27028">
        <ele>1429</ele>
        <time>2021-07-07T06:31:38Z</time>
      </trkpt>
      <trkpt lat="44.82883" lon="6.27015">
        <ele>1429</ele>
        <time>2021-07-07T06:31:34Z</time>
      </trkpt>
      <trkpt lat="44.82874" lon="6.27">
        <ele>1425</ele>
        <time>2021-07-07T06:31:27Z</time>
      </trkpt>
      <trkpt lat="44.82867" lon="6.26965">
        <ele>1428</ele>
        <time>2021-07-07T06:31:14Z</time>
      </trkpt>
      <trkpt lat="44.82851" lon="6.26916">
        <ele>1429</ele>
        <time>2021-07-07T06:30:55Z</time>
      </trkpt>
      <trkpt lat="44.8285" lon="6.26905">
        <ele>1430</ele>
        <time>2021-07-07T06:30:51Z</time>
      </trkpt>
      <trkpt lat="44.82854" lon="6.26887">
        <ele>1435</ele>
        <time>2021-07-07T06:30:44Z</time>
      </trkpt>
      <trkpt lat="44.82848" lon="6.26873">
        <ele>1434</ele>
        <time>2021-07-07T06:30:38Z</time>
      </trkpt>
      <trkpt lat="44.82825" lon="6.26852">
        <ele>1426</ele>
        <time>2021-07-07T06:30:24Z</time>
      </trkpt>
      <trkpt lat="44.82815" lon="6.26835">
        <ele>1424</ele>
        <time>2021-07-07T06:30:17Z</time>
      </trkpt>
      <trkpt lat="44.82817" lon="6.2681">
        <ele>1427</ele>
        <time>2021-07-07T06:30:08Z</time>
      </trkpt>
      <trkpt lat="44.82825" lon="6.26778">
        <ele>1432</ele>
        <time>2021-07-07T06:29:56Z</time>
      </trkpt>
      <trkpt lat="44.82805" lon="6.26759">
        <ele>1425</ele>
        <time>2021-07-07T06:29:44Z</time>
      </trkpt>
      <trkpt lat="44.82774" lon="6.26674">
        <ele>1412</ele>
        <time>2021-07-07T06:29:10Z</time>
      </trkpt>
      <trkpt lat="44.8277" lon="6.26653">
        <ele>1411</ele>
        <time>2021-07-07T06:29:02Z</time>
      </trkpt>
      <trkpt lat="44.82767" lon="6.26613">
        <ele>1411</ele>
        <time>2021-07-07T06:28:48Z</time>
      </trkpt>
      <trkpt lat="44.8276" lon="6.26598">
        <ele>1408</ele>
        <time>2021-07-07T06:28:41Z</time>
      </trkpt>
      <trkpt lat="44.82758" lon="6.26577">
        <ele>1408</ele>
        <time>2021-07-07T06:28:34Z</time>
      </trkpt>
      <trkpt lat="44.8275" lon="6.26554">
        <ele>1407</ele>
        <time>2021-07-07T06:28:25Z</time>
      </trkpt>
      <trkpt lat="44.8275" lon="6.2653">
        <ele>1409</ele>
        <time>2021-07-07T06:28:16Z</time>
      </trkpt>
      <trkpt lat="44.8274" lon="6.26511">
        <ele>1406</ele>
        <time>2021-07-07T06:28:08Z</time>
      </trkpt>
      <trkpt lat="44.82739" lon="6.2649">
        <ele>1407</ele>
        <time>2021-07-07T06:28:00Z</time>
      </trkpt>
      <trkpt lat="44.82743" lon="6.26463">
        <ele>1411</ele>
        <time>2021-07-07T06:27:51Z</time>
      </trkpt>
      <trkpt lat="44.82739" lon="6.26411">
        <ele>1413</ele>
        <time>2021-07-07T06:27:32Z</time>
      </trkpt>
      <trkpt lat="44.82731" lon="6.26387">
        <ele>1412</ele>
        <time>2021-07-07T06:27:23Z</time>
      </trkpt>
      <trkpt lat="44.82707" lon="6.26354">
        <ele>1405</ele>
        <time>2021-07-07T06:27:06Z</time>
      </trkpt>
      <trkpt lat="44.82703" lon="6.26324">
        <ele>1408</ele>
        <time>2021-07-07T06:26:55Z</time>
      </trkpt>
      <trkpt lat="44.82692" lon="6.26291">
        <ele>1408</ele>
        <time>2021-07-07T06:26:42Z</time>
      </trkpt>
      <trkpt lat="44.82689" lon="6.26261">
        <ele>1411</ele>
        <time>2021-07-07T06:26:31Z</time>
      </trkpt>
      <trkpt lat="44.82693" lon="6.26237">
        <ele>1415</ele>
        <time>2021-07-07T06:26:22Z</time>
      </trkpt>
      <trkpt lat="44.82692" lon="6.26215">
        <ele>1416</ele>
        <time>2021-07-07T06:26:15Z</time>
      </trkpt>
      <trkpt lat="44.82677" lon="6.26167">
        <ele>1413</ele>
        <time>2021-07-07T06:25:56Z</time>
      </trkpt>
      <trkpt lat="44.82665" lon="6.26143">
        <ele>1408</ele>
        <time>2021-07-07T06:25:46Z</time>
      </trkpt>
      <trkpt lat="44.82665" lon="6.2611">
        <ele>1407</ele>
        <time>2021-07-07T06:25:34Z</time>
      </trkpt>
      <trkpt lat="44.82668" lon="6.2609">
        <ele>1408</ele>
        <time>2021-07-07T06:25:27Z</time>
      </trkpt>
      <trkpt lat="44.82664" lon="6.26084">
        <ele>1406</ele>
        <time>2021-07-07T06:25:24Z</time>
      </trkpt>
      <trkpt lat="44.82664" lon="6.26071">
        <ele>1404</ele>
        <time>2021-07-07T06:25:19Z</time>
      </trkpt>
      <trkpt lat="44.82651" lon="6.26068">
        <ele>1397</ele>
        <time>2021-07-07T06:25:13Z</time>
      </trkpt>
      <trkpt lat="44.82652" lon="6.26061">
        <ele>1396</ele>
        <time>2021-07-07T06:25:10Z</time>
      </trkpt>
    </trkseg>
  </trk>
</gpx>